GFSCGP_sfc_30mbdewp_000.txt.gz
Dewpoint
15 12 11 16 20 22 24 28 28 29 40 43 40 40 43 52 51 51 53 56 56 55 57 60 63 64 65 66 68 69 69 70 71 71 67 67 65 66 68 67 71 71 70 70
11 8 10 13 18 21 24 25 27 30 40 41 38 39 42 46 52 50 51 54 57 56 57 60 63 63 64 66 68 70 70 70 72 69 68 67 67 65 67 67 69 70 70 70
11 5 9 11 13 20 24 25 27 31 40 41 37 39 39 41 49 51 51 52 55 56 56 59 61 62 63 65 68 69 71 71 72 70 69 70 70 70 68 68 70 71 72 72
8 7 7 10 14 19 22 24 27 30 34 34 39 31 32 36 45 49 52 51 51 56 57 58 59 61 62 64 66 69 71 72 72 72 69 69 67 64 63 64 64 68 71 71
12 6 8 7 10 15 21 23 25 27 32 33 36 34 31 37 37 43 49 51 51 51 55 57 59 60 62 63 65 68 71 72 72 72 72 70 70 65 64 64 68 70 70 71
15 12 7 8 7 13 20 23 25 26 27 28 31 32 27 29 35 34 42 48 51 50 51 55 57 59 60 62 64 66 69 72 72 72 72 72 68 68 63 66 65 64 64 68
15 11 8 5 9 10 17 23 24 23 23 24 30 30 28 26 27 31 28 39 50 50 50 53 56 58 60 61 63 65 68 71 72 72 72 72 72 70 69 68 66 62 61 62
15 10 11 9 5 12 16 20 21 19 18 20 26 26 25 29 28 27 28 36 46 50 49 51 54 57 59 61 62 64 66 70 71 71 72 73 73 71 70 69 65 63 61 59
14 14 12 9 9 8 16 17 21 20 20 17 17 25 26 26 30 30 33 38 42 48 49 49 53 56 58 60 63 65 68 69 70 70 71 73 73 72 68 68 69 66 65 60
19 16 16 12 11 10 11 19 19 20 19 18 18 19 23 25 23 22 29 38 41 47 49 48 51 54 57 59 61 64 66 68 69 69 70 71 71 72 71 70 70 67 67 66
21 19 13 14 9 7 11 13 19 20 19 17 18 19 21 23 24 24 22 37 38 44 49 50 49 51 56 57 59 62 65 67 68 68 69 69 69 70 71 71 73 71 69 67
23 21 18 8 9 7 9 14 19 19 22 20 18 16 19 21 23 22 21 22 25 41 47 51 51 52 54 57 57 59 62 65 67 68 70 69 69 69 70 72 72 70 68 66
22 21 19 18 7 7 5 9 15 19 20 22 19 19 19 21 23 24 34 34 35 46 48 51 52 54 55 56 58 59 62 63 64 66 68 68 68 69 69 72 70 69 65 65
29 18 19 16 16 9 7 6 8 12 16 19 18 20 19 18 21 20 25 35 40 48 50 53 53 55 57 58 61 62 61 62 63 64 67 68 68 69 70 70 66 64 62 63
36 30 25 20 17 15 13 8 7 7 10 15 18 17 20 21 21 21 20 25 38 48 51 54 55 59 62 62 63 63 63 63 63 64 65 67 69 70 69 67 64 62 62 63
28 32 30 26 23 20 17 15 8 7 8 9 13 16 17 19 21 20 20 21 37 48 50 54 57 58 61 62 63 64 64 64 65 66 67 67 71 70 68 67 65 64 63 60
30 32 34 28 26 23 21 19 15 10 7 10 10 12 14 15 18 22 23 33 38 46 50 53 56 58 61 63 65 64 65 66 66 67 68 69 71 69 67 66 65 63 61 60
35 38 35 30 32 25 21 22 20 13 8 10 16 17 15 18 26 33 36 31 38 46 49 52 54 57 61 61 62 63 65 66 66 68 69 70 70 68 68 66 66 63 60 59
33 35 32 28 27 27 28 29 21 16 13 10 18 22 23 27 36 42 45 44 45 48 52 54 55 58 60 58 60 62 63 65 67 68 68 69 69 67 67 66 65 64 62 61
33 36 33 31 27 25 37 43 45 44 30 19 16 24 25 34 32 23 48 45 44 49 52 54 54 58 58 57 59 61 63 65 66 68 68 69 68 67 67 66 66 65 64 63
35 35 28 29 31 32 44 44 45 36 27 20 34 36 38 38 43 50 50 50 51 53 55 56 56 55 57 58 60 60 62 63 65 68 69 68 68 68 68 67 66 65 64 63
36 34 28 33 34 31 46 43 43 47 47 47 46 46 45 49 51 53 53 54 55 54 53 52 55 59 60 60 61 62 63 66 67 68 68 68 68 68 67 67 66 65 64 64
32 32 31 34 31 47 46 49 49 48 48 48 48 49 49 48 49 51 50 51 51 50 50 52 57 61 63 64 63 64 69 69 69 69 68 68 68 67 67 66 65 64 63 62
39 40 38 42 44 45 47 48 47 47 46 46 47 46 47 47 47 49 50 52 55 56 55 55 56 60 64 67 67 68 68 69 69 69 69 68 68 67 66 66 65 64 63 62
44 44 42 43 47 44 46 47 47 46 47 47 48 47 48 52 54 57 57 57 58 59 58 57 58 62 65 66 67 67 68 68 67 68 67 67 66 66 66 63 58 62 60 59
47 48 42 39 48 48 44 44 44 43 43 45 45 45 46 48 50 56 58 59 61 61 62 62 63 65 66 67 67 67 68 68 67 65 65 64 64 65 64 62 59 49 52 53

GFSCGP_sfc_30mbdewp_006.txt.gz
Dewpoint
22 18 17 19 18 19 18 23 21 24 33 29 35 48 49 46 44 39 42 43 47 50 52 55 56 58 59 63 66 68 68 69 72 73 71 69 69 69 68 70 69 71 72 71
14 13 12 17 20 19 20 21 23 24 32 32 31 45 46 47 43 42 40 42 43 45 50 54 57 57 59 62 65 69 70 71 71 71 71 70 70 69 69 69 72 72 71 72
14 10 9 12 17 19 19 20 22 23 28 30 28 30 38 42 41 41 42 42 42 45 46 54 56 57 59 62 66 68 71 72 72 71 72 72 70 70 69 69 71 73 72 72
15 14 7 8 14 18 18 20 21 21 28 29 32 28 37 37 42 41 42 42 43 44 47 51 56 58 59 61 65 69 72 72 74 73 72 70 68 67 66 68 69 71 72 71
9 12 8 5 9 15 18 20 20 20 23 32 34 32 33 39 40 43 43 43 43 45 45 48 55 58 59 61 66 69 72 73 73 74 72 71 69 67 66 64 69 72 72 72
14 11 10 6 5 11 16 18 18 19 21 22 28 31 29 34 36 36 42 44 44 45 46 48 53 57 59 61 65 67 72 74 74 74 73 72 69 68 66 67 69 70 71 71
13 12 9 8 5 7 10 14 17 16 18 19 23 31 33 36 37 36 40 45 45 46 47 49 51 56 60 61 64 68 71 73 74 74 74 73 71 70 69 69 68 67 66 69
12 10 10 8 5 6 7 11 16 16 17 19 21 21 28 37 38 39 42 47 43 47 47 49 52 55 60 61 63 66 71 73 74 74 74 74 72 71 71 70 67 68 65 64
8 11 13 10 9 5 6 7 13 15 17 17 19 20 22 26 36 38 34 33 34 44 47 48 52 55 59 61 63 66 70 73 74 74 75 75 74 72 71 70 71 69 67 68
12 10 12 12 10 9 4 9 8 11 15 16 17 21 23 25 31 36 36 36 29 32 47 49 50 56 58 61 63 66 68 72 75 74 75 75 75 74 72 70 71 68 69 66
12 13 11 13 12 10 6 4 7 10 14 15 18 20 25 31 31 35 34 30 29 30 45 46 50 53 58 61 62 64 67 71 73 74 74 74 74 74 73 74 73 70 71 68
14 13 13 12 14 12 10 7 6 8 15 14 17 19 21 26 31 29 29 29 30 31 36 43 50 51 56 59 61 63 66 69 72 73 73 74 74 74 74 73 73 72 72 70
12 15 15 12 14 15 9 7 7 5 9 16 16 18 22 25 27 32 29 30 33 32 42 44 47 51 53 56 59 62 64 67 71 72 72 73 73 74 74 74 72 73 72 71
18 16 17 15 16 16 14 10 10 8 5 9 13 21 22 27 28 28 31 31 31 32 47 45 46 51 52 55 58 60 63 64 68 70 71 71 72 72 72 73 73 72 73 72
17 19 19 16 16 17 15 13 11 10 11 10 10 13 23 25 29 29 28 30 31 33 44 44 48 51 54 56 59 59 60 62 63 68 70 71 72 72 72 73 73 73 73 73
15 20 22 21 19 17 18 16 10 9 10 11 11 11 14 21 23 32 29 30 32 32 33 48 50 53 58 58 59 59 59 60 62 64 67 69 71 73 72 72 73 73 74 73
18 17 23 22 21 20 17 19 16 13 8 9 8 12 16 17 24 28 34 32 34 33 33 37 52 54 56 59 60 59 59 61 61 65 67 68 71 73 73 73 73 74 74 73
23 21 24 24 24 20 20 19 17 16 15 12 10 13 15 18 21 23 24 27 30 35 33 33 31 54 58 59 59 60 61 62 62 68 68 69 72 73 73 73 73 74 73 71
23 28 26 26 27 27 26 24 25 23 24 24 20 22 17 17 17 19 21 23 26 26 40 37 32 40 58 59 60 63 63 62 68 66 70 71 74 74 74 73 73 73 71 70
25 30 29 28 26 26 31 36 38 36 31 41 42 40 37 32 19 18 23 27 26 24 29 40 42 46 61 62 61 63 65 65 65 69 71 73 75 74 73 72 71 70 70 70
24 28 27 28 26 26 38 39 38 33 34 46 45 45 44 40 42 46 48 49 51 33 35 43 52 58 64 64 64 65 66 67 68 71 72 75 75 74 72 71 70 69 69 70
22 21 26 30 31 31 40 43 38 44 45 44 44 44 43 44 44 42 46 49 50 49 46 53 61 65 67 66 67 68 69 71 72 73 73 75 73 71 70 70 70 70 69 67
20 21 21 25 28 32 44 48 47 45 45 48 50 47 43 42 43 49 50 52 52 52 54 57 63 66 67 69 69 69 71 71 72 72 73 73 71 69 69 70 68 67 68 66
24 41 28 27 31 43 44 44 45 46 52 54 56 57 58 52 50 50 52 54 56 58 60 62 63 65 67 69 69 71 71 72 72 72 71 70 69 70 71 70 69 67 66 65
47 47 46 33 47 47 48 47 48 49 51 52 53 53 55 59 60 59 60 60 61 62 65 66 66 67 68 71 71 71 72 73 72 70 69 69 69 69 69 62 62 65 60 61
47 48 47 47 48 47 47 47 46 45 45 46 48 49 53 55 56 58 60 60 60 62 63 65 66 67 68 69 70 71 73 71 70 69 68 69 68 68 64 60 57 51 53 52

GFSCGP_sfc_30mbdewp_009.txt.gz
Dewpoint
19 20 19 17 14 16 18 18 19 20 30 33 38 41 41 40 42 43 48 49 50 52 54 58 59 60 62 66 66 67 67 71 71 70 71 71 71 71 69 69 71 70 70 71
16 19 21 20 19 15 17 18 19 21 29 31 42 42 41 39 37 40 44 48 50 51 52 56 57 59 61 65 66 67 66 71 71 72 71 71 70 70 70 70 70 70 72 71
16 21 21 18 18 19 17 18 19 21 26 32 42 43 44 40 40 43 45 46 49 50 51 54 56 58 59 64 67 68 67 69 72 73 72 71 71 70 70 70 71 72 72 72
17 20 17 16 13 15 19 20 20 20 21 25 36 34 44 42 45 47 47 43 46 49 51 53 56 57 59 64 66 68 69 70 71 72 71 70 69 67 69 69 69 71 73 72
12 18 17 14 8 10 18 21 20 20 20 32 31 30 34 44 45 45 46 42 43 46 49 53 56 57 59 62 66 70 70 70 72 71 71 70 69 68 69 70 69 72 73 72
17 16 11 14 14 8 11 18 20 20 20 19 29 29 32 38 45 48 45 43 43 44 47 53 55 58 58 63 66 69 71 71 72 71 72 71 70 69 67 67 69 71 71 70
10 12 16 12 11 10 7 9 14 16 18 18 20 29 33 35 37 41 43 42 44 44 46 48 55 57 58 62 65 69 71 71 73 72 71 72 70 69 68 67 70 70 69 71
10 9 13 15 10 9 6 7 10 14 17 18 20 20 23 34 38 41 44 45 45 45 45 48 54 56 59 60 65 68 71 71 73 73 73 71 72 69 68 70 70 70 69 70
9 11 16 15 13 9 8 5 7 10 17 19 19 19 21 33 35 38 40 43 43 44 45 47 52 56 59 60 66 67 71 72 73 73 73 72 72 71 70 71 71 70 68 69
13 15 16 15 13 11 7 10 6 6 7 12 15 19 22 26 35 40 40 40 41 43 45 48 50 55 59 61 64 67 70 72 73 72 74 73 73 71 71 71 70 71 68 69
13 13 13 16 12 9 9 5 5 8 8 10 15 18 23 23 35 40 39 39 40 43 44 48 51 54 59 61 63 66 70 72 73 74 74 73 73 72 71 72 71 70 69 69
14 12 11 12 15 14 10 10 5 8 8 14 11 13 24 20 33 39 38 38 36 39 44 48 50 54 59 61 62 65 70 71 73 73 74 74 74 74 72 71 72 72 69 69
18 13 12 15 14 14 11 10 11 6 11 11 16 14 15 16 26 28 32 38 37 38 48 49 50 55 59 60 61 64 68 72 73 74 73 74 73 74 73 72 73 73 70 70
25 16 14 14 16 15 15 13 11 8 4 5 7 8 13 21 29 30 33 33 31 37 46 49 51 55 57 60 61 62 66 70 72 73 73 73 73 73 73 73 72 73 73 71
17 17 14 17 17 16 12 16 12 11 8 7 8 7 11 14 29 31 34 38 34 38 47 49 51 53 57 59 61 62 64 66 70 72 72 72 73 73 73 73 73 72 73 72
27 24 22 21 20 17 14 15 17 10 10 11 11 12 18 18 18 33 35 30 27 40 48 49 53 52 54 57 60 61 63 65 67 70 71 71 72 72 73 73 73 73 72 73
26 26 26 18 22 22 19 14 17 19 13 13 11 12 14 14 16 29 32 36 27 29 44 47 49 58 54 57 59 61 63 64 66 68 70 70 70 72 72 73 72 73 73 74
25 24 27 20 23 20 25 24 22 21 22 17 16 16 19 17 20 29 28 24 29 34 37 45 47 52 61 58 59 60 62 63 64 66 69 69 71 71 72 72 72 73 73 73
26 24 26 22 22 23 24 25 23 21 20 30 39 39 35 34 28 20 27 28 23 33 29 34 46 52 57 60 59 59 60 62 63 64 65 68 69 71 72 72 72 74 73 72
23 28 28 23 20 20 24 32 37 35 33 45 45 45 44 41 32 31 45 48 39 34 31 25 35 43 58 60 60 60 60 61 61 62 65 68 69 71 73 72 73 73 72 71
28 26 26 29 19 27 40 40 38 32 40 45 45 45 45 44 45 46 46 50 51 50 46 36 40 42 55 62 61 60 60 60 62 62 70 71 73 74 73 73 71 71 70 70
32 34 27 31 29 28 45 40 36 48 51 53 54 55 47 46 46 45 48 49 51 49 49 63 53 51 59 64 64 64 61 63 69 71 75 75 74 73 71 70 70 69 69 68
31 36 35 31 32 44 45 44 50 53 57 57 58 60 58 59 60 61 55 54 55 58 64 66 69 70 71 68 68 69 72 72 73 75 74 72 71 71 70 69 69 68 67 66
37 46 35 38 30 38 46 45 58 55 55 54 58 58 58 58 58 59 60 64 64 64 66 68 68 69 70 72 72 72 73 73 74 73 71 70 69 69 69 68 68 67 67 66
47 46 46 44 48 51 54 55 54 54 54 53 54 55 55 56 56 57 57 59 62 66 68 69 69 71 71 72 72 72 73 73 71 71 70 69 69 69 64 58 61 64 59 64
45 48 46 46 50 51 49 46 49 50 49 50 50 54 54 54 55 56 56 57 59 60 63 69 69 70 71 72 72 72 71 70 69 69 69 69 68 63 60 58 55 49 51 53

GFSCGP_sfc_30mbdewp_012.txt.gz
Dewpoint
21 21 22 21 20 18 17 17 17 18 21 35 35 37 40 50 54 55 56 56 56 56 58 59 59 61 62 66 68 69 69 69 70 70 69 69 68 69 69 71 69 70 70 70
19 18 20 22 19 18 15 14 16 18 20 28 38 37 40 46 49 52 53 55 56 56 57 58 58 61 62 66 68 68 69 69 69 69 69 70 70 70 70 70 70 69 69 70
17 18 19 21 20 18 15 13 14 17 19 32 40 39 40 41 44 47 50 52 54 55 55 57 58 60 62 65 67 67 69 69 69 70 70 71 71 70 70 70 70 70 71 70
21 20 18 18 20 19 17 18 16 17 19 19 38 31 41 42 40 42 47 49 50 52 54 56 58 58 61 64 66 66 68 71 70 71 70 69 68 68 69 69 70 71 71 71
18 18 16 20 20 20 17 18 20 19 20 21 22 30 36 43 42 45 45 46 49 51 52 53 57 58 59 62 65 66 66 71 71 71 70 70 68 68 68 69 69 70 72 72
19 17 18 19 19 19 17 12 16 21 20 19 25 31 31 41 40 43 44 46 47 50 51 52 56 57 59 61 64 66 66 67 71 71 70 70 69 68 68 68 68 70 72 72
21 21 16 16 17 17 13 9 7 10 15 17 20 27 30 36 42 42 43 44 46 48 50 51 53 55 57 59 63 66 67 67 69 71 70 70 69 69 68 67 68 70 71 71
16 15 14 15 15 13 12 10 7 7 12 15 19 20 24 34 42 44 43 44 47 44 48 51 53 55 56 59 63 66 68 67 69 70 70 70 70 69 69 68 70 69 70 70
10 11 12 11 12 15 14 8 8 7 16 13 16 20 22 25 37 43 44 45 45 44 45 48 53 55 56 58 63 66 68 68 69 70 69 70 71 70 69 70 70 70 70 69
9 10 12 10 12 12 12 11 7 7 5 6 10 17 18 20 23 35 40 44 44 44 44 46 49 54 57 58 63 66 68 69 70 71 70 70 70 71 70 69 70 70 69 70
8 11 11 14 11 13 13 10 9 7 5 4 7 9 16 19 22 28 41 44 44 45 45 45 47 54 57 58 63 66 68 68 70 71 71 71 71 70 71 70 70 71 69 68
11 7 9 13 13 15 15 12 8 6 6 7 5 6 19 19 21 28 35 42 45 45 45 47 47 51 56 59 63 65 68 69 69 71 71 71 72 71 70 70 70 71 70 68
29 15 12 12 12 13 13 12 9 8 6 6 8 8 14 14 15 28 31 40 41 41 43 46 48 52 55 59 61 65 68 69 70 71 71 72 72 72 71 70 70 71 70 69
28 22 13 12 12 12 12 13 11 8 6 6 7 11 14 14 16 24 32 40 40 39 39 42 49 51 56 59 61 64 66 70 70 71 71 72 72 72 72 71 70 70 71 69
30 24 21 22 18 13 13 13 12 10 8 6 7 7 9 10 12 12 15 37 38 38 43 44 48 52 57 59 60 63 66 68 70 71 71 72 72 73 73 72 72 71 72 70
30 25 25 23 22 14 14 16 14 15 11 10 8 7 9 9 11 18 22 30 36 37 44 47 49 53 57 59 61 62 65 69 70 71 71 72 72 73 73 73 73 71 72 72
29 26 24 21 24 16 15 15 15 14 14 13 10 10 14 14 17 18 20 25 32 40 44 50 50 53 55 59 60 61 64 68 70 71 71 72 72 72 72 73 73 73 71 72
29 28 25 23 23 16 20 19 18 16 18 17 13 13 14 13 13 19 25 26 30 32 40 50 52 52 55 58 60 61 62 66 69 70 71 72 72 72 72 73 73 73 73 72
27 28 24 23 25 22 22 25 22 18 18 34 22 22 19 20 22 28 33 28 26 34 35 43 52 54 55 57 59 61 62 64 65 68 69 71 72 71 72 72 72 73 73 73
33 26 24 24 23 21 20 29 33 31 37 47 45 41 37 32 19 34 44 49 32 29 33 34 35 51 58 55 58 60 61 63 64 65 67 70 71 71 71 72 72 73 73 73
34 35 25 27 28 26 41 45 37 27 34 46 46 46 43 41 41 44 47 49 49 46 38 34 37 36 50 60 58 58 60 62 63 65 66 68 70 70 71 72 73 73 73 72
35 35 33 30 33 33 35 43 31 44 56 55 55 55 55 58 58 57 52 50 51 47 47 53 44 38 42 55 59 58 59 60 62 63 64 66 69 70 73 73 73 72 71 70
36 38 34 33 36 41 42 50 56 57 55 58 58 58 59 58 59 60 62 64 65 65 65 68 65 54 62 60 60 59 59 60 61 62 65 68 70 72 73 72 71 70 69 68
41 44 39 37 40 44 56 57 55 55 56 56 57 57 57 57 58 58 59 61 62 61 61 61 64 69 67 68 64 61 61 62 65 69 72 72 71 71 71 70 70 68 67 66
42 43 44 41 42 48 50 55 54 52 54 54 55 56 56 56 56 57 57 57 58 58 58 58 57 55 56 69 71 71 70 72 72 71 71 70 69 69 65 60 65 67 65 66
43 45 45 44 48 49 48 54 53 50 50 52 51 53 55 56 56 56 55 56 57 56 56 53 53 53 53 57 62 73 73 72 71 69 69 68 63 61 60 59 58 50 56 62

GFSCGP_sfc_30mbdewp_015.txt.gz
Dewpoint
26 26 23 21 21 20 19 18 19 19 21 30 35 39 54 56 57 58 59 59 61 61 62 62 62 62 63 65 66 67 67 68 70 69 70 69 69 68 69 70 70 71 71 71
22 22 25 25 23 21 19 18 17 17 19 23 30 35 53 55 56 57 58 59 60 61 61 62 62 62 61 65 67 67 67 68 69 69 69 69 69 69 69 70 70 70 71 71
19 19 20 21 21 20 18 18 17 16 19 26 36 38 43 54 55 56 56 57 59 59 60 62 61 61 61 64 67 68 68 68 68 69 69 70 70 69 69 69 69 69 70 70
20 18 19 19 19 20 19 18 17 15 15 14 36 32 39 46 53 54 55 56 56 56 58 59 60 59 60 63 66 68 68 68 68 69 68 68 67 66 68 69 70 70 70 70
19 17 17 17 18 20 19 20 19 20 18 18 20 25 29 41 45 47 51 53 55 56 56 57 59 59 60 62 65 67 68 68 68 68 68 68 67 67 68 69 69 70 70 71
19 21 19 19 19 18 21 19 16 19 19 15 18 21 20 36 40 42 45 49 52 54 55 56 57 58 60 62 65 67 67 68 68 69 68 68 67 67 67 68 68 68 70 71
20 20 18 19 18 20 20 16 14 11 12 13 16 21 21 29 41 41 43 44 49 50 52 54 55 57 58 61 64 66 66 68 69 69 69 69 68 68 67 67 68 68 69 70
19 18 20 17 17 16 17 16 12 9 10 12 18 18 20 28 33 43 42 44 45 48 50 52 53 55 58 59 63 65 66 66 69 70 69 69 69 69 68 68 67 68 69 70
18 18 19 20 17 17 14 14 14 10 16 11 16 19 21 22 26 37 42 42 44 46 48 50 52 53 56 58 61 65 65 65 68 70 70 70 70 69 69 68 68 68 70 70
14 12 13 15 18 16 15 14 10 9 9 8 9 12 13 20 22 29 39 43 43 46 46 49 50 52 54 57 59 63 65 65 65 68 69 69 70 70 69 69 68 68 69 70
17 12 12 12 11 12 13 13 11 11 8 7 6 8 13 18 21 24 32 42 44 46 46 46 49 51 53 56 58 62 65 65 65 66 68 68 69 70 69 69 69 69 69 69
31 17 12 11 14 11 11 12 11 10 8 8 7 7 17 16 18 22 24 34 41 44 46 45 46 49 52 55 57 62 64 66 65 67 68 68 68 69 70 69 69 70 70 69
34 24 12 8 9 13 12 13 11 11 10 10 7 7 11 15 17 20 24 33 34 41 45 46 45 46 52 55 57 61 64 65 66 67 68 69 69 69 70 70 70 70 70 69
31 26 21 15 12 16 12 13 14 12 10 10 9 8 13 12 11 12 21 27 35 43 46 46 46 46 52 56 58 61 64 65 66 67 68 69 69 70 69 69 70 70 70 69
30 25 24 25 25 23 21 15 12 12 12 10 11 8 8 12 15 16 16 20 31 41 44 45 46 48 52 55 58 62 63 66 66 67 68 69 70 70 71 70 69 69 70 70
30 25 27 24 21 23 21 16 15 13 12 11 10 9 10 10 14 14 13 14 22 37 40 42 44 46 50 54 58 60 64 65 67 67 68 69 70 71 71 71 71 70 70 70
28 27 26 22 23 24 17 17 16 14 14 12 10 11 10 10 11 11 11 16 21 21 27 37 43 45 50 55 58 60 63 65 68 68 69 69 70 71 71 72 71 71 70 71
28 28 27 24 24 15 19 25 18 15 16 15 13 13 13 11 11 14 14 15 19 26 32 40 45 46 51 55 58 59 63 65 67 68 69 70 70 70 71 72 72 72 71 71
31 28 25 21 24 25 22 28 28 16 16 21 16 15 15 16 19 18 23 26 24 25 29 39 48 49 52 56 58 60 62 64 67 68 68 70 71 71 71 72 72 72 72 71
30 29 26 24 23 21 26 40 45 41 15 42 39 23 20 21 15 15 35 40 31 30 34 39 48 52 52 55 58 60 61 64 67 68 68 70 71 71 71 72 72 72 72 72
27 30 29 25 24 27 41 50 47 31 21 46 45 42 34 24 22 31 45 48 53 46 47 46 38 52 54 56 58 60 61 62 64 67 69 69 71 71 71 72 72 73 73 72
29 30 33 29 27 27 49 51 48 52 55 54 51 53 49 55 58 60 62 63 63 63 64 67 67 65 62 52 57 59 61 62 63 64 66 68 69 71 71 72 72 73 72 72
28 32 36 34 31 43 47 48 55 55 56 57 57 58 58 58 60 60 61 61 59 59 57 57 57 58 60 69 65 58 58 60 62 63 64 66 69 71 71 72 72 72 72 71
33 43 35 37 38 45 49 51 54 54 54 55 56 57 58 58 58 58 58 57 56 56 55 53 52 51 51 56 62 64 67 63 60 62 63 65 68 70 71 72 72 72 71 70
36 40 37 40 43 46 49 51 53 52 52 54 56 56 57 56 54 54 54 55 55 55 54 53 51 50 49 54 57 58 56 61 62 61 63 66 68 70 71 66 70 71 69 69
41 41 39 36 46 47 49 52 51 50 51 50 54 54 55 54 53 54 55 57 58 57 58 56 56 55 54 58 63 63 61 56 64 67 69 70 70 63 61 61 59 56 62 66

GFSCGP_sfc_30mbdewp_018.txt.gz
Dewpoint
28 28 25 22 20 20 23 20 20 20 22 28 38 41 53 57 58 58 59 59 60 61 62 63 63 65 65 67 67 68 68 69 69 69 69 70 69 69 69 69 69 70 71 71
24 26 27 24 21 21 20 19 19 19 19 19 19 24 51 56 57 58 58 59 60 61 62 62 63 63 64 65 66 67 68 69 70 69 69 69 70 69 69 69 70 70 71 71
23 22 27 27 23 20 20 19 19 19 18 21 28 31 37 55 56 57 58 59 60 60 61 62 62 62 63 64 65 66 67 68 69 69 69 69 69 69 69 69 69 69 70 71
21 22 24 24 24 23 20 20 19 17 15 15 33 21 38 49 55 56 57 59 59 60 61 61 62 62 62 63 65 66 67 67 69 69 69 68 68 67 68 68 69 69 70 70
20 20 20 20 20 21 21 21 19 18 16 16 21 20 21 45 53 54 55 57 59 60 60 61 61 62 62 62 63 66 67 68 68 69 68 68 67 67 67 68 68 69 70 70
21 21 21 19 20 21 21 19 17 20 19 15 17 18 19 36 47 53 54 55 56 57 59 59 61 62 62 62 62 65 67 67 68 68 68 68 67 67 67 67 68 68 70 70
21 22 20 19 17 19 20 18 15 13 14 15 17 18 18 26 40 44 51 53 55 56 57 57 58 60 61 61 62 65 67 67 68 68 68 68 67 67 67 67 67 68 68 70
18 18 21 19 17 17 18 17 15 10 10 13 18 16 18 21 33 41 42 46 50 53 56 57 57 58 60 60 61 64 66 67 68 68 68 68 68 68 67 67 67 67 68 69
19 20 21 19 18 18 17 16 16 12 15 11 15 18 20 24 24 35 40 41 43 48 51 54 56 57 58 59 61 64 65 67 67 68 68 68 68 68 68 68 68 68 69 69
17 19 18 21 18 18 15 16 15 14 11 9 11 11 14 21 22 26 34 41 43 44 47 50 52 55 57 58 61 63 65 65 67 68 68 68 69 69 69 68 68 68 68 70
27 13 12 16 18 18 15 13 13 15 12 8 8 10 15 15 22 22 24 35 41 43 45 47 50 52 54 56 59 62 64 65 65 68 69 68 69 69 69 69 68 68 69 69
33 23 17 15 12 18 18 15 13 11 10 10 9 8 15 14 16 20 23 30 40 44 45 47 48 50 52 54 57 60 63 64 65 66 68 69 69 69 69 69 69 69 69 70
30 24 15 12 14 14 12 16 15 13 13 11 9 9 12 14 16 18 21 25 33 41 45 47 47 48 51 53 55 58 61 63 64 65 67 68 68 69 69 69 69 69 69 69
31 26 21 18 17 23 19 15 12 14 12 12 12 11 12 11 12 13 17 21 26 33 36 41 46 47 50 53 55 57 59 62 64 64 65 66 68 68 69 69 69 69 70 69
29 23 25 25 25 24 23 21 20 14 12 11 11 12 14 13 13 13 13 17 22 25 33 42 46 47 49 53 56 57 59 62 64 65 65 66 67 68 68 70 69 69 70 70
29 24 27 24 23 23 23 23 23 20 16 14 12 12 13 14 14 15 16 17 19 22 29 39 47 47 50 53 56 58 60 63 64 65 65 66 67 68 68 69 69 70 70 70
26 27 25 21 23 22 18 17 18 18 16 14 13 14 13 12 13 14 14 16 17 19 26 35 44 47 49 53 56 58 60 63 64 65 66 67 68 69 69 69 69 69 69 70
26 28 27 23 24 17 19 25 30 22 16 17 16 14 14 14 14 15 16 15 15 17 23 31 37 44 46 50 53 57 60 63 65 65 66 67 68 69 69 70 70 69 69 69
30 27 22 23 22 21 21 33 41 42 37 25 17 16 16 15 16 16 20 19 16 16 21 28 36 41 45 47 53 57 60 64 65 66 67 68 69 69 70 70 70 70 70 70
30 28 23 24 21 18 27 40 46 47 38 50 43 18 16 19 14 16 19 30 26 28 32 34 42 50 51 52 56 58 60 63 64 67 67 68 69 69 69 70 71 71 71 70
26 29 25 24 25 25 34 47 51 36 34 54 55 55 22 18 19 36 55 60 62 63 59 44 48 51 51 56 58 59 61 62 65 66 68 69 70 70 70 71 71 71 71 71
26 26 27 27 26 22 38 47 46 50 54 54 56 57 53 45 55 60 60 60 61 62 64 64 64 66 66 60 59 60 60 62 64 66 68 69 70 70 70 71 71 72 72 71
23 28 31 31 29 34 45 45 53 54 53 54 55 56 59 59 59 60 59 58 56 56 55 54 53 58 61 65 63 61 65 65 62 64 66 69 69 70 71 71 71 71 72 71
31 37 30 33 33 36 46 52 52 53 53 54 56 57 57 57 58 56 55 55 54 54 53 52 51 50 52 57 58 58 58 66 66 62 63 66 69 70 71 72 72 71 71 71
33 36 35 35 36 41 49 51 51 52 53 54 55 55 54 54 54 54 55 55 56 56 57 56 54 54 57 59 60 61 60 59 60 67 63 63 66 68 71 71 71 71 72 72
36 35 33 31 39 41 44 51 52 52 53 53 54 54 55 55 56 57 58 59 60 61 61 62 62 62 62 62 60 60 60 60 59 59 65 65 66 68 70 65 63 62 69 69

GFSCGP_sfc_30mbdewp_021.txt.gz
Dewpoint
31 25 25 24 22 19 17 17 20 21 22 30 34 38 45 54 56 56 57 57 58 59 60 62 64 64 65 67 68 69 69 69 70 69 67 67 66 67 68 69 70 72 72 72
28 24 23 24 25 22 18 16 19 21 21 21 24 28 33 50 55 56 57 57 58 59 60 62 63 64 65 66 67 69 69 70 70 69 68 67 67 67 69 69 70 71 72 72
22 22 25 26 24 20 17 14 16 20 20 20 23 23 30 48 53 56 57 58 58 58 59 61 62 63 64 65 67 69 70 71 71 70 69 69 70 71 70 69 70 71 72 72
18 23 25 25 23 20 12 15 16 19 20 19 26 21 32 36 49 53 55 57 58 58 60 60 62 63 63 65 67 69 70 70 70 71 69 69 67 66 67 68 69 70 72 72
18 24 24 24 23 23 14 18 17 19 19 19 19 22 24 41 45 51 54 56 57 58 59 60 61 62 63 64 66 67 69 70 70 72 70 70 68 67 67 68 70 71 71 72
17 23 24 24 24 25 24 22 22 22 20 17 19 19 21 27 35 44 51 55 57 58 58 60 61 62 63 64 64 66 68 69 70 71 71 71 70 69 67 68 68 68 69 69
19 20 21 22 20 22 21 18 15 13 14 15 19 20 21 26 35 33 46 52 55 58 58 59 61 62 63 64 65 65 68 69 70 70 70 71 70 70 70 69 68 67 68 68
16 16 20 20 20 18 20 16 9 8 8 11 22 18 20 24 26 36 40 47 52 56 58 59 60 62 64 64 65 65 66 68 69 70 70 71 71 70 69 69 67 67 67 68
15 15 21 20 19 19 19 18 15 11 16 12 12 16 22 25 25 31 36 39 46 51 55 57 59 61 63 64 65 65 66 68 69 69 70 70 71 70 69 69 70 68 70 68
23 19 20 21 20 19 18 19 15 13 6 6 10 16 13 23 24 28 33 36 39 43 49 54 57 59 61 62 64 65 66 67 68 69 69 70 70 70 70 70 70 69 69 70
28 19 17 21 18 18 17 17 16 14 11 3 2 4 21 24 31 28 30 33 36 40 44 48 54 58 60 61 62 64 65 67 68 69 69 69 70 70 70 70 70 70 70 71
31 20 18 19 21 19 19 17 17 13 17 12 8 5 19 21 26 32 29 32 37 43 46 47 49 53 56 59 60 62 64 65 67 68 69 69 70 70 70 70 70 71 71 71
29 25 21 19 18 17 19 18 18 16 16 15 8 7 13 19 24 24 24 27 35 41 47 49 48 50 54 56 59 60 62 63 65 67 68 69 70 70 70 70 70 71 71 71
31 26 24 19 20 23 22 18 19 16 15 15 15 11 15 20 23 24 27 31 33 37 43 49 50 52 53 55 57 59 61 62 64 65 67 68 69 70 70 71 71 71 71 71
29 24 25 25 24 23 23 21 21 18 18 16 15 15 17 19 21 22 25 31 31 33 36 42 46 53 56 56 58 59 60 62 63 66 66 68 69 70 70 71 71 71 71 71
28 23 28 22 21 21 21 22 22 21 20 19 18 17 18 22 24 25 22 23 26 32 31 36 44 51 54 56 58 59 60 61 64 66 66 67 69 70 70 71 71 71 71 71
27 26 24 18 22 22 19 20 20 20 21 20 17 18 20 19 20 24 26 29 29 29 30 32 39 47 54 55 58 59 61 62 64 65 66 67 68 69 70 71 71 71 71 71
27 28 23 17 21 16 19 23 28 26 23 20 19 19 20 21 25 28 28 27 29 30 31 35 35 43 54 54 54 58 60 63 65 66 67 68 68 69 70 70 70 71 71 71
29 26 16 12 15 17 19 22 36 39 26 38 42 29 22 21 23 28 29 30 31 31 34 37 36 38 51 54 57 60 61 64 65 66 67 68 69 69 70 70 70 70 71 71
26 29 23 17 9 11 20 27 42 46 29 49 52 51 48 26 21 22 28 31 29 31 33 37 40 46 51 53 54 59 60 63 65 66 67 68 69 69 69 70 71 71 71 71
27 26 22 20 18 16 21 36 51 36 30 52 53 54 55 52 32 37 48 45 55 55 44 42 50 55 58 59 56 59 60 63 64 65 67 69 70 70 70 71 72 71 71 71
23 25 25 21 18 15 23 30 30 47 52 53 54 55 56 57 58 47 55 60 63 63 60 58 61 63 64 62 62 62 63 64 66 67 68 70 70 70 70 71 72 72 71 71
22 23 28 22 17 24 31 38 47 53 53 54 55 56 57 58 57 57 60 61 61 60 61 65 64 63 64 65 65 65 67 66 66 67 68 70 71 71 71 72 72 71 72 70
29 33 32 27 24 28 31 37 43 51 53 54 56 57 58 59 59 59 59 57 56 55 54 54 56 58 60 62 63 64 64 69 68 67 68 70 70 71 72 71 71 71 71 71
31 31 30 31 33 34 31 33 42 50 52 55 56 56 56 57 57 56 56 56 57 57 57 58 60 61 61 62 62 62 62 62 61 65 68 67 68 69 70 71 71 71 71 71
32 32 32 28 33 38 39 44 48 49 53 55 55 57 58 58 58 58 58 60 60 61 63 63 64 64 63 61 61 62 64 63 62 61 60 61 63 65 67 69 72 66 64 69

GFSCGP_sfc_30mbdewp_024.txt.gz
Dewpoint
26 21 18 17 21 21 21 22 23 25 29 28 30 30 32 41 48 48 54 56 56 57 58 59 61 62 63 64 66 68 68 69 70 68 67 65 63 63 63 63 66 69 70 71
24 21 17 17 15 18 20 18 20 24 26 24 27 27 31 37 47 48 52 55 56 56 57 59 60 61 61 63 66 68 68 69 70 69 67 64 63 62 63 64 67 70 71 72
19 19 18 17 19 19 18 18 19 21 24 23 24 25 27 27 36 46 49 53 55 56 56 58 59 60 61 62 65 67 69 69 70 68 67 66 65 65 64 65 67 69 71 71
18 19 20 18 18 18 15 16 17 17 20 22 26 23 27 28 33 39 45 50 53 55 57 57 58 59 60 62 65 67 69 70 70 70 67 67 64 64 64 66 65 67 71 71
18 19 19 18 19 18 14 9 12 14 15 19 22 23 24 28 29 32 40 45 51 53 56 57 58 58 59 61 64 66 69 71 71 71 69 68 67 65 65 65 66 70 70 71
17 17 17 19 20 20 17 12 10 13 13 15 20 23 23 25 29 31 39 45 50 53 55 57 58 58 58 60 63 65 69 72 72 71 71 71 70 68 65 66 65 66 68 69
17 16 19 19 19 20 18 16 12 8 8 11 18 20 23 25 26 30 31 36 49 52 54 55 58 59 58 60 62 65 68 71 71 71 71 71 71 70 69 68 68 66 65 65
15 14 16 19 19 18 18 15 7 6 4 6 15 17 20 24 27 28 30 30 43 51 54 54 57 59 60 60 63 64 67 70 70 70 72 73 73 70 69 70 67 67 65 65
15 15 15 18 19 18 19 16 11 6 11 9 7 13 18 23 24 26 27 29 33 48 52 54 55 58 60 62 64 66 67 70 70 69 72 73 73 72 68 70 71 68 69 66
20 16 16 16 17 17 17 18 10 8 7 7 4 9 13 18 23 25 26 28 31 41 50 52 55 56 59 61 63 65 67 69 70 70 71 71 71 73 72 72 71 70 69 70
24 20 17 17 16 15 15 15 14 10 7 5 5 3 13 16 22 23 26 28 30 37 43 48 51 54 56 59 62 64 66 67 68 69 70 71 70 70 72 71 72 73 71 71
26 22 20 17 17 16 16 15 15 11 12 10 8 4 11 15 17 24 24 27 29 32 36 41 44 50 54 57 59 61 64 65 67 68 71 71 71 71 70 72 72 73 72 72
29 22 19 19 19 19 16 16 16 14 12 14 10 6 15 21 24 27 28 28 31 35 41 44 43 45 50 54 58 59 61 63 64 67 68 69 70 71 71 72 72 73 73 73
32 26 21 18 19 20 18 18 17 16 14 11 14 11 14 15 20 22 22 25 27 34 37 39 42 43 47 52 58 61 59 60 62 63 66 68 70 71 71 72 73 73 73 73
27 25 26 26 25 23 20 18 18 17 17 15 13 15 16 17 19 22 23 24 23 28 33 37 44 47 51 52 57 62 61 60 60 64 64 68 70 72 72 72 73 73 73 73
25 26 26 25 24 23 21 22 20 19 19 19 18 18 19 20 23 23 23 24 24 24 24 24 31 45 48 52 56 57 61 60 62 64 65 67 70 72 72 73 73 73 73 73
24 23 25 21 23 22 21 21 21 21 22 21 20 22 22 22 22 22 22 22 22 26 27 29 31 36 42 44 53 56 59 61 63 65 67 68 70 72 72 73 73 73 73 73
24 23 22 20 23 20 21 22 23 22 22 22 22 23 23 23 24 25 25 24 24 24 27 29 29 27 31 41 40 53 58 63 64 67 68 69 70 71 72 73 73 73 73 73
22 24 18 18 19 20 20 21 22 23 22 23 24 26 25 25 23 23 24 24 27 30 30 30 30 31 37 39 43 49 57 61 63 67 68 69 70 70 71 72 73 73 73 73
20 25 21 16 16 15 19 20 32 30 27 30 39 38 41 44 34 25 25 24 26 28 31 32 32 36 38 44 46 51 56 59 64 66 67 69 70 70 71 72 73 73 73 72
13 21 20 16 15 16 18 31 41 28 39 47 46 47 50 49 47 50 53 49 45 43 42 42 41 40 44 50 51 51 56 58 63 65 65 68 70 71 71 72 73 73 72 71
15 15 14 15 14 12 17 21 27 41 47 46 47 50 52 54 56 57 57 57 51 48 49 54 47 48 55 59 59 57 61 61 64 65 65 68 70 70 69 72 73 72 72 72
16 16 15 17 15 19 21 24 31 34 37 45 44 45 50 53 56 58 58 56 54 55 57 58 54 60 63 64 63 63 64 64 65 66 67 68 69 70 70 72 72 71 72 70
23 23 22 20 19 24 27 28 29 33 37 38 43 44 49 51 56 59 59 58 59 58 59 60 61 62 64 67 68 69 68 68 68 68 69 69 70 70 70 70 70 70 69 70
23 27 26 27 27 24 24 28 31 33 39 43 44 48 53 55 57 59 58 59 58 58 59 61 61 62 63 63 63 63 64 65 68 68 68 69 69 70 70 71 68 68 69 68
28 28 27 25 25 26 27 30 39 40 42 44 45 49 54 58 59 59 60 61 62 63 64 64 65 64 62 63 64 66 66 66 64 61 59 59 60 61 65 66 68 67 67 67

GFSCGP_sfc_30mbdewp_027.txt.gz
Dewpoint
37 34 34 28 34 30 25 23 22 25 29 28 31 33 33 37 42 43 49 52 53 53 54 55 57 58 59 61 64 66 67 69 69 68 67 65 63 63 61 61 62 64 67 70
29 30 28 28 21 25 25 24 22 23 25 28 29 30 30 33 38 42 46 51 53 54 54 54 57 58 59 60 64 68 69 71 71 69 68 65 64 61 61 62 65 66 69 70
22 19 21 16 13 14 18 19 20 21 24 24 27 28 29 30 35 42 45 50 51 53 54 55 56 57 58 60 64 68 70 71 71 70 69 68 65 64 62 62 63 67 69 70
23 19 17 15 12 12 10 13 17 19 20 21 25 24 28 28 30 39 42 47 50 52 54 56 56 57 58 60 63 68 71 71 72 72 67 67 63 61 61 62 63 65 69 69
24 17 16 16 14 13 12 12 13 16 18 21 23 25 26 28 27 29 34 42 48 50 53 55 56 56 57 58 61 66 71 72 71 72 71 67 66 61 62 62 65 66 71 70
19 17 15 17 16 14 15 13 11 11 12 15 19 22 25 26 28 29 32 35 42 46 51 54 56 56 56 57 60 64 70 72 73 73 72 71 67 64 62 64 63 64 65 69
17 17 17 16 16 16 16 13 8 5 5 10 15 18 22 25 25 28 30 32 36 42 49 53 56 56 56 57 60 63 70 72 73 73 72 72 71 69 70 69 64 63 63 63
14 15 17 16 16 16 16 13 8 5 3 3 11 15 18 24 26 26 30 31 38 42 48 52 55 57 57 58 61 63 68 72 73 73 73 73 73 70 68 68 65 64 62 63
15 16 18 17 15 17 17 13 11 5 5 3 2 9 15 19 22 25 27 30 33 39 45 51 54 56 58 58 62 64 67 71 73 73 74 74 74 72 68 69 71 68 68 64
20 17 18 17 17 17 17 15 10 8 6 5 5 9 10 18 22 24 27 28 30 33 44 49 52 55 58 58 61 64 67 71 72 72 73 73 74 74 72 72 72 69 69 70
22 20 20 18 16 16 16 16 13 10 6 6 9 7 11 17 21 23 25 27 29 30 41 48 52 54 57 59 59 62 66 69 71 72 72 72 73 73 74 73 73 73 73 73
22 22 21 17 16 17 17 15 17 12 12 6 7 8 14 13 16 23 25 27 27 29 37 46 49 51 53 57 59 61 63 65 70 71 72 72 72 73 73 74 73 74 73 73
27 24 22 21 17 17 15 14 15 15 12 12 7 10 18 17 18 22 24 26 29 31 35 40 46 48 50 53 57 59 62 63 64 69 70 72 72 72 72 73 74 74 74 74
33 28 24 21 19 17 16 14 14 14 13 11 13 10 17 19 23 26 27 28 29 32 37 39 39 39 46 51 57 60 60 61 63 65 66 69 72 72 72 72 74 74 74 74
28 28 26 24 22 19 17 16 15 14 16 13 12 15 16 18 24 24 26 28 29 33 35 37 38 41 44 51 58 60 59 61 61 65 66 68 71 72 73 73 73 74 74 74
27 26 28 25 23 24 22 19 17 15 16 15 14 14 18 20 21 23 23 24 26 27 28 31 34 39 46 48 55 58 63 61 61 64 65 67 70 72 73 74 74 75 74 75
27 25 27 25 26 25 23 22 20 18 17 17 16 18 19 21 23 24 26 26 26 25 24 26 28 28 40 46 50 53 60 63 62 64 67 67 70 72 73 74 74 74 75 75
24 27 27 25 26 23 24 24 22 21 20 20 21 23 23 25 26 27 27 27 27 27 27 26 26 28 31 34 34 49 52 63 65 66 66 68 69 71 73 74 74 75 75 75
20 23 24 23 22 23 23 23 23 22 22 23 23 24 24 25 26 27 27 27 28 28 28 28 28 28 33 33 34 38 51 58 65 66 68 68 70 71 73 74 74 75 75 75
17 20 22 22 21 21 22 23 24 26 23 25 24 24 26 28 28 33 48 49 44 35 36 35 30 32 33 36 37 38 43 53 63 66 68 70 71 72 73 74 74 75 75 75
14 18 18 19 20 21 26 30 28 25 41 45 33 35 38 40 45 52 54 54 54 53 52 48 48 47 43 44 43 48 48 51 59 63 66 70 72 73 73 74 74 75 75 73
16 15 18 18 18 18 21 22 30 39 41 43 46 45 46 48 50 51 53 55 56 55 52 47 48 52 50 48 51 56 57 59 62 65 67 70 72 71 71 74 74 75 75 74
17 20 15 17 18 24 24 24 25 30 33 37 41 42 43 43 47 49 52 58 58 55 56 55 55 53 56 62 63 60 64 63 65 67 69 70 72 72 72 73 74 73 74 71
23 22 18 19 21 21 23 25 27 29 30 33 35 36 43 43 49 51 54 58 57 57 58 58 59 60 63 68 66 67 69 67 65 67 68 69 70 71 71 70 71 70 69 69
23 22 20 19 21 23 24 26 26 27 29 32 37 43 43 43 48 54 56 60 59 59 59 61 62 64 65 66 66 66 67 70 69 69 69 69 69 70 71 71 68 68 70 68
23 22 23 22 24 24 26 27 28 27 31 37 40 40 41 44 49 56 57 60 63 64 66 66 66 64 64 65 67 67 67 67 65 68 68 67 66 67 69 68 70 69 69 68

GFSCGP_sfc_30mbdewp_030.txt.gz
Dewpoint
37 34 30 28 31 32 32 28 25 26 30 32 29 33 37 44 51 54 50 52 51 53 54 57 57 58 60 63 65 65 67 69 70 69 69 68 66 66 66 66 68 72 71 72
35 33 32 30 30 31 31 28 24 23 24 26 30 28 35 44 49 51 50 56 52 52 53 56 57 57 58 62 66 67 68 70 71 70 70 68 68 67 66 65 68 70 70 72
34 33 32 31 30 26 29 28 25 23 22 25 29 28 31 38 40 41 47 52 51 53 53 55 57 57 58 63 66 69 69 72 71 71 71 70 70 68 66 65 68 69 71 72
34 31 29 30 27 27 22 28 24 23 21 20 23 22 31 32 33 37 40 46 50 53 54 55 57 57 59 62 66 70 71 72 72 72 70 69 67 65 65 65 66 68 70 72
33 29 24 22 25 21 15 15 19 19 19 19 21 21 23 32 31 32 39 45 53 52 53 55 56 58 59 61 66 70 72 72 73 71 72 70 68 66 65 66 66 68 72 72
31 31 23 17 17 14 12 10 10 11 14 17 19 20 23 26 31 30 36 39 47 49 53 56 56 58 58 61 65 68 72 72 73 73 71 72 69 67 65 65 65 69 71 72
26 29 28 19 15 15 12 10 9 9 9 12 17 19 23 25 32 31 31 35 41 48 51 56 57 58 58 60 64 66 72 72 72 73 71 72 71 69 70 68 66 67 67 70
20 19 24 17 15 15 12 10 11 10 9 7 10 13 18 23 25 32 32 33 38 43 49 54 58 58 59 59 62 65 71 72 73 72 73 71 74 70 68 71 66 67 67 67
18 18 20 19 15 15 14 12 12 8 7 5 5 9 14 19 22 25 25 31 34 39 43 52 56 59 59 59 62 65 69 72 73 72 73 73 72 73 69 69 71 69 68 67
20 17 17 18 17 15 16 15 12 10 8 7 5 10 11 16 21 24 27 27 32 37 42 50 55 58 59 59 61 64 68 71 73 73 73 73 72 73 72 69 71 69 70 69
16 18 16 17 17 16 14 16 14 11 9 7 10 6 14 20 22 26 27 27 31 38 43 48 54 58 60 59 60 63 65 70 72 73 73 73 74 73 72 72 71 73 71 73
19 15 16 19 18 17 15 15 17 15 15 10 12 11 17 21 23 24 25 28 31 34 44 46 51 56 59 59 60 62 64 67 71 73 73 73 73 74 73 71 72 73 74 72
31 24 18 22 20 18 17 15 17 17 13 15 11 10 17 19 23 27 26 31 33 36 39 45 51 53 57 59 60 61 63 65 69 72 73 73 73 73 73 74 72 73 73 74
30 29 24 21 22 20 18 16 16 16 15 14 12 16 19 19 19 24 29 30 32 38 37 46 48 53 55 58 61 61 62 64 65 70 72 72 73 73 73 73 74 72 74 73
29 29 27 23 23 21 17 16 17 16 18 16 13 13 22 24 26 26 30 34 34 37 41 45 47 53 55 57 61 62 62 63 64 66 70 71 72 73 73 73 73 74 73 73
29 28 30 28 26 25 23 17 16 15 14 15 15 14 22 27 29 30 32 31 31 34 37 39 41 43 47 58 61 62 62 63 64 65 66 69 71 72 74 73 74 74 74 74
27 29 29 28 29 27 24 22 18 16 14 15 16 18 23 26 27 28 28 28 28 29 29 31 37 40 44 49 61 63 63 64 65 66 67 68 70 71 73 74 74 74 74 74
23 26 29 28 28 25 27 26 25 18 16 16 18 20 25 28 30 29 29 28 28 28 30 33 30 34 37 41 47 56 63 65 65 67 67 70 71 71 72 73 74 74 74 75
21 23 25 27 27 28 27 27 25 23 21 19 19 21 26 27 28 29 29 29 30 32 35 35 33 34 39 42 46 53 55 65 66 66 68 68 72 71 72 73 74 74 75 75
18 21 23 26 25 23 27 26 25 24 23 41 30 26 26 26 24 45 53 53 53 53 54 54 52 51 43 47 41 46 56 61 65 66 67 69 69 71 72 73 74 75 75 75
16 19 19 22 24 27 35 30 27 23 41 46 44 39 36 42 50 52 51 53 55 55 54 54 54 53 55 57 53 55 52 54 64 66 67 70 72 71 72 73 75 75 75 75
16 18 19 20 22 26 28 31 35 42 40 41 43 43 45 45 46 48 50 52 56 57 56 53 52 51 54 55 55 54 57 61 62 65 68 71 72 72 72 73 75 75 75 75
20 22 19 21 21 30 27 27 30 31 34 34 37 37 39 43 44 48 51 54 59 58 57 59 59 59 61 61 66 65 67 67 66 69 70 70 73 73 72 74 74 74 75 74
28 27 23 23 25 25 25 26 27 29 30 31 32 34 43 44 44 46 52 55 60 62 60 59 60 61 68 71 71 70 71 68 68 70 72 72 73 74 74 73 74 74 73 73
23 24 26 25 23 23 24 26 27 28 29 29 31 34 41 42 42 45 50 56 58 62 66 67 66 65 67 68 68 68 69 71 70 69 71 72 72 73 73 73 71 73 73 71
23 21 20 22 26 30 31 30 27 27 28 29 30 34 39 40 41 43 52 58 60 61 63 66 67 65 67 68 68 68 69 69 70 71 71 70 69 71 71 72 72 71 70 66

GFSCGP_sfc_30mbdewp_033.txt.gz
Dewpoint
35 31 27 27 29 30 36 37 33 33 34 35 36 34 46 55 58 55 55 58 56 56 56 57 58 58 60 64 63 65 66 67 67 69 68 67 65 67 67 66 69 69 71 71
34 32 31 30 29 29 31 33 34 32 30 33 34 32 49 53 54 55 55 56 56 55 56 57 57 58 60 63 65 64 68 68 67 69 67 69 69 68 67 65 71 71 71 72
33 34 35 34 29 27 29 30 31 31 28 25 29 32 48 50 51 52 52 54 57 54 55 57 57 57 60 64 64 66 67 69 68 69 69 69 69 68 67 66 69 72 71 72
34 35 35 34 31 29 27 30 31 30 29 24 23 28 34 44 46 48 52 56 56 55 54 57 57 57 60 64 65 66 67 71 69 71 70 68 66 67 67 65 66 70 70 72
32 35 35 33 32 31 29 29 28 29 28 25 23 25 29 40 44 49 53 56 58 59 55 56 57 57 59 64 66 66 68 71 70 70 70 70 68 68 66 65 66 68 70 72
30 37 35 34 32 31 30 29 23 27 25 20 20 21 23 31 36 44 49 55 58 52 53 56 57 58 58 64 67 68 68 71 71 71 71 70 69 67 67 66 65 69 70 70
27 28 35 31 30 28 27 23 17 13 16 15 16 17 20 27 35 35 46 53 52 51 50 57 57 57 58 64 66 69 70 71 71 70 70 72 70 68 67 66 66 68 70 70
24 22 27 32 26 21 22 18 11 9 11 11 12 12 17 23 27 33 40 49 49 54 56 56 56 57 58 61 65 70 70 70 72 72 70 69 73 70 67 70 66 68 69 71
23 22 26 28 27 22 17 14 12 11 15 12 10 10 12 14 19 21 33 38 49 53 54 55 56 57 58 60 64 68 70 70 71 72 71 70 70 73 68 66 70 66 69 68
18 17 25 26 29 23 18 15 12 10 10 10 11 10 10 11 13 21 25 32 41 52 52 55 56 57 58 59 63 66 71 70 71 71 72 71 70 71 72 68 67 71 67 69
31 18 15 22 26 26 15 16 13 13 13 12 13 13 14 13 15 22 22 28 34 44 53 56 57 58 59 59 62 65 68 71 71 71 71 72 71 70 72 71 68 69 71 70
32 29 16 17 22 23 19 15 15 12 13 14 13 13 21 23 18 22 23 27 36 41 52 57 58 58 59 58 61 64 66 70 71 72 71 71 72 72 70 72 72 67 71 70
36 29 20 16 17 19 18 15 16 17 19 16 13 14 24 27 19 25 26 27 32 42 51 55 57 58 59 58 59 62 64 68 71 72 72 72 72 72 71 70 71 73 68 72
35 30 28 21 17 19 18 18 15 18 15 15 17 17 22 25 28 29 30 34 33 44 49 53 55 58 59 59 59 61 62 65 70 71 72 72 72 72 73 72 71 70 72 71
30 26 30 30 26 25 23 18 17 16 18 17 15 20 24 27 33 36 38 37 39 41 48 51 54 57 59 59 59 60 61 63 65 70 71 72 73 73 73 73 73 73 70 72
26 26 30 31 29 26 25 19 18 16 17 19 17 17 26 33 35 33 35 35 36 44 49 51 52 56 58 60 60 60 61 62 64 67 70 71 72 72 73 73 73 73 73 71
25 24 28 29 30 30 27 27 18 18 18 18 19 20 32 34 32 31 32 31 31 31 32 41 46 54 58 60 62 62 62 63 64 65 68 70 71 72 72 73 73 72 73 73
25 22 27 30 30 27 30 31 30 19 21 18 18 29 30 36 44 43 36 31 32 36 39 41 40 37 42 58 63 62 63 64 64 64 66 67 71 72 72 73 72 73 73 73
24 22 24 28 28 30 30 31 31 25 39 44 43 33 36 47 50 53 55 56 55 54 54 55 54 55 51 45 53 64 65 66 67 65 67 68 70 71 72 72 73 73 73 73
22 21 23 25 29 28 31 33 37 35 40 43 46 45 36 47 49 51 55 57 58 58 57 55 54 53 57 56 54 60 64 64 64 67 70 71 70 71 71 72 72 73 73 73
19 21 21 22 26 36 33 35 42 35 40 41 39 44 48 49 52 53 54 57 61 61 59 55 55 53 54 58 54 53 59 64 66 67 68 70 72 72 73 72 72 73 73 74
23 22 22 22 26 32 34 31 37 38 35 37 38 41 46 47 50 55 56 59 61 64 61 61 61 61 58 56 54 57 61 64 64 66 68 69 70 71 73 73 74 74 74 74
28 31 30 29 32 33 38 35 32 34 34 33 34 35 45 45 45 49 56 57 58 63 66 67 66 66 72 72 70 66 69 70 68 68 68 69 71 72 71 73 74 74 75 74
25 28 27 28 29 29 31 32 32 32 30 31 32 36 43 43 43 43 47 58 59 60 62 65 67 68 68 69 69 69 69 70 72 67 73 72 72 73 73 74 74 75 75 74
26 26 25 24 32 31 33 39 39 34 35 32 32 33 39 42 42 42 44 58 58 58 59 63 64 67 68 69 69 69 69 69 69 71 74 73 73 73 73 73 74 74 73 74
28 29 29 29 32 36 36 38 39 38 37 37 40 36 37 40 39 38 39 55 59 59 60 61 63 65 67 67 66 66 68 68 69 71 71 72 72 73 73 73 68 60 63 62

GFSCGP_sfc_30mbdewp_036.txt.gz
Dewpoint
29 24 24 24 26 27 32 34 36 37 37 35 37 47 56 57 57 58 59 59 59 59 60 61 61 61 61 63 63 62 62 66 67 67 66 65 64 64 67 68 68 69 70 71
33 28 26 29 27 26 29 30 34 37 38 34 35 46 54 56 56 57 58 59 59 59 59 60 61 61 60 63 63 63 63 65 67 66 67 66 65 66 66 67 68 68 70 71
31 33 32 31 29 27 28 28 29 34 35 33 31 45 47 52 56 57 58 58 58 57 56 59 60 61 61 62 63 64 64 64 66 67 68 69 68 66 66 67 69 69 71 72
28 34 31 33 29 28 26 28 28 30 30 30 28 35 49 52 53 53 53 55 57 57 56 58 58 60 60 63 63 65 65 66 66 68 66 66 65 66 67 66 67 70 71 72
23 28 33 30 32 32 28 28 28 28 29 29 29 25 47 52 51 50 51 52 54 57 56 56 56 58 59 62 63 65 67 66 66 69 67 66 66 67 68 66 66 69 71 72
19 32 32 33 33 34 33 29 28 28 28 25 27 25 24 49 49 49 49 51 51 56 56 56 57 57 59 62 63 65 68 67 67 69 68 67 66 67 66 66 65 67 70 70
23 22 28 35 33 34 33 29 27 25 23 22 26 22 23 45 48 49 48 49 53 56 55 55 57 56 58 62 63 65 66 69 68 69 69 68 68 68 67 66 65 67 68 69
21 20 23 28 34 33 32 29 27 24 21 20 19 17 17 22 43 45 49 50 54 55 55 55 56 57 57 63 64 64 66 67 69 69 69 69 69 68 67 67 66 66 69 69
21 19 23 25 31 34 29 29 24 15 14 12 14 12 13 15 17 38 49 52 54 55 55 54 56 57 58 62 64 65 65 66 69 69 69 70 70 69 69 68 68 67 69 70
31 25 20 22 28 30 30 23 23 18 13 10 12 11 10 12 12 17 44 51 54 56 54 53 56 57 57 61 64 66 66 66 69 69 69 69 70 72 70 68 68 70 68 69
32 31 23 20 24 25 25 22 18 19 14 10 10 11 14 12 13 12 35 46 52 54 53 52 55 57 57 59 63 67 68 67 69 70 70 69 68 69 72 69 67 67 70 69
33 34 31 22 19 23 27 22 16 12 11 13 14 12 20 15 15 15 20 49 51 52 53 53 55 56 57 58 62 66 69 68 69 70 71 70 70 69 69 72 70 68 68 70
37 34 29 22 20 18 17 26 17 14 13 11 10 11 17 16 22 26 19 30 47 50 52 54 55 56 57 57 60 64 68 69 69 70 70 70 71 70 69 69 72 70 68 69
39 31 30 26 24 26 17 18 21 14 13 11 12 14 17 17 19 24 18 26 36 47 53 54 55 56 57 57 59 63 65 69 70 70 70 70 70 71 71 70 69 72 71 67
35 26 25 26 27 29 29 22 21 16 14 13 14 16 16 17 31 29 27 31 41 50 53 53 55 56 58 58 58 62 64 67 70 70 70 70 70 71 72 72 70 70 70 72
31 24 25 24 31 31 27 25 25 16 16 16 17 16 18 22 37 37 39 38 43 50 53 55 56 57 58 58 58 61 62 65 69 70 70 71 71 71 71 72 72 71 70 69
28 25 25 25 31 29 26 30 27 18 17 17 19 18 29 37 47 45 34 39 45 50 54 56 57 57 58 59 59 60 61 63 67 69 70 71 71 72 72 72 72 72 72 71
25 26 25 24 29 24 31 32 34 39 39 40 43 41 45 53 55 56 56 48 48 49 49 50 55 57 59 59 59 60 61 62 63 66 69 70 71 71 72 72 72 72 72 73
26 24 22 24 27 30 33 34 32 34 38 38 41 47 52 52 53 56 57 60 56 54 54 54 53 53 57 60 61 60 61 62 63 64 65 69 70 72 72 72 72 72 72 72
31 26 23 21 29 30 34 35 39 40 36 37 44 50 49 44 50 55 58 63 63 59 56 53 52 56 54 54 62 62 62 62 62 63 64 66 69 70 71 72 72 72 72 72
30 26 22 26 33 34 36 36 36 35 34 37 40 44 48 53 54 56 58 59 64 65 64 63 65 62 55 55 58 62 63 63 64 65 64 67 67 69 71 71 72 72 72 72
33 32 30 32 33 32 41 39 33 34 33 33 39 44 42 42 45 54 57 57 60 62 65 68 69 69 70 66 63 66 66 67 65 67 68 69 69 68 69 70 71 72 72 72
31 33 32 34 35 38 44 43 39 38 36 34 32 41 42 41 39 42 57 56 56 59 61 64 67 68 69 69 69 68 69 70 69 68 67 68 70 72 72 72 71 71 72 72
30 29 31 30 35 34 43 43 41 38 39 39 39 34 41 39 39 37 40 57 56 58 60 62 64 67 67 68 68 68 68 69 69 69 69 69 69 71 71 73 73 73 73 73
30 31 32 29 31 33 38 36 38 37 37 40 40 41 41 37 36 39 43 50 57 59 61 62 63 65 66 66 65 66 67 68 68 69 72 72 72 71 72 69 68 74 74 74
34 35 32 30 34 35 34 35 37 37 36 41 41 39 40 40 41 49 49 54 58 59 61 61 63 65 66 66 65 65 67 68 67 68 70 72 73 73 73 68 62 54 57 64

GFSCGP_sfc_30mbdewp_039.txt.gz
Dewpoint
26 21 18 17 26 29 31 34 37 38 40 41 46 46 57 59 59 59 60 59 59 60 61 62 62 62 62 62 60 62 63 65 67 66 66 66 65 66 68 69 69 69 70 72
26 21 21 22 24 27 26 26 31 35 36 36 36 44 56 58 58 59 59 59 59 59 60 61 61 62 61 62 61 61 62 64 67 66 66 65 65 65 66 67 68 68 70 71
28 28 26 25 23 25 25 24 27 32 34 36 37 42 46 57 58 59 60 59 60 59 60 60 60 60 61 61 62 62 62 63 66 66 67 67 66 66 66 66 68 68 69 70
29 30 29 25 27 25 24 26 28 29 30 29 33 38 52 55 56 57 59 59 59 59 59 60 60 60 60 60 63 63 62 62 65 66 66 65 63 62 63 65 67 68 69 70
25 28 28 28 26 29 27 28 28 28 28 28 29 29 46 54 55 55 57 58 59 60 59 59 59 61 61 61 63 63 63 63 64 66 65 65 63 63 66 66 66 68 70 70
21 24 27 28 31 30 31 28 28 28 27 25 27 28 27 47 52 54 56 57 58 58 58 59 60 60 61 61 62 63 64 64 64 66 65 65 64 65 66 66 65 67 69 70
27 22 26 29 29 32 32 28 25 24 24 25 28 27 28 43 50 52 54 55 56 55 58 57 58 59 60 61 62 63 64 64 64 65 66 65 65 66 66 66 66 66 68 69
28 22 25 23 30 30 31 30 28 24 24 26 26 24 25 32 48 51 53 53 52 52 56 57 57 58 60 61 62 63 65 65 65 66 66 66 66 66 66 66 67 66 67 68
30 27 30 25 24 32 32 31 31 25 18 22 26 17 18 23 37 49 50 51 50 50 53 56 57 57 58 60 62 63 64 65 66 66 67 67 67 67 67 67 67 66 67 68
32 28 30 28 23 28 33 32 30 25 23 19 18 16 20 20 24 37 48 50 50 50 52 54 56 57 57 60 62 63 64 65 66 67 67 68 68 68 68 68 67 67 67 69
35 31 30 33 22 21 25 29 31 30 22 21 11 16 16 16 18 20 39 46 48 50 52 54 56 56 57 58 62 63 63 64 66 67 67 68 68 69 68 68 68 69 67 68
34 35 31 31 30 31 24 27 23 27 24 18 17 17 16 15 17 17 24 41 49 52 53 54 55 55 57 57 61 63 63 64 65 68 67 68 69 70 70 69 68 68 69 69
35 34 27 24 22 23 19 26 24 24 23 21 23 22 16 19 18 19 19 35 45 52 54 54 55 55 57 57 60 63 64 65 64 67 67 68 67 68 69 71 71 68 67 69
39 33 28 25 27 28 26 26 26 19 17 19 17 20 19 14 16 20 24 28 36 49 54 55 54 53 56 57 58 62 65 66 65 67 68 68 69 69 68 68 70 71 69 68
36 29 28 28 28 27 25 25 26 21 18 15 14 13 13 14 18 31 38 34 28 43 52 54 53 53 56 57 58 62 65 67 67 67 69 69 70 70 70 69 69 70 71 69
36 28 26 24 25 25 24 28 31 30 19 16 15 15 17 30 46 49 43 33 35 46 50 52 53 54 55 57 57 60 64 68 68 68 68 69 69 70 70 70 69 69 70 71
32 30 25 23 28 29 29 32 34 30 37 31 16 27 35 42 49 56 57 43 34 45 49 51 53 54 55 57 58 60 63 66 68 69 69 69 69 69 70 71 71 70 69 69
28 31 25 23 26 27 32 37 36 38 38 40 44 46 50 54 58 59 60 60 50 45 48 52 54 55 56 57 58 59 63 64 68 68 69 70 70 70 70 70 71 71 71 70
25 31 24 23 25 31 34 36 37 35 37 38 42 49 54 56 55 58 59 63 59 54 54 54 55 56 57 58 59 60 62 63 66 67 69 70 70 70 71 71 71 72 72 72
32 33 31 22 32 30 35 40 38 37 36 34 42 42 54 54 53 56 57 61 65 66 61 55 57 59 60 60 59 60 61 62 63 66 68 69 70 71 71 71 72 72 72 72
32 32 29 25 35 35 39 41 35 31 32 36 38 40 42 50 53 56 56 57 61 65 68 67 60 57 57 60 60 59 60 61 62 63 64 67 70 70 71 71 72 72 72 72
30 29 31 35 33 32 40 40 34 37 38 39 39 40 39 39 43 53 56 56 59 62 65 68 68 67 68 65 63 63 65 69 64 63 64 65 66 70 70 71 72 72 72 72
30 32 31 34 34 38 45 44 40 37 36 37 40 39 40 39 43 47 53 57 59 61 63 66 67 67 68 68 68 67 68 70 67 66 66 65 67 67 68 70 70 71 71 71
33 35 33 32 32 36 40 41 40 39 38 37 39 41 41 43 44 50 53 57 58 60 62 64 66 65 65 65 66 67 67 68 69 69 69 68 69 70 69 69 70 70 70 71
34 35 34 32 32 36 37 37 39 41 40 40 38 41 42 45 50 53 53 55 56 56 59 61 64 65 65 65 65 66 67 67 67 68 70 72 70 69 70 64 66 71 72 71
37 34 32 31 35 36 36 38 40 41 42 41 40 41 42 43 46 49 49 52 53 54 55 59 61 63 64 64 64 66 67 66 66 66 66 69 72 71 67 62 61 54 58 64

GFSCGP_sfc_30mbdewp_042.txt.gz
Dewpoint
27 23 19 19 29 31 32 34 36 38 39 45 45 47 58 60 59 59 59 58 57 58 60 62 63 63 63 63 63 64 65 66 67 66 66 66 65 66 68 68 69 69 70 71
25 22 22 19 20 28 29 27 30 35 38 40 41 45 56 59 59 59 59 59 59 59 60 61 63 62 62 62 62 64 64 65 67 66 66 66 66 66 67 68 69 69 70 71
25 23 23 20 20 18 23 28 26 31 33 36 37 38 49 58 59 59 59 60 60 60 59 61 62 62 62 62 61 62 63 64 66 66 67 66 66 66 66 66 68 68 69 70
30 28 26 21 20 22 18 24 28 26 28 30 37 34 46 55 57 58 59 59 59 60 60 60 61 62 62 62 62 62 63 64 66 67 66 66 64 64 64 65 67 68 69 70
28 29 28 26 20 23 19 22 26 27 28 28 29 29 35 54 56 57 58 59 59 60 60 60 60 61 62 62 62 62 62 63 65 66 66 65 65 63 64 65 65 67 68 69
24 23 24 29 28 24 27 27 26 28 27 25 27 28 30 50 53 56 57 59 59 59 60 60 60 61 61 62 62 63 63 63 64 66 66 65 65 64 64 64 64 66 68 69
31 27 22 22 25 27 28 25 25 24 24 25 30 28 30 33 53 54 55 57 59 60 59 59 60 60 61 61 61 63 63 63 63 65 66 65 65 65 64 64 65 65 67 68
29 20 25 24 23 27 28 28 24 22 22 23 27 27 28 31 44 54 56 56 57 58 59 60 60 60 60 61 61 62 63 63 64 64 65 65 65 65 65 66 66 65 66 68
28 29 31 30 28 26 29 28 28 26 23 22 22 25 26 29 33 47 52 54 56 57 58 59 60 60 60 61 62 62 63 63 64 64 65 65 65 65 65 66 67 67 67 68
32 28 30 31 32 28 28 31 28 28 24 22 22 21 27 25 29 36 44 50 53 55 56 56 58 58 60 61 62 63 63 63 64 64 65 65 65 66 66 67 66 67 67 68
34 32 28 31 30 24 25 30 30 28 27 24 19 19 26 26 27 29 35 49 50 53 53 53 55 58 59 60 61 62 63 63 64 65 65 65 66 66 67 67 67 67 67 68
34 33 28 29 32 34 33 27 31 29 26 25 22 24 20 22 25 27 28 44 50 52 52 51 52 57 58 59 60 62 63 64 64 65 66 66 67 67 67 68 68 68 67 68
34 30 27 27 26 27 27 26 27 27 31 27 27 26 24 20 19 19 22 27 44 51 52 51 52 54 57 58 60 62 63 63 64 66 66 66 67 68 68 68 69 68 68 68
36 32 29 24 25 28 25 26 25 25 25 29 28 28 28 25 19 20 19 20 31 47 50 51 52 55 56 58 60 62 62 63 64 66 66 66 67 68 68 69 69 68 69 69
32 28 31 30 31 30 28 26 26 24 24 25 24 25 26 27 26 22 22 24 23 31 49 53 54 55 56 58 59 62 63 63 64 65 66 66 67 68 69 69 71 70 68 68
35 27 32 28 28 27 25 25 25 26 26 24 18 20 36 24 34 50 55 57 49 38 35 50 54 55 56 57 58 62 64 64 64 64 66 67 68 68 68 68 69 71 71 70
32 30 28 23 25 25 24 27 34 38 40 36 22 32 45 45 56 57 58 60 60 53 36 36 54 55 55 57 58 61 64 65 66 65 66 68 69 69 69 69 69 69 69 71
31 30 30 24 24 25 35 38 38 36 35 39 42 44 52 51 58 59 58 59 60 61 48 42 53 55 54 57 58 60 64 67 67 67 67 68 69 69 70 70 70 69 69 69
31 31 27 23 23 33 35 37 38 38 36 36 38 42 47 55 56 57 57 58 60 65 57 52 53 55 55 56 58 61 64 67 68 68 68 69 69 69 69 70 70 70 70 70
33 34 29 28 26 32 36 39 41 40 35 37 39 39 43 54 51 55 56 59 61 65 64 54 54 56 57 58 59 62 63 66 67 68 68 69 70 70 69 70 70 71 71 71
29 29 25 27 29 36 39 41 38 33 34 38 40 39 41 46 48 50 57 60 62 65 67 62 59 58 58 59 60 61 63 63 65 67 69 70 70 70 71 71 71 71 71 71
30 28 30 32 34 32 42 38 34 36 36 36 38 41 40 47 52 53 56 58 60 63 65 67 66 64 63 61 61 62 62 63 64 66 68 69 70 70 71 71 71 72 71 71
28 32 29 31 32 37 43 39 40 39 38 39 38 41 45 49 52 52 54 55 57 59 62 65 65 65 67 67 65 64 68 69 64 64 65 67 69 70 71 71 71 71 72 71
35 37 32 34 35 37 41 40 38 40 41 40 40 40 43 48 50 50 49 52 53 55 59 62 64 64 64 66 67 67 68 69 67 66 65 65 66 68 70 71 71 71 71 71
35 36 33 34 34 37 39 38 39 40 41 42 42 41 42 44 45 46 45 47 48 51 56 61 62 63 63 65 65 66 66 67 68 70 71 68 68 68 67 63 65 69 70 70
37 35 33 32 38 38 38 40 41 41 40 42 43 41 42 44 45 46 44 46 47 48 52 59 62 63 63 64 66 66 66 65 65 66 67 71 70 69 66 63 61 53 57 63

GFSCGP_sfc_30mbdewp_045.txt.gz
Dewpoint
28 21 22 21 25 22 31 33 27 38 41 44 44 45 54 59 58 56 55 55 54 55 57 60 61 63 65 66 66 67 66 67 68 67 65 64 62 64 66 68 70 71 70 71
23 19 19 20 20 25 23 29 31 35 38 42 43 44 47 57 58 58 56 55 54 55 57 59 61 62 64 65 66 67 66 67 68 66 66 64 65 66 67 70 70 71 70 72
25 23 22 21 18 18 21 20 28 29 30 36 38 39 41 55 58 59 59 57 56 55 56 59 61 62 63 64 66 66 66 67 68 67 67 68 68 68 67 68 69 70 71 72
31 31 24 21 19 18 14 18 23 29 30 31 38 37 40 44 55 57 58 59 58 57 57 58 60 62 62 63 65 66 67 67 67 68 66 66 63 63 65 66 68 69 71 71
29 30 30 28 24 21 17 18 17 17 27 30 31 33 38 46 49 54 57 58 59 59 58 58 59 61 62 63 64 65 67 67 68 69 67 67 65 64 66 66 68 70 71 71
26 28 27 30 29 23 22 20 21 19 15 17 29 31 33 39 47 51 55 58 59 59 60 60 60 61 62 62 64 64 66 67 68 68 68 68 67 66 66 66 65 66 68 69
22 19 24 24 25 27 26 24 21 18 18 10 19 29 31 36 44 47 52 56 58 59 60 60 60 60 62 62 63 65 65 66 67 67 68 68 68 68 67 67 65 65 65 67
20 -4 27 31 24 24 26 24 19 16 15 8 16 26 30 34 35 46 50 53 58 59 59 60 60 61 62 63 64 64 65 66 66 67 68 68 69 66 66 67 65 65 64 65
23 22 29 26 30 29 24 25 24 19 25 20 12 19 29 33 34 36 45 52 56 58 59 59 60 61 62 63 64 65 65 66 66 66 68 68 69 68 66 67 68 66 67 65
29 6 24 29 28 28 28 25 26 24 18 16 17 16 16 27 31 35 37 46 53 56 58 59 60 60 61 62 63 64 65 66 66 66 67 67 68 69 68 68 68 67 67 68
29 22 8 19 23 24 25 25 26 26 25 17 14 17 23 23 33 34 36 40 48 54 57 58 60 61 61 61 62 63 64 65 66 66 66 67 67 68 68 68 68 69 68 69
31 31 22 12 14 22 25 30 26 25 27 27 24 18 26 27 29 32 33 36 40 50 54 57 59 60 60 62 62 63 63 64 65 66 66 67 67 67 67 68 68 69 69 69
33 28 14 -0 7 20 23 25 29 26 27 28 25 23 27 30 30 32 34 35 44 49 52 55 56 58 60 61 62 62 64 63 64 65 65 66 66 67 68 68 68 69 69 69
33 30 20 8 8 25 27 27 28 27 24 28 28 26 26 30 28 28 30 31 33 45 52 54 55 57 59 61 62 63 63 63 63 64 65 66 67 67 68 69 69 69 70 69
32 25 24 25 23 23 24 25 26 26 26 27 30 31 31 31 32 33 33 31 34 34 44 53 54 56 59 61 62 63 63 64 64 66 66 66 68 68 69 69 70 70 70 70
33 24 25 23 18 22 26 26 26 26 26 25 27 29 38 39 38 34 38 49 50 50 45 47 54 56 58 60 62 63 64 65 65 66 66 67 68 69 69 70 70 70 70 70
31 29 25 16 17 25 24 24 25 26 28 26 24 28 43 45 52 55 56 57 57 58 59 58 48 56 58 60 62 63 64 65 66 67 67 68 69 69 70 70 71 71 70 70
31 31 27 20 21 22 25 35 26 35 38 39 38 43 47 51 57 58 58 58 58 59 60 61 59 50 58 58 59 63 64 66 66 67 67 69 69 69 70 70 70 71 71 71
30 32 26 24 26 30 37 37 34 37 37 39 40 45 50 55 59 58 57 57 60 61 62 64 63 47 57 59 61 63 65 66 66 67 67 69 70 70 70 70 70 70 70 70
30 32 29 27 24 26 38 39 41 40 37 38 41 42 50 54 52 54 55 57 61 64 65 63 58 48 58 60 61 64 65 66 66 67 68 69 70 70 70 71 71 71 71 70
29 29 25 24 24 28 39 40 39 37 36 38 40 42 52 51 52 54 56 57 60 62 65 62 56 58 60 61 62 64 65 66 67 67 68 70 71 71 71 72 72 71 71 70
27 26 26 27 25 24 39 39 36 38 39 40 42 42 50 48 48 48 50 52 56 61 64 65 62 61 62 62 64 64 66 68 69 70 70 71 71 70 70 72 72 71 72 71
29 30 29 30 31 36 40 39 40 41 40 41 40 41 45 44 43 44 44 45 51 58 63 65 65 66 65 64 64 65 67 69 70 70 71 71 71 71 71 72 71 71 72 70
34 37 32 32 36 38 40 40 40 40 40 42 43 41 43 45 45 43 44 45 45 51 61 64 65 66 67 68 69 70 70 68 68 69 70 71 71 71 71 71 71 70 70 70
34 36 32 34 37 38 40 40 42 43 42 42 43 43 42 43 45 45 45 45 46 47 50 62 64 65 66 67 67 67 69 71 68 67 68 69 69 70 71 71 68 70 71 70
37 35 31 31 38 39 40 43 44 42 42 42 42 42 44 43 44 44 44 46 47 48 48 50 59 64 64 65 65 65 66 67 69 71 69 67 66 68 69 66 62 54 57 62

GFSCGP_sfc_30mbdewp_048.txt.gz
Dewpoint
23 23 20 18 19 16 21 21 20 30 37 45 45 44 48 54 54 55 56 57 56 56 56 57 58 58 59 61 63 63 64 65 65 64 61 62 63 64 65 65 68 70 69 70
22 18 18 21 18 20 17 25 28 29 34 41 43 43 44 53 54 55 55 56 56 55 56 56 57 58 59 61 63 64 64 66 67 63 62 62 62 62 64 66 69 70 70 71
20 19 17 17 19 18 18 15 18 27 33 34 41 41 42 46 54 55 55 55 55 54 55 56 57 58 59 61 63 64 65 66 67 63 62 65 65 65 66 67 67 69 70 70
21 20 22 18 18 16 13 14 15 17 26 29 36 35 40 42 50 53 55 55 54 55 55 56 58 59 59 61 63 64 66 67 67 66 62 65 63 61 61 64 64 67 70 70
26 26 25 24 22 18 17 15 13 13 14 26 32 35 36 40 42 50 52 54 54 55 55 55 58 59 59 60 63 65 66 68 67 67 65 63 63 58 60 62 65 67 70 70
25 29 27 26 26 25 23 20 17 16 12 7 23 31 33 36 40 43 49 52 54 56 55 56 57 59 60 60 62 64 67 68 68 67 67 66 63 60 60 63 63 64 65 68
17 21 26 27 26 27 24 21 17 15 11 5 11 20 31 34 37 42 44 49 53 55 57 57 57 58 60 61 61 62 66 69 68 67 67 66 66 66 64 65 64 62 61 62
5 4 16 27 25 24 25 22 20 16 9 6 7 10 19 31 36 38 45 46 51 54 56 58 58 58 60 61 62 62 64 68 68 67 69 70 69 65 65 66 64 63 61 61
9 5 24 24 28 28 24 23 22 20 19 14 7 8 9 22 31 35 38 43 46 52 55 57 59 59 59 61 63 64 65 67 67 66 69 70 70 68 65 67 66 64 65 62
19 4 9 18 20 24 28 24 22 21 19 17 17 15 8 17 29 32 34 37 44 50 55 56 58 60 60 61 62 63 64 66 67 66 67 67 67 69 68 67 67 67 65 67
18 13 8 9 0 7 20 23 25 23 21 19 18 16 18 16 19 31 33 35 39 48 53 56 57 59 60 60 61 63 64 65 66 66 66 67 66 67 68 67 68 68 68 67
22 18 17 8 2 7 13 24 23 21 22 22 22 20 19 22 22 22 29 34 37 43 50 54 55 58 59 60 60 61 63 64 65 66 68 67 67 67 66 68 68 69 69 69
24 18 13 0 0 6 8 11 22 26 26 24 23 23 26 26 28 26 24 27 36 40 45 51 53 55 58 59 60 60 61 62 63 65 65 65 66 66 66 68 68 69 69 70
24 15 15 4 1 8 17 19 19 23 23 23 24 25 28 27 26 29 31 33 30 33 42 46 51 53 57 59 62 62 61 61 61 63 64 65 66 66 66 68 69 68 70 70
27 26 18 16 15 14 11 7 16 24 27 26 24 24 26 30 29 29 31 32 34 35 40 47 49 53 58 61 63 64 62 62 61 64 63 65 68 68 68 69 70 70 70 70
27 25 20 16 16 15 11 7 6 14 21 25 27 27 30 30 33 31 30 32 36 42 41 38 47 51 55 59 63 65 65 63 64 65 65 66 69 70 70 70 71 71 71 71
28 27 22 15 11 8 6 8 12 10 18 24 25 27 30 34 37 37 38 39 45 49 51 53 50 48 52 57 61 63 66 65 65 67 67 68 70 71 71 71 72 71 71 71
27 28 26 17 11 11 12 12 13 13 14 23 27 29 30 38 43 54 56 56 56 57 57 57 57 56 51 54 56 61 63 66 67 68 69 69 71 71 72 72 72 73 71 71
27 29 25 21 15 15 17 20 25 14 15 25 29 30 28 36 44 55 58 59 60 61 62 62 62 60 59 53 55 60 62 65 67 68 69 70 71 71 71 71 72 72 71 71
28 30 29 21 18 15 22 33 34 38 24 40 41 39 34 39 41 45 58 58 59 61 63 64 64 64 62 62 54 57 62 64 67 68 69 71 71 71 71 72 72 72 72 71
26 31 27 23 21 21 24 33 36 32 34 40 43 47 52 44 51 53 53 55 57 61 63 65 64 64 62 60 54 60 63 64 67 67 68 70 71 72 72 73 73 73 71 70
27 26 26 27 24 21 36 36 34 42 41 42 43 46 47 45 45 46 48 49 53 59 65 64 59 57 55 54 59 64 65 66 68 68 68 70 72 70 70 73 73 72 72 72
27 31 30 30 30 37 37 37 44 43 44 43 42 44 42 40 42 44 45 46 47 51 61 66 63 60 60 61 61 64 67 69 68 68 70 70 71 71 71 72 72 72 72 70
33 34 31 31 35 34 39 41 45 46 44 44 43 43 44 44 43 44 46 48 48 50 52 63 67 68 66 64 64 65 67 70 69 69 70 70 71 71 70 71 71 70 69 69
33 35 32 32 34 37 40 41 45 44 45 44 43 44 44 44 44 44 48 49 50 51 52 54 62 66 66 68 68 70 69 69 69 70 70 70 70 71 71 70 67 69 69 68
37 34 31 31 36 37 37 43 45 44 43 44 43 44 46 47 46 46 48 50 50 51 52 53 55 61 63 64 66 67 69 71 68 68 68 68 67 69 70 70 68 59 59 59

GFSCGP_sfc_30mbdewp_051.txt.gz
Dewpoint
30 28 23 25 26 20 13 9 16 22 33 42 44 48 59 50 51 54 56 56 55 56 56 57 57 56 56 57 59 61 63 66 65 64 64 63 62 63 64 66 67 69 67 68
22 19 22 21 19 18 15 14 18 20 30 42 44 45 47 49 50 53 54 56 55 55 55 56 57 56 56 57 59 63 65 68 66 64 64 63 63 62 62 62 67 68 68 69
24 19 19 19 19 18 17 15 17 25 29 35 42 43 43 50 49 52 53 54 55 54 55 56 57 56 56 57 59 63 66 68 68 64 64 63 64 62 62 65 66 68 69 69
20 20 19 18 16 18 17 17 14 17 28 30 36 36 43 46 48 50 52 52 54 54 55 56 56 56 56 57 60 64 66 68 69 68 61 64 62 60 59 62 62 66 68 69
22 18 16 18 17 18 18 17 13 11 14 22 29 33 38 43 49 47 50 52 52 54 54 55 56 57 57 57 60 62 67 69 68 69 65 63 64 60 60 59 67 65 70 69
23 25 21 18 19 20 20 18 17 13 10 9 21 30 32 39 41 46 47 51 52 53 53 54 56 57 57 58 59 62 68 70 70 70 68 66 64 62 57 59 63 63 65 67
11 16 25 25 22 22 22 20 17 16 11 7 9 23 30 33 42 42 44 48 51 52 53 54 55 56 59 59 60 63 67 70 70 69 68 67 67 66 65 65 61 61 60 61
2 4 10 19 21 21 22 20 16 16 14 9 6 10 21 31 35 46 51 49 49 52 53 54 55 57 59 60 62 63 67 70 71 69 69 68 68 63 60 63 61 61 58 59
1 3 17 21 20 21 22 22 20 15 16 15 10 6 7 19 27 34 39 44 49 50 52 54 55 57 59 60 62 63 66 70 70 67 69 70 69 66 60 61 67 65 64 60
13 13 10 13 21 21 24 26 21 19 15 16 17 13 7 8 17 25 35 39 44 49 51 53 55 56 58 59 61 63 65 69 70 68 69 69 70 71 67 68 69 67 66 66
11 14 5 6 12 8 7 15 22 23 18 14 17 17 17 12 12 17 26 34 40 43 48 51 54 57 58 59 60 62 64 66 68 69 69 67 68 69 70 69 70 70 68 69
11 11 7 5 4 -3 -2 7 8 17 22 20 16 17 20 19 16 17 24 31 34 39 45 51 53 56 58 59 59 61 62 63 66 67 69 69 68 68 68 69 70 71 71 70
18 16 9 11 10 7 2 4 15 17 15 20 18 17 21 22 23 25 22 23 32 36 40 49 52 54 57 59 60 60 61 62 63 67 67 68 67 68 67 69 70 71 71 72
22 18 15 9 11 10 7 1 4 13 16 17 20 22 20 26 27 28 28 24 28 35 39 44 50 51 55 58 61 62 61 61 61 63 64 67 68 68 68 68 70 71 72 72
22 17 18 16 14 13 10 11 11 11 14 14 18 22 27 28 31 30 29 31 31 29 37 41 47 52 58 59 62 64 61 62 61 63 63 66 68 68 69 68 70 71 72 73
23 22 23 22 16 13 9 10 10 7 5 16 22 24 27 29 31 32 33 31 33 35 37 39 44 48 54 59 62 64 64 63 62 64 64 65 68 69 69 69 71 72 72 73
26 23 23 21 18 13 11 11 9 8 6 4 7 18 23 26 28 31 33 33 32 34 38 41 39 46 49 54 61 62 65 64 64 65 65 66 69 70 70 70 71 72 72 73
29 29 30 26 19 14 12 8 4 3 4 6 7 7 14 21 26 30 39 50 52 51 48 51 51 49 47 50 54 60 63 67 66 66 68 67 70 71 71 72 72 73 73 73
26 28 31 25 20 17 12 9 7 28 24 29 30 25 11 16 22 28 34 55 56 57 58 58 58 56 55 51 50 58 61 67 67 68 68 69 70 71 72 72 72 73 73 73
24 26 31 24 19 15 14 14 32 31 25 24 28 29 20 14 19 25 52 58 58 59 59 60 61 61 60 60 56 53 59 63 67 68 69 70 71 72 72 73 73 74 74 73
28 32 30 27 22 22 20 27 32 24 22 34 42 31 18 18 24 33 54 56 58 60 62 63 64 63 63 63 60 57 58 62 66 68 70 71 72 73 73 74 74 74 74 71
27 27 27 27 25 23 36 33 30 31 39 37 44 27 31 39 50 51 52 53 56 57 59 63 66 64 64 64 64 63 61 63 67 69 70 71 73 72 72 74 74 74 74 73
30 33 31 32 28 38 39 38 38 39 39 40 46 46 47 48 49 49 50 52 54 54 58 61 67 64 58 61 65 65 63 67 68 70 70 71 73 73 72 74 74 73 74 70
35 37 31 31 35 37 38 38 41 41 42 46 47 45 44 45 47 48 49 50 52 53 55 57 64 69 69 66 62 63 70 69 70 71 71 72 72 73 72 72 72 70 69 70
34 35 32 32 35 35 39 40 40 43 46 47 46 47 46 46 47 49 50 50 51 53 54 55 59 63 65 68 69 68 68 70 70 71 71 71 71 71 72 71 69 69 67 67
37 34 30 30 35 37 37 40 43 44 44 46 48 46 47 48 49 50 51 51 52 52 54 54 56 59 60 61 62 64 67 71 70 70 70 70 68 70 71 68 67 63 65 65

GFSCGP_sfc_30mbdewp_054.txt.gz
Dewpoint
36 33 30 28 25 25 19 15 9 17 24 41 44 51 51 52 53 55 55 55 55 56 56 56 55 55 58 58 62 65 65 69 68 67 67 66 65 66 66 69 70 71 70 71
27 29 30 22 25 24 24 20 13 11 19 33 50 52 53 48 56 57 54 54 54 55 56 56 55 55 57 59 62 65 66 69 68 68 68 67 65 67 68 66 71 70 69 70
24 21 23 23 20 21 19 18 14 14 19 27 31 49 51 50 52 59 52 53 54 54 55 57 56 55 57 59 62 65 67 69 68 67 68 69 68 68 65 70 70 70 70 70
27 26 20 17 19 19 17 17 16 14 16 22 30 31 50 54 55 57 55 53 53 54 55 57 56 56 56 60 62 65 68 70 68 69 65 65 64 64 62 69 68 70 71 70
21 22 23 19 17 17 16 18 17 16 13 18 27 29 32 52 54 54 59 53 53 54 55 56 57 57 56 60 62 64 67 70 68 69 67 65 66 64 66 63 70 71 71 72
16 21 17 17 17 18 17 16 18 17 12 9 14 22 26 38 49 50 55 57 55 53 54 56 58 58 58 60 61 65 67 69 70 69 69 67 65 66 64 63 68 70 71 71
14 17 23 24 17 16 17 16 15 15 13 9 8 9 18 29 47 53 52 54 56 54 54 56 57 58 58 58 61 64 67 68 70 70 68 70 67 66 68 66 67 66 68 68
6 -2 8 22 24 19 18 18 16 13 13 13 13 8 10 16 34 50 52 56 58 53 53 55 57 58 59 59 61 63 68 68 69 70 68 69 69 66 67 67 63 65 64 66
5 5 9 6 19 21 21 19 19 16 15 14 13 12 13 12 21 40 49 52 57 56 55 54 57 58 59 60 61 64 67 69 70 69 70 68 70 68 64 65 66 67 65 66
15 12 11 13 17 17 17 20 20 18 16 16 14 15 13 11 17 31 46 46 52 57 61 57 56 57 60 60 62 63 67 69 70 70 70 69 68 69 68 64 65 65 68 66
15 11 6 10 12 12 14 15 20 24 22 17 16 16 20 23 16 22 45 49 45 53 58 56 63 57 59 61 62 63 65 69 70 71 70 69 69 68 67 68 64 70 68 71
17 10 9 9 8 10 11 9 3 7 22 24 20 16 19 25 18 15 16 26 50 54 60 62 55 59 58 60 61 63 64 67 70 71 70 69 69 68 67 65 70 69 72 71
20 15 12 11 9 6 4 -1 -1 1 3 12 20 20 20 21 26 19 18 19 32 56 54 55 62 63 58 59 61 62 63 64 68 70 69 69 69 69 69 68 67 71 70 72
22 19 18 13 10 15 11 9 4 0 8 10 8 19 24 29 35 38 36 36 29 34 54 58 61 59 58 59 61 62 63 63 64 68 69 69 69 69 68 70 68 70 72 71
21 18 18 18 17 16 15 13 10 4 3 10 13 13 20 31 33 38 39 38 39 35 33 39 45 60 64 61 62 62 63 63 63 65 67 69 70 69 69 69 70 69 70 72
22 19 21 20 20 18 17 13 11 10 4 1 8 13 17 23 29 33 35 36 36 38 40 40 42 56 59 62 63 63 63 63 63 64 66 68 69 70 70 69 70 71 70 72
27 25 23 21 19 19 17 17 12 10 12 11 9 12 15 16 21 26 30 31 32 37 43 41 43 51 58 60 64 64 64 64 64 65 66 67 69 70 70 70 69 71 71 71
26 28 30 27 24 23 24 22 19 12 12 11 11 10 12 12 12 15 20 25 30 36 46 57 45 50 58 60 60 64 65 65 66 65 67 67 69 69 71 70 71 70 71 71
22 25 30 26 24 23 19 19 17 21 15 11 21 21 20 18 19 23 23 21 26 36 43 57 57 58 60 61 61 63 65 66 66 66 67 68 68 69 70 70 70 70 71 72
27 24 27 27 23 17 18 16 26 26 19 19 18 18 19 21 21 26 28 23 34 60 58 58 59 59 59 61 61 61 62 67 66 66 67 69 68 70 70 70 71 71 72 72
30 30 30 30 26 22 21 19 28 21 20 31 35 35 35 35 38 42 44 33 52 59 59 61 63 63 64 65 64 63 62 62 68 67 67 69 70 69 71 72 72 72 73 72
30 31 30 31 28 24 37 33 29 32 36 36 36 36 36 37 39 45 47 46 54 57 59 60 62 64 67 68 66 65 65 65 66 69 68 71 71 70 71 73 73 73 73 73
30 33 30 31 33 37 35 37 39 40 38 36 38 38 40 42 43 46 49 53 55 56 58 60 63 67 70 71 71 66 67 68 69 70 70 70 72 72 71 73 73 74 74 73
32 37 32 32 33 35 37 38 39 39 39 39 40 41 44 44 47 51 51 53 53 54 55 56 61 64 64 65 68 71 69 69 68 69 71 71 72 72 72 73 74 74 73 73
35 36 33 32 35 36 37 39 40 41 42 42 43 45 47 49 51 50 50 51 53 53 55 56 58 59 60 62 65 68 69 71 66 71 71 71 72 72 73 72 73 73 73 73
37 35 31 30 36 34 35 39 39 40 43 44 46 47 49 50 51 49 50 52 53 53 55 54 55 55 56 58 61 64 66 69 71 71 71 71 71 72 73 72 69 61 66 65

GFSCGP_sfc_30mbdewp_057.txt.gz
Dewpoint
39 38 34 31 31 29 27 26 22 18 20 41 50 58 60 58 59 60 61 59 58 57 58 56 55 57 62 61 61 65 66 66 69 68 67 68 66 67 67 70 71 71 72 70
34 34 36 33 31 29 25 24 24 24 18 21 49 54 55 59 57 61 61 58 57 57 57 56 54 58 61 61 61 65 67 67 69 67 68 68 67 65 66 70 70 71 71 70
30 30 33 31 30 23 23 24 23 22 19 35 49 50 51 54 57 60 62 59 58 56 56 56 54 56 60 63 63 66 68 67 68 66 67 69 67 68 67 68 69 71 72 71
28 30 26 27 26 24 20 22 20 17 16 17 47 43 50 51 55 59 58 59 58 57 55 56 55 56 58 62 64 66 69 68 69 67 66 67 66 66 65 66 69 71 70 70
23 23 26 26 22 19 19 21 19 19 16 16 15 16 44 52 54 54 55 55 55 58 56 55 55 55 58 62 63 67 69 68 67 69 66 66 65 66 67 68 69 70 71 71
14 17 21 25 24 22 19 17 17 17 18 16 15 14 20 50 52 54 51 52 54 57 56 56 56 56 59 62 63 66 69 67 67 67 68 65 65 65 66 67 66 70 71 72
14 16 19 19 21 17 17 17 15 14 15 16 16 12 11 49 53 54 52 54 56 60 56 57 56 56 57 61 62 65 67 69 67 67 68 68 64 65 65 67 69 69 69 71
6 6 4 14 21 23 19 16 16 13 16 16 17 14 13 13 53 54 53 56 60 59 57 56 57 56 57 61 62 64 65 67 68 66 66 69 69 65 67 68 69 69 69 69
13 10 16 14 17 24 23 21 17 16 17 17 17 17 18 16 39 52 52 55 55 56 60 60 58 57 58 60 61 63 65 66 69 68 66 67 71 65 66 66 68 66 69 69
17 12 14 12 13 22 22 23 18 18 15 16 18 18 20 20 16 49 52 53 59 60 60 62 62 62 59 59 61 63 66 66 68 68 68 66 68 70 66 66 66 67 64 67
19 15 12 12 11 12 17 17 18 20 22 21 16 17 22 26 32 46 51 52 58 56 59 61 61 64 63 59 60 62 67 67 67 67 69 67 66 69 70 66 64 67 66 72
20 18 13 12 13 13 12 12 14 13 16 22 24 25 28 33 38 43 50 50 58 59 62 62 59 59 63 61 59 61 64 67 68 68 68 69 67 67 68 68 65 63 67 68
22 20 16 12 8 14 15 12 6 7 5 4 9 19 31 31 33 38 41 45 54 59 62 58 60 60 63 61 60 60 62 67 68 69 68 69 68 66 67 65 68 65 67 67
23 19 18 17 19 19 18 17 16 13 2 2 6 11 11 26 29 31 39 38 47 59 59 57 57 59 59 60 61 60 61 65 68 69 70 68 68 68 65 65 64 70 67 72
25 20 20 20 19 18 18 17 16 15 14 11 9 10 25 23 24 29 30 31 34 41 57 56 56 55 63 60 63 64 62 62 66 68 69 69 69 68 68 66 66 62 71 67
29 26 21 20 20 20 19 20 20 19 16 12 13 10 12 16 16 18 17 19 22 25 34 36 44 49 62 58 55 58 63 63 63 68 69 69 69 68 68 68 69 67 65 71
30 31 29 24 24 23 22 19 20 20 20 14 11 14 16 18 20 19 21 25 26 24 25 43 46 59 61 59 56 55 58 63 63 64 68 69 69 69 68 69 68 70 66 67
26 30 32 27 26 22 26 26 24 23 22 22 21 16 22 23 23 24 25 26 32 40 41 58 57 63 62 66 63 64 65 65 64 64 66 68 69 69 70 69 68 69 70 68
29 25 25 25 24 24 24 22 22 23 24 26 24 26 27 34 31 25 34 39 41 43 44 55 50 58 65 65 64 65 63 63 63 65 65 68 68 69 70 69 69 68 70 70
31 33 31 31 25 18 19 21 21 24 19 23 34 35 34 35 30 32 38 38 40 45 45 55 49 58 60 66 64 62 63 62 62 64 66 67 68 69 69 70 69 70 69 69
30 30 29 30 29 31 34 35 33 24 27 38 37 37 36 35 36 38 40 40 41 41 43 55 60 61 63 65 67 66 62 62 65 66 66 69 68 68 69 70 70 69 70 69
30 28 30 30 28 25 35 35 34 37 38 38 38 39 37 37 37 37 41 43 43 45 48 58 59 60 63 68 68 69 68 68 67 69 68 67 69 68 70 70 70 70 70 70
28 33 30 31 31 33 36 37 38 38 37 38 39 39 39 38 38 39 41 44 47 53 55 57 57 59 63 65 65 67 68 70 68 69 69 70 71 68 70 70 70 70 70 70
34 36 32 32 31 34 37 38 38 38 39 39 39 40 40 40 40 41 43 47 52 54 55 56 57 60 60 60 61 65 67 68 70 70 71 69 71 70 68 72 71 71 71 71
35 36 34 33 35 37 37 37 39 38 38 40 41 41 40 41 43 45 46 49 53 54 55 55 55 56 56 57 59 61 62 65 67 70 71 71 70 71 70 71 72 72 72 72
36 35 32 30 35 37 37 39 39 38 38 39 41 44 44 46 47 47 49 52 53 53 54 54 54 55 55 55 56 57 58 61 65 69 70 71 69 72 72 71 68 61 65 68

GFSCGP_sfc_30mbdewp_060.txt.gz
Dewpoint
33 33 34 37 35 32 30 28 26 27 27 25 52 58 60 62 61 59 59 58 57 59 59 57 57 63 64 64 64 65 65 67 68 67 65 67 66 67 68 71 71 70 69 66
35 36 38 37 33 31 30 29 26 26 26 29 55 57 60 60 60 60 59 59 58 58 58 58 56 60 62 62 63 65 65 66 67 67 67 67 67 67 67 70 71 71 70 70
34 34 35 36 35 31 30 29 27 25 26 52 55 54 57 58 58 61 61 61 61 58 57 58 57 60 60 60 64 65 66 67 67 66 68 68 67 67 67 69 70 71 71 70
34 35 32 31 32 30 28 27 24 24 19 20 48 44 53 57 57 60 56 59 60 60 58 57 57 59 59 60 65 66 66 67 67 66 66 67 66 65 65 67 69 71 71 70
25 25 29 29 27 28 27 26 22 20 18 17 25 18 44 55 55 59 53 54 57 59 58 57 56 60 60 60 63 67 66 67 67 66 64 66 66 66 65 67 68 69 71 71
13 16 17 21 26 28 26 21 18 19 18 14 17 15 46 51 54 58 59 60 60 58 57 57 56 59 61 61 62 67 67 66 67 66 65 64 66 65 66 66 67 69 71 71
8 11 13 17 17 20 20 17 15 14 13 13 18 16 14 50 51 57 58 59 59 57 56 57 56 57 60 61 63 67 67 66 67 67 67 65 65 65 66 67 67 68 70 70
4 5 9 13 17 21 20 16 15 13 13 16 18 15 15 33 51 54 57 57 55 55 56 57 56 56 58 61 62 66 66 66 66 66 67 68 65 65 66 67 68 68 69 70
13 10 16 14 12 16 22 20 19 16 18 15 17 19 22 33 31 54 53 53 54 55 58 58 56 56 59 60 61 64 66 66 65 65 65 67 69 66 65 68 70 69 69 69
17 11 14 14 13 18 21 23 19 19 14 13 17 19 19 34 41 47 53 52 53 59 60 60 57 56 59 61 61 63 65 66 66 66 65 65 67 69 66 66 67 69 69 69
20 15 14 12 12 12 11 13 19 20 22 19 17 18 32 36 39 42 52 53 55 59 60 61 60 59 61 62 61 62 63 64 67 67 66 64 65 67 69 65 65 66 67 68
22 18 15 14 18 17 13 18 16 15 15 21 24 22 32 36 36 34 40 53 58 59 61 61 61 62 60 61 61 62 63 64 64 68 67 66 64 65 68 69 65 65 66 69
22 20 14 9 12 20 19 19 18 15 9 5 4 8 27 33 34 32 34 53 58 60 61 62 60 58 57 60 60 61 63 64 64 66 67 67 66 64 65 67 68 65 64 67
24 19 18 16 19 19 18 19 20 17 11 12 8 10 18 18 19 22 30 44 60 62 61 60 57 58 58 59 61 61 62 66 65 65 66 67 68 65 64 65 67 68 65 63
27 19 22 21 20 20 19 19 20 19 19 16 14 13 13 17 17 18 23 26 47 56 60 47 40 43 48 57 57 60 63 63 66 66 66 66 67 68 66 64 66 66 68 66
31 28 28 24 24 24 23 24 23 20 20 20 19 15 18 22 23 24 25 27 37 41 45 42 53 58 61 59 52 60 61 64 67 67 67 68 67 68 68 66 64 65 64 68
27 28 28 24 27 25 19 21 23 22 23 22 21 22 22 26 26 26 38 40 41 41 42 42 49 61 63 64 63 61 62 62 65 67 68 68 69 68 68 68 66 65 64 62
25 30 31 26 26 19 21 26 25 22 23 26 25 29 34 34 34 38 38 37 37 38 41 41 42 53 61 62 65 65 64 62 63 65 68 69 69 69 69 68 68 67 67 64
32 28 27 26 24 23 24 29 31 30 24 37 36 36 36 36 33 31 38 39 38 39 38 40 44 52 61 58 63 65 65 65 64 63 63 67 69 69 69 68 68 68 69 68
31 34 28 29 25 22 30 32 34 35 22 36 37 37 37 37 30 31 38 38 40 40 39 38 42 54 61 66 65 62 63 64 61 61 63 63 66 69 69 69 68 68 68 68
28 29 28 30 29 31 32 33 36 26 25 36 37 37 37 36 37 37 38 38 39 40 39 41 47 59 62 63 64 62 62 62 63 63 63 63 64 67 69 69 69 69 69 68
29 26 26 28 27 25 34 33 29 34 37 36 35 36 37 37 38 39 39 38 38 39 40 51 55 58 61 62 65 66 66 66 63 61 62 62 64 66 68 69 69 69 69 68
28 29 25 30 26 33 36 37 38 38 37 36 36 37 38 38 38 39 39 39 40 42 44 53 56 57 59 63 63 62 65 68 68 68 69 67 69 68 67 68 69 69 69 69
35 36 31 31 29 32 35 38 38 38 37 36 37 39 39 40 41 40 39 40 42 45 47 54 55 56 57 58 59 60 62 63 64 64 67 70 70 70 69 68 70 69 69 68
32 35 32 32 34 35 37 37 38 39 39 38 38 39 39 43 42 41 42 42 44 47 49 55 55 55 55 56 56 57 58 59 60 61 64 68 71 69 70 69 70 69 70 69
36 34 32 29 32 35 35 38 39 39 38 39 39 39 40 42 44 45 44 45 46 47 51 54 54 55 55 54 54 54 54 55 57 59 62 68 71 70 71 69 68 62 64 67

GFSCGP_sfc_30mbdewp_063.txt.gz
Dewpoint
31 28 31 31 36 36 32 30 28 29 29 26 49 52 59 60 61 60 60 59 57 57 58 58 61 62 63 64 64 63 64 67 68 66 65 66 66 68 68 69 70 70 69 68
35 31 34 38 36 33 31 30 29 28 27 30 36 51 59 61 60 60 59 59 57 57 57 58 59 63 64 63 64 64 64 67 68 66 66 67 67 67 68 69 70 70 69 66
33 35 37 37 37 34 31 30 29 28 28 51 55 54 58 60 60 60 60 59 59 57 58 58 60 63 64 63 64 64 64 67 67 66 67 67 67 67 67 69 70 70 71 69
33 34 35 34 33 34 32 32 31 28 22 17 50 42 54 57 57 59 60 60 59 57 58 59 58 61 63 63 63 64 64 66 67 67 66 66 65 64 65 67 69 70 71 70
30 27 34 33 30 31 29 31 28 26 20 17 25 35 40 57 55 56 60 61 61 60 58 58 57 59 61 62 63 64 65 66 66 66 66 66 65 65 65 66 68 70 70 70
12 14 17 22 27 29 29 26 21 20 18 15 16 20 35 53 53 55 58 60 60 60 60 59 58 59 60 60 63 64 65 66 66 66 65 65 65 66 65 65 66 68 70 70
8 11 14 17 16 19 23 19 18 14 14 14 18 16 16 46 54 54 56 59 56 58 59 59 57 59 59 59 63 65 65 65 66 65 64 64 65 65 66 66 65 67 69 70
4 4 8 14 14 18 19 19 16 13 13 14 18 14 24 38 43 54 56 56 58 57 60 59 57 59 59 59 61 65 65 65 66 66 65 64 64 65 65 66 67 67 68 70
13 10 15 14 13 15 20 20 18 16 18 14 17 19 24 39 41 43 54 58 58 59 60 59 57 58 60 59 61 64 65 65 65 65 65 66 64 64 64 66 68 68 69 69
17 12 14 14 15 13 15 22 19 17 13 13 16 21 32 34 34 40 51 56 58 59 59 58 58 57 59 60 61 63 65 64 65 65 65 66 67 65 65 65 67 69 69 69
21 15 12 12 15 13 17 17 17 21 19 14 14 26 33 34 32 34 47 53 56 55 57 58 58 58 58 60 61 62 64 64 64 65 65 64 65 68 67 65 65 66 69 69
22 18 14 15 19 19 19 19 17 15 17 20 22 25 24 31 28 30 55 53 54 55 57 62 62 62 61 61 61 62 63 64 64 65 64 64 64 65 67 67 66 65 65 67
23 19 13 12 14 19 19 20 19 16 11 12 9 14 19 19 21 27 50 59 62 61 61 60 61 61 60 61 62 62 63 63 64 65 65 64 64 64 64 67 68 66 65 65
25 20 18 16 18 19 18 20 20 18 17 17 12 15 15 18 21 23 32 44 57 60 53 56 57 57 57 57 60 61 62 63 64 65 66 65 65 64 64 64 66 68 66 65
26 24 26 22 22 23 22 23 22 19 19 18 17 18 17 20 21 29 37 41 44 47 42 46 55 56 60 62 62 59 61 62 64 63 65 66 66 65 64 63 64 66 67 66
29 27 27 24 27 25 22 22 21 21 19 20 20 20 22 28 28 37 38 37 37 39 40 43 43 48 54 62 64 62 59 62 64 64 64 66 66 67 65 64 63 64 66 67
27 27 25 21 28 23 15 23 23 23 23 22 21 26 34 32 33 37 37 37 37 37 36 38 40 45 48 59 63 64 63 64 65 65 65 66 66 66 67 66 64 63 64 64
27 27 28 24 24 12 21 32 30 25 34 35 35 36 37 37 36 38 38 37 37 39 38 37 36 40 45 54 61 64 65 64 64 67 66 66 67 66 67 68 67 65 64 64
29 28 26 24 23 23 26 32 30 31 32 36 36 36 36 36 35 35 38 38 37 38 38 38 38 39 46 56 65 65 64 65 64 63 66 67 68 68 67 68 68 67 65 65
31 31 26 28 23 20 29 31 32 35 29 35 35 35 35 36 31 30 37 38 38 38 38 39 39 42 51 55 62 64 64 64 64 64 64 64 67 69 69 68 68 68 68 67
27 27 27 28 28 30 32 32 33 27 27 35 35 35 35 33 35 36 38 39 39 39 39 38 39 44 52 55 61 62 64 64 65 64 64 63 63 64 69 70 70 68 68 68
26 24 24 26 24 22 34 32 25 32 36 36 34 34 34 34 35 37 38 39 40 39 39 39 39 41 50 54 59 60 62 64 68 68 65 63 63 64 65 66 70 69 69 68
27 28 24 26 22 32 36 34 36 37 35 34 34 35 35 35 35 38 40 41 41 40 40 40 41 43 49 56 58 62 61 62 63 63 64 66 68 64 64 65 67 69 69 68
33 35 29 30 27 30 33 36 37 38 37 38 38 38 37 36 37 40 42 43 41 41 41 43 44 45 49 54 58 58 59 60 60 60 62 63 64 67 70 69 68 67 68 68
31 35 31 31 31 33 34 36 37 37 39 38 38 39 38 39 39 40 42 43 43 45 45 44 46 47 51 55 57 57 57 57 57 58 59 61 63 66 70 71 69 68 68 69
34 32 30 26 31 31 31 35 38 38 39 38 39 38 39 40 40 41 41 43 44 45 45 47 46 47 51 55 56 56 55 55 55 56 58 59 60 63 66 70 69 65 67 67

GFSCGP_sfc_30mbdewp_069.txt.gz
Dewpoint
27 31 32 40 42 37 34 32 31 31 41 40 31 33 49 60 61 59 59 59 59 59 61 63 64 64 64 63 65 66 67 69 69 68 66 67 67 68 68 69 71 71 71 72
24 23 31 39 41 37 36 33 32 31 31 32 31 35 57 57 60 61 59 58 58 59 60 61 62 62 63 63 65 66 67 69 69 68 68 68 68 68 69 70 71 71 72 72
21 22 30 37 37 36 35 34 32 30 31 42 50 48 55 59 60 61 61 59 58 58 58 59 61 61 62 63 65 66 67 69 69 68 69 69 69 69 69 70 69 70 72 69
29 30 33 38 38 37 35 34 33 31 29 22 40 24 48 56 57 60 61 60 58 58 58 58 59 60 61 62 64 66 67 68 70 70 68 67 66 65 66 68 68 70 72 71
30 34 32 37 37 37 37 34 33 31 29 23 27 30 39 53 55 57 60 61 59 59 58 58 59 60 60 62 64 65 67 68 68 70 68 68 67 66 67 68 70 70 73 72
27 25 35 37 35 33 34 27 24 23 23 20 21 28 26 38 42 42 56 60 60 59 58 59 59 60 61 62 63 64 66 67 68 69 69 68 67 67 66 67 68 68 70 72
14 14 17 24 27 31 30 27 22 21 20 20 20 21 32 35 36 38 44 51 61 60 59 59 59 59 61 62 63 64 66 66 68 68 68 68 68 68 68 68 67 68 68 70
22 20 14 15 17 19 26 26 20 18 18 18 21 18 30 28 36 45 53 53 57 61 60 59 59 60 61 62 64 64 65 66 67 67 68 69 69 67 67 68 66 67 67 68
14 12 15 16 17 20 21 21 22 19 19 17 18 25 29 26 37 47 56 57 56 60 61 60 60 60 61 63 64 64 65 66 66 66 68 68 69 68 67 68 69 67 68 68
18 12 16 17 18 20 22 21 18 20 17 15 23 29 25 26 39 49 56 58 55 58 61 61 60 60 61 62 63 64 65 66 66 66 67 67 67 68 68 69 69 68 69 70
20 15 17 19 19 19 20 19 21 21 20 16 19 25 20 31 45 48 47 55 60 60 59 61 61 61 61 61 62 63 64 65 65 66 66 66 66 67 68 67 68 69 70 70
23 18 17 18 20 21 20 20 19 20 22 22 23 21 25 39 44 42 45 47 51 57 60 63 63 62 62 62 61 61 63 64 65 66 67 66 66 67 66 67 67 69 70 70
24 18 16 16 17 19 20 20 19 14 17 22 19 16 27 40 39 38 39 40 41 43 45 49 52 56 63 63 62 61 62 63 64 66 66 66 66 66 66 66 67 67 68 69
26 22 18 10 17 20 20 20 20 18 16 17 18 19 26 36 36 35 36 35 36 38 38 40 42 45 51 57 63 65 64 62 63 64 65 65 66 67 66 68 67 67 68 68
28 23 23 24 23 22 21 20 19 17 19 17 19 20 29 36 36 35 35 35 35 37 38 38 39 41 44 48 55 61 64 65 65 64 64 64 66 66 66 67 68 68 68 67
29 27 26 25 25 23 20 22 21 19 18 18 19 24 35 36 37 37 37 36 36 36 36 38 39 39 40 44 48 56 61 64 66 65 65 65 66 67 67 67 67 68 68 68
29 28 24 20 26 22 15 24 23 23 31 26 18 33 36 35 35 36 35 38 38 37 37 38 38 38 40 41 44 52 59 64 65 66 65 65 66 67 68 67 67 67 68 68
28 31 30 22 21 12 26 31 30 30 34 35 35 35 35 35 34 34 35 38 37 37 37 38 38 39 41 42 42 47 55 58 63 67 65 65 66 67 68 68 67 68 67 67
30 29 29 23 18 22 26 28 28 28 30 34 34 33 33 34 33 35 38 36 36 37 37 38 39 41 43 42 42 43 49 55 56 64 66 67 66 66 67 67 68 68 67 67
31 31 29 28 20 16 27 28 31 32 22 34 34 33 32 32 28 28 36 35 35 37 38 38 40 43 42 43 42 43 45 50 54 58 63 65 68 67 68 68 68 68 69 68
28 31 29 27 25 27 31 30 34 26 27 34 34 33 33 31 32 34 34 35 36 37 38 39 40 43 43 43 44 45 46 46 51 54 63 63 64 67 66 67 70 69 69 69
26 28 29 29 27 21 33 30 28 32 35 34 34 33 33 33 34 34 35 36 36 37 37 39 41 42 43 44 44 45 46 47 51 55 60 59 63 63 65 67 66 70 70 70
28 29 30 29 28 32 34 31 33 34 33 33 34 32 32 33 34 35 35 36 36 37 38 40 40 42 43 44 45 46 47 49 49 52 58 58 59 62 63 66 67 67 69 70
33 33 33 30 30 31 34 35 36 36 35 35 34 32 33 35 35 35 35 36 37 38 38 39 40 41 41 42 44 44 45 48 49 49 54 57 57 60 62 63 64 65 65 68
33 35 34 32 33 33 34 35 35 37 37 37 37 37 37 38 35 35 36 37 37 38 38 39 39 40 41 42 42 43 44 46 49 49 53 56 56 58 60 61 62 65 68 67
34 34 32 30 34 32 31 36 37 37 37 38 39 39 39 40 38 37 37 38 39 39 40 40 41 41 40 40 41 42 44 47 50 50 51 55 55 57 59 60 60 61 63 64

GFSCGP_sfc_30mbdewp_072.txt.gz
Dewpoint
25 27 22 26 29 31 29 34 35 34 46 42 38 34 50 57 59 59 59 58 58 57 58 59 63 64 63 62 61 63 64 67 67 66 65 65 65 66 66 67 69 70 69 70
23 22 23 29 33 37 34 33 33 32 32 35 30 29 47 50 56 59 60 59 58 57 57 58 62 62 61 61 60 63 64 68 67 64 64 65 65 65 66 67 69 68 69 70
19 18 26 35 37 36 33 31 33 32 31 32 35 35 48 52 54 59 59 59 58 57 57 59 61 61 60 60 60 63 65 67 67 64 66 69 68 69 70 68 67 68 70 70
17 22 24 31 35 34 30 33 33 33 30 27 31 30 41 52 54 59 60 58 57 58 58 58 59 60 59 59 61 63 66 68 68 68 66 66 64 62 63 65 65 68 70 69
22 20 24 29 33 35 32 35 33 32 32 28 24 27 41 46 51 57 60 60 57 58 58 58 58 59 59 60 61 63 67 68 67 69 66 67 67 63 65 64 69 68 71 69
27 24 26 31 36 37 36 32 31 30 29 25 24 24 30 37 40 42 56 59 59 58 58 58 58 59 59 60 61 62 66 68 69 70 70 68 66 65 62 65 69 66 69 69
25 28 30 33 35 36 35 29 22 20 20 19 23 23 33 35 40 44 46 46 59 58 58 58 58 58 59 59 61 62 65 68 69 69 69 69 68 68 67 67 63 65 65 65
19 21 26 30 33 32 32 28 19 17 16 16 23 20 28 36 46 54 55 50 49 59 58 58 59 59 59 60 61 62 64 67 68 68 69 69 69 67 67 66 62 64 64 65
20 17 17 18 19 22 30 27 23 18 19 16 19 30 28 35 48 51 56 54 53 58 58 58 59 59 60 61 61 63 64 67 68 67 68 69 70 69 65 65 67 65 65 64
19 18 18 17 18 20 23 25 22 19 15 15 18 24 26 36 47 50 53 57 57 57 59 59 60 60 60 61 62 63 64 66 67 67 67 68 68 69 68 68 68 66 64 67
19 18 16 18 20 20 20 19 21 19 18 14 17 22 27 41 47 49 50 51 54 58 61 62 63 60 61 61 62 62 63 64 66 66 66 67 67 67 69 68 68 68 67 67
21 15 14 18 20 21 22 22 22 18 20 20 19 22 36 42 45 45 44 45 46 48 50 53 56 58 62 61 61 62 63 63 64 65 66 67 67 67 66 68 67 68 68 68
24 18 16 15 17 20 20 21 22 21 21 19 15 22 39 42 44 41 39 39 40 41 42 43 44 49 53 59 63 63 62 61 62 65 66 67 67 67 66 66 67 67 68 68
28 20 21 12 16 18 20 19 20 20 17 20 20 27 36 38 40 41 37 36 37 38 39 39 42 45 48 50 54 61 65 64 63 63 65 65 67 66 66 66 67 67 68 68
28 23 23 22 20 19 18 17 17 19 21 20 22 26 34 36 36 37 37 37 36 37 38 38 39 41 44 47 48 53 60 64 66 66 64 65 66 67 67 66 67 68 68 68
26 26 25 23 22 21 19 19 18 16 18 21 23 28 34 37 38 37 37 37 37 37 38 39 38 39 40 42 45 48 50 59 63 67 66 66 66 66 67 68 68 68 68 68
26 25 24 16 22 18 14 17 17 19 22 22 20 31 34 34 35 35 35 38 39 38 38 38 38 39 42 43 42 42 46 52 56 60 67 67 67 67 67 68 68 68 68 68
26 28 23 16 19 9 25 28 26 22 29 30 33 34 34 35 35 34 38 37 37 37 38 38 37 39 42 44 44 44 44 46 50 56 62 67 66 66 67 69 69 68 69 68
28 25 22 20 14 19 22 25 24 27 28 32 31 32 32 32 31 36 37 36 35 36 36 37 38 39 42 44 44 45 46 46 46 51 55 62 63 68 67 67 68 69 69 69
27 30 27 22 22 15 24 27 29 28 21 33 32 32 31 30 20 35 36 35 35 36 37 38 39 40 40 44 44 44 44 46 47 48 49 54 62 64 66 67 69 70 70 70
28 29 29 24 24 24 29 29 32 20 28 33 32 32 32 30 32 34 35 35 37 37 38 38 39 39 41 43 44 45 46 46 48 49 49 52 58 61 62 65 68 70 70 70
26 29 29 28 26 26 31 31 29 34 33 32 32 32 32 32 32 33 34 35 37 37 38 39 39 40 41 42 44 44 46 47 48 50 51 50 52 59 57 62 64 67 69 70
30 31 33 30 30 34 33 31 34 31 32 32 31 30 30 30 32 33 33 34 36 37 38 38 38 39 40 41 43 44 45 47 47 48 49 51 50 52 57 59 61 63 66 67
30 33 34 33 26 31 34 33 34 33 31 33 32 31 31 32 33 33 33 34 35 36 37 38 38 38 39 41 42 43 44 45 45 46 47 48 49 49 53 54 54 58 61 62
31 34 32 33 32 32 32 33 34 34 35 34 33 34 35 35 34 34 34 35 36 37 38 39 39 39 40 40 41 41 42 42 43 44 45 46 47 48 50 52 52 55 59 62
34 33 33 33 33 33 30 34 36 35 35 35 35 36 36 36 36 36 36 37 38 38 39 40 40 40 40 40 40 41 41 41 43 43 44 44 46 46 47 48 50 52 58 59

GFSCGP_sfc_30mbdewp_075.txt.gz
Dewpoint
25 23 25 25 24 20 23 28 31 33 41 40 42 52 53 56 57 57 59 60 56 55 56 57 56 60 60 60 60 62 63 65 65 65 62 62 64 68 67 69 68 68 69 68
22 21 24 23 22 21 25 24 29 33 40 39 35 33 48 53 56 58 59 59 58 56 56 57 56 60 61 60 60 62 63 67 66 64 65 61 64 66 68 70 67 67 68 68
19 17 21 20 24 26 30 28 30 32 32 36 31 31 42 45 51 59 60 59 60 57 56 56 58 60 61 59 59 62 64 67 67 64 64 65 65 66 67 67 65 67 69 68
18 17 18 22 27 32 26 26 28 30 31 28 32 28 39 44 46 59 60 58 57 58 57 56 58 60 61 58 58 61 64 66 67 65 65 66 64 63 61 65 67 67 68 68
18 14 18 24 30 31 26 26 27 31 29 26 29 29 41 46 48 56 57 57 58 58 57 57 59 60 60 57 59 62 66 67 67 67 68 66 67 64 63 69 69 68 69 68
21 19 18 20 26 31 33 31 29 28 28 22 24 22 41 43 51 53 55 59 58 57 58 58 59 60 60 57 58 62 67 68 68 68 69 68 66 67 66 67 66 65 65 67
25 26 22 21 25 32 34 31 25 24 22 20 21 20 35 38 41 42 52 54 57 58 57 59 60 59 60 58 56 60 66 68 69 68 68 68 68 67 68 67 64 64 67 63
19 20 20 22 27 31 32 29 20 17 15 16 20 20 33 42 50 52 51 49 57 57 58 57 58 60 60 59 56 58 64 68 69 69 69 70 69 67 65 66 65 64 68 68
20 18 25 25 30 31 29 28 24 17 15 13 21 29 35 45 48 53 57 52 47 57 58 58 58 60 60 60 58 58 64 67 68 68 69 70 70 69 64 66 66 65 66 69
22 19 21 21 22 26 25 28 25 22 16 13 18 26 27 42 47 51 53 55 58 61 62 63 63 61 60 60 59 58 61 66 68 67 68 69 69 70 69 66 66 65 67 65
18 23 20 19 19 19 21 24 25 22 17 15 17 26 37 46 48 49 48 49 51 53 55 58 59 63 64 65 62 61 61 63 66 67 67 67 68 69 70 68 67 67 66 67
16 19 18 19 21 22 22 19 23 21 20 17 17 27 41 47 48 46 44 45 46 47 47 52 55 57 58 61 64 66 62 61 64 65 67 67 67 68 67 69 68 69 69 67
22 14 17 18 20 21 20 21 21 19 18 19 16 31 41 47 44 43 42 42 43 43 44 44 48 49 52 56 61 63 65 65 62 63 64 66 66 67 67 67 68 69 69 69
31 17 21 17 16 17 19 19 20 20 19 19 21 36 38 42 42 39 39 40 41 41 41 42 44 46 48 51 54 58 61 65 66 67 63 65 67 67 68 68 68 68 70 69
24 19 20 20 17 18 19 19 18 18 18 17 31 35 37 39 40 40 39 38 39 39 39 40 41 44 47 49 50 52 55 61 63 66 67 68 66 68 68 68 69 69 69 69
23 22 22 19 20 18 16 17 17 17 20 22 29 35 37 37 39 40 41 40 38 38 39 38 40 42 44 44 48 50 50 52 59 60 65 69 68 69 69 68 69 69 70 70
26 20 22 18 20 19 16 16 16 15 17 22 26 33 37 36 36 36 38 40 38 38 38 38 38 40 43 43 44 46 49 50 52 55 59 63 67 68 69 70 70 70 70 70
27 27 23 18 21 17 20 26 19 17 22 32 34 33 34 35 35 35 38 37 37 38 38 39 38 40 43 44 46 46 46 47 48 51 52 56 59 64 67 68 69 70 71 70
23 26 24 19 19 19 23 24 23 25 27 31 33 33 32 32 33 37 37 36 36 37 37 38 38 39 42 43 46 47 46 49 49 48 49 53 55 60 63 64 68 69 69 69
22 28 25 22 19 13 24 24 28 25 25 30 31 30 29 28 23 36 37 35 36 37 38 39 39 39 40 43 44 45 45 47 48 50 51 51 52 56 62 62 62 68 70 69
25 25 25 25 23 23 29 28 27 19 26 32 29 30 29 27 34 35 35 36 37 38 39 40 40 40 42 43 44 45 46 46 49 50 50 51 52 52 55 59 60 64 67 70
26 29 29 26 23 24 30 29 25 34 34 32 31 32 31 32 32 33 33 34 35 36 37 38 38 39 41 42 43 44 45 47 48 49 49 50 51 52 49 54 59 59 62 65
29 29 36 30 32 37 34 32 36 35 34 31 31 30 29 28 31 32 32 33 34 35 37 38 39 39 41 42 43 43 45 46 47 47 48 48 49 50 52 52 55 55 59 60
27 30 34 30 29 31 32 32 32 30 30 31 30 29 29 30 32 32 33 34 35 36 37 38 39 40 40 41 42 42 43 44 45 45 46 46 46 47 48 50 50 50 47 51
31 31 31 30 29 30 31 32 32 32 31 32 31 32 32 33 33 33 34 35 35 36 37 38 39 40 40 41 42 42 42 43 43 43 42 43 44 44 46 48 47 47 50 51
32 32 33 34 32 32 32 32 33 34 33 33 33 34 35 35 35 35 35 36 37 37 37 38 39 40 41 41 41 41 42 42 42 42 41 41 41 42 42 44 45 47 49 49

GFSCGP_sfc_30mbdewp_081.txt.gz
Dewpoint
29 27 27 29 30 28 30 33 34 41 46 52 51 51 54 58 59 56 54 54 54 55 56 57 56 59 59 63 60 66 66 68 65 66 67 68 66 67 68 69 69 70 67 70
28 28 29 27 28 28 26 23 28 43 51 54 51 49 49 51 58 54 54 54 54 56 56 57 56 57 61 62 62 67 68 68 65 65 68 68 67 69 69 70 70 71 69 71
25 27 28 22 24 25 24 22 25 41 45 51 52 52 52 55 57 55 55 57 55 56 56 57 56 56 61 63 63 67 67 69 67 66 69 68 69 68 65 67 69 71 70 70
23 23 22 19 19 22 21 22 21 43 42 43 51 43 52 56 55 55 55 57 57 57 57 58 57 60 62 63 65 67 68 68 68 70 68 65 65 66 67 66 68 71 71 69
20 17 17 16 17 21 20 20 26 39 38 38 46 43 49 55 54 56 57 58 57 56 58 58 60 61 63 64 65 66 70 68 66 68 70 67 66 68 68 70 69 70 70 70
20 20 16 18 16 17 20 22 27 35 35 33 32 37 46 53 53 56 59 58 58 60 60 58 60 62 62 64 65 66 70 68 67 68 70 69 67 63 63 67 67 68 70 70
22 18 15 15 16 18 20 27 26 22 30 31 33 31 48 55 58 58 57 55 57 59 60 58 59 62 63 63 64 66 68 70 69 68 69 69 67 64 59 66 68 68 69 70
21 20 22 14 17 19 22 27 27 21 23 27 28 40 46 52 53 54 51 57 58 59 62 60 59 61 62 62 64 65 67 69 70 69 69 69 69 68 68 68 67 69 67 69
24 24 24 19 18 18 22 23 27 25 22 21 39 47 50 50 53 55 56 59 61 63 63 64 63 63 63 62 62 65 67 69 70 69 70 70 70 70 68 65 66 69 67 69
26 24 26 27 23 18 18 30 25 27 25 21 42 44 48 53 52 50 50 52 55 58 62 63 63 64 66 66 65 66 69 69 70 71 71 71 71 71 71 70 69 69 70 70
23 22 27 26 18 16 29 28 32 29 27 24 32 42 51 52 49 47 48 48 52 54 56 59 61 62 63 65 67 67 68 69 69 70 70 71 71 71 71 70 70 70 69 68
28 18 27 28 27 23 23 30 32 28 25 35 39 42 51 50 48 47 46 46 49 51 54 55 56 58 60 63 64 65 66 66 66 68 70 70 71 72 71 71 69 71 69 69
28 23 20 25 26 20 19 20 21 23 24 28 33 42 49 48 48 47 45 45 45 48 51 53 54 55 57 59 62 63 64 65 66 66 67 70 70 71 70 71 71 72 70 68
29 20 20 25 28 26 19 19 20 21 20 36 35 45 45 45 44 45 44 45 46 46 48 50 52 54 55 56 57 59 61 64 64 65 64 67 67 68 70 71 72 72 72 71
23 20 21 26 28 24 19 19 19 19 23 33 43 44 45 45 44 43 43 42 43 44 46 47 49 51 54 53 53 56 57 59 61 62 63 64 67 66 66 68 71 71 72 72
21 24 25 23 25 23 19 20 19 19 36 43 44 45 46 44 44 43 42 42 41 42 44 46 47 48 49 52 53 52 53 57 58 58 59 62 64 66 68 67 70 70 70 71
25 27 28 23 28 25 20 20 18 37 38 39 42 43 43 42 43 42 42 42 42 42 42 44 45 47 47 48 53 52 54 55 54 53 56 57 59 60 64 67 67 67 70 70
25 29 28 27 28 21 24 26 22 23 35 41 42 42 43 43 43 41 41 41 41 41 42 42 44 46 47 48 48 51 53 55 56 55 55 55 56 55 56 64 65 64 67 69
22 24 24 26 27 28 28 26 24 23 31 40 39 39 39 39 38 37 39 39 40 41 41 40 42 47 47 47 50 51 51 53 52 53 54 56 57 56 56 54 56 62 65 65
23 26 25 28 27 23 27 26 28 28 32 41 40 37 38 38 36 36 37 39 40 42 42 41 44 45 44 45 46 48 49 52 51 52 53 54 54 54 53 57 57 56 60 64
25 25 24 27 28 32 33 26 27 23 32 37 37 38 36 38 39 39 39 40 41 40 40 42 43 44 45 46 47 47 49 48 50 50 50 52 53 53 52 53 54 57 57 58
32 29 29 27 25 26 36 30 32 36 33 34 37 38 38 38 37 38 38 38 39 39 38 42 42 43 45 46 46 47 46 48 48 48 49 50 50 50 49 51 52 54 56 56
26 34 33 34 35 37 37 39 38 37 35 35 34 36 35 36 35 36 37 37 37 39 41 41 40 42 45 46 46 44 46 47 46 47 47 47 47 48 48 47 47 48 49 51
32 29 32 33 37 38 36 36 37 37 35 35 34 33 33 35 34 35 36 38 39 40 40 40 40 42 43 45 44 44 46 46 44 43 44 44 44 44 45 44 46 47 48 48
35 34 31 32 33 32 34 37 36 32 34 33 34 30 30 35 34 37 37 39 38 40 40 40 41 41 42 43 44 44 44 43 42 42 41 41 41 41 41 42 43 44 44 45
35 36 34 35 40 41 37 37 34 32 30 34 31 31 35 35 36 37 41 39 38 40 41 40 40 41 42 42 42 43 42 42 41 40 40 40 40 40 40 40 41 43 43 43

GFSCGP_sfc_30mbdewp_084.txt.gz
Dewpoint
32 26 25 26 29 29 29 28 33 47 55 55 55 54 56 58 61 57 54 54 54 55 55 57 63 65 65 65 65 64 65 65 66 68 67 67 65 66 69 69 66 68 69 70
28 26 27 27 29 29 28 27 27 51 53 51 54 55 56 58 60 59 55 54 54 56 55 55 59 62 63 63 65 65 65 65 65 66 68 68 67 68 69 69 68 69 69 70
27 27 29 29 28 26 25 26 26 44 52 53 52 51 51 53 54 60 57 54 55 55 56 55 57 59 62 62 66 66 66 65 65 66 68 69 69 67 67 68 69 70 70 71
26 27 27 28 27 24 21 25 24 45 42 40 50 35 52 51 51 58 56 55 56 55 58 57 57 59 61 62 67 67 67 66 66 68 66 67 66 65 65 66 68 70 70 70
22 23 23 22 24 21 19 21 22 35 41 45 44 42 47 53 55 55 56 57 57 57 58 57 56 60 61 63 66 66 67 66 67 69 68 66 66 67 68 68 67 70 70 70
23 22 20 18 18 18 18 22 36 40 38 36 41 42 46 52 54 56 58 58 58 58 59 59 59 61 61 63 65 68 67 66 66 68 69 68 66 66 67 68 67 69 70 70
24 23 22 19 16 16 18 23 24 27 31 31 35 44 41 53 56 57 57 57 59 58 60 59 60 61 62 63 65 68 67 66 66 66 68 69 67 64 65 67 67 68 69 69
22 19 21 20 15 15 17 23 26 22 27 29 35 38 46 56 58 59 59 59 55 58 62 59 61 62 63 63 65 66 68 67 67 67 68 69 68 66 63 66 68 67 69 69
21 23 28 27 18 17 17 21 26 25 26 23 44 47 50 54 53 54 55 58 59 63 64 64 64 65 64 64 65 65 68 68 68 68 68 69 69 68 67 68 67 67 69 69
23 23 24 25 24 17 17 26 24 27 23 23 43 45 46 51 50 51 52 54 56 58 60 63 64 65 66 66 67 66 66 68 69 69 69 69 69 69 67 68 65 67 68 69
25 21 20 28 24 18 22 24 32 29 28 24 36 43 53 50 49 49 50 52 53 56 57 58 61 65 66 67 67 67 67 67 67 69 69 70 70 70 69 69 69 70 69 69
27 21 18 26 27 29 28 28 29 27 27 38 40 45 51 50 50 48 48 49 52 54 55 57 57 61 64 64 66 66 66 66 66 67 68 69 70 70 70 70 70 70 69 68
25 20 21 23 24 27 20 20 20 25 31 33 29 42 50 50 48 47 47 47 50 52 53 55 56 57 59 62 64 65 66 66 65 65 66 67 67 69 68 69 70 70 69 69
27 20 21 22 27 27 21 20 20 21 20 34 39 44 46 46 45 45 45 45 48 49 50 52 54 55 57 58 60 62 64 65 66 65 65 66 66 66 66 68 70 71 70 69
22 23 24 28 24 24 22 20 23 20 23 29 42 38 44 44 44 44 45 46 45 45 46 49 51 53 54 56 58 59 60 62 64 65 65 65 67 67 68 66 64 64 69 71
25 27 26 24 30 27 23 22 32 35 40 44 45 44 44 44 43 42 42 43 44 45 46 47 48 51 52 52 54 57 58 59 59 60 61 62 63 64 65 67 66 66 67 70
29 27 26 25 29 26 22 23 28 39 44 45 42 44 43 42 42 41 40 41 43 44 45 46 47 48 50 52 54 52 54 55 55 56 58 59 59 59 60 63 66 64 64 68
22 28 28 24 27 20 26 27 26 39 42 44 44 43 43 43 43 42 42 42 42 43 43 45 46 47 49 51 52 54 55 56 56 56 57 57 57 57 58 56 57 60 65 64
23 25 24 23 25 27 27 25 24 26 40 44 43 43 43 42 41 41 41 41 41 41 43 46 46 45 45 47 50 52 52 52 52 52 54 55 55 54 54 57 58 58 59 59
24 28 22 29 26 20 27 26 29 29 30 42 42 41 39 38 36 37 41 41 41 42 43 43 44 45 46 48 49 47 47 48 48 49 50 51 51 51 51 51 52 55 57 59
30 24 22 28 27 32 34 32 28 25 29 39 40 38 37 37 37 39 42 40 40 42 42 44 44 45 45 47 46 46 47 47 48 48 48 48 49 49 49 49 50 51 52 55
31 28 28 27 24 26 37 32 28 34 37 39 40 39 39 39 39 40 39 39 39 41 42 43 44 44 45 45 44 45 46 46 46 46 45 45 46 46 47 47 47 48 48 49
27 32 31 33 33 37 39 37 38 36 37 38 39 39 38 38 38 38 38 38 39 41 40 42 44 44 45 44 44 44 45 44 43 42 42 42 44 42 42 43 44 44 44 44
32 34 30 32 38 36 36 38 37 36 35 36 37 36 36 36 37 37 37 40 40 40 39 41 42 43 42 44 43 44 43 42 42 41 41 41 41 41 41 41 42 43 43 43
33 33 30 31 34 34 38 37 35 34 35 34 34 34 36 35 36 37 39 39 40 39 40 41 41 41 42 42 42 42 42 41 40 40 40 40 40 39 40 40 41 41 42 43
35 34 33 32 39 37 36 39 38 33 34 33 32 31 36 35 37 39 38 39 40 40 41 40 40 42 41 41 42 42 42 41 40 39 39 39 39 39 40 40 39 41 41 41

GFSCGP_sfc_30mbdewp_087.txt.gz
Dewpoint
32 31 28 29 28 29 29 28 27 48 55 55 53 54 58 59 60 54 53 54 53 54 60 62 64 65 65 66 66 66 65 67 67 67 67 67 66 67 68 69 68 68 70 70
29 28 27 27 28 28 29 28 38 54 56 54 54 53 57 59 60 57 54 54 54 54 60 63 64 64 65 65 65 65 65 66 67 66 67 67 67 67 68 69 68 68 69 69
29 27 29 28 27 26 26 26 27 48 53 54 54 52 54 57 59 60 60 57 55 54 57 62 63 64 64 64 65 65 65 65 66 67 68 68 68 67 67 68 69 69 70 69
27 29 27 27 28 27 24 24 27 50 48 44 51 41 51 54 55 57 60 58 56 54 56 61 63 63 63 63 65 65 66 64 65 68 67 66 65 65 66 67 68 69 70 70
25 25 25 25 26 27 24 22 22 43 43 45 48 41 44 52 51 53 59 58 56 57 55 58 61 62 62 64 65 65 66 64 65 67 67 66 66 66 67 67 66 69 70 70
24 24 23 23 23 24 22 20 31 39 40 38 41 41 43 51 50 53 59 57 57 57 57 57 59 62 63 64 66 67 66 65 67 67 67 66 66 67 66 67 66 68 70 70
24 24 24 21 19 17 20 23 23 34 36 35 39 41 41 53 54 56 57 58 58 59 59 58 60 61 62 63 66 66 66 65 67 68 68 67 66 66 66 66 66 67 68 69
23 19 23 20 21 17 19 18 20 27 31 33 41 38 45 55 58 58 60 60 59 61 61 60 60 61 63 63 65 66 66 65 66 67 68 68 68 66 65 67 68 68 68 69
21 22 27 26 21 18 21 21 24 25 26 26 43 48 52 53 53 56 58 59 59 61 64 62 62 62 63 64 64 66 67 66 66 66 67 68 68 66 64 64 67 68 68 69
23 22 24 26 25 21 18 25 22 26 23 23 43 45 43 52 51 53 55 56 57 59 60 63 64 65 65 65 66 66 68 67 67 68 67 68 69 68 67 68 67 67 67 68
24 20 20 27 25 19 22 25 29 28 28 26 38 41 51 52 51 52 53 53 56 57 58 60 62 66 67 67 67 67 67 68 68 68 69 69 69 69 69 68 67 66 66 68
26 19 20 25 25 26 21 22 30 23 29 37 38 41 50 50 50 51 51 52 54 56 57 58 60 62 65 66 67 68 67 66 67 68 68 69 69 70 69 69 69 70 70 69
24 21 21 23 25 27 21 20 20 28 35 35 30 37 51 50 49 49 49 50 53 54 55 57 59 60 61 63 66 66 66 66 66 66 66 66 66 67 69 69 70 70 70 69
25 21 22 25 24 26 21 22 22 21 20 32 33 42 48 48 47 46 46 48 51 52 53 55 56 58 60 61 62 64 66 67 66 66 66 65 66 66 67 65 66 68 70 70
22 22 24 26 27 26 23 22 31 25 25 29 38 42 47 47 46 46 45 47 47 47 50 52 54 55 57 59 60 61 62 64 66 66 65 65 66 66 67 67 66 66 66 68
27 26 25 27 31 30 27 25 27 40 43 43 44 42 46 45 44 44 45 45 44 45 47 49 51 52 54 56 58 59 60 60 61 62 62 64 64 63 64 66 66 65 66 67
29 26 24 25 29 33 30 26 31 39 45 44 39 42 44 43 43 42 43 44 45 45 46 47 49 50 52 53 53 54 56 57 57 58 59 60 60 60 59 59 59 63 64 64
22 29 27 24 26 26 31 31 36 41 44 45 45 44 44 43 42 42 42 44 44 45 46 47 48 49 51 53 54 55 55 55 55 55 56 57 57 57 58 59 58 58 59 58
24 25 27 21 23 26 26 25 25 29 40 44 43 43 43 42 42 41 42 43 43 44 46 45 46 48 50 51 50 49 49 49 49 50 50 51 51 52 51 51 53 55 55 57
27 25 22 29 23 15 25 28 30 31 29 44 44 43 42 41 39 40 42 42 44 45 44 45 46 47 47 47 47 46 47 47 47 48 48 48 48 49 48 48 49 51 53 53
27 25 21 28 24 29 33 33 34 27 27 43 44 43 42 40 39 41 42 42 43 44 44 45 45 46 46 46 46 45 45 45 45 45 45 45 45 46 46 47 48 48 49 50
29 24 25 26 24 22 36 33 25 31 38 40 43 42 41 39 40 41 41 41 42 43 44 44 44 44 44 45 45 44 43 43 43 42 42 42 42 42 42 43 44 45 45 45
28 32 30 31 29 35 39 36 38 37 38 40 40 40 40 40 41 40 40 41 42 43 44 45 45 44 44 44 43 42 42 42 41 41 41 41 41 40 41 41 41 42 43 43
31 35 31 34 38 36 37 36 35 37 37 41 41 41 42 40 40 39 39 41 41 42 43 44 43 42 43 43 42 42 42 41 40 40 40 40 39 39 40 40 41 41 41 42
33 32 30 30 34 35 38 37 36 35 38 39 40 40 40 39 38 38 39 40 40 40 42 43 41 42 42 42 41 41 41 40 39 39 39 39 39 39 39 39 40 40 41 41
36 33 32 31 32 33 33 38 37 36 36 37 37 36 38 38 38 39 40 40 40 40 41 41 41 42 41 42 41 41 41 40 39 39 39 39 39 39 39 39 39 40 40 40

GFSCGP_sfc_30mbdewp_090.txt.gz
Dewpoint
31 34 33 31 28 30 33 38 34 47 56 56 55 55 56 58 58 56 57 58 58 59 61 61 63 65 66 66 66 66 66 65 67 67 67 67 66 68 68 69 68 69 70 70
30 33 32 33 29 29 29 28 49 55 57 55 54 54 55 58 59 55 54 55 56 58 59 62 63 65 65 65 66 66 65 66 67 67 67 66 66 67 68 69 68 68 69 70
31 29 29 27 27 26 27 27 32 48 55 56 52 53 55 57 59 60 58 54 54 55 59 62 63 64 65 65 65 66 65 66 66 67 68 68 68 67 67 68 68 69 70 69
29 30 28 28 27 27 24 26 31 51 49 44 53 43 52 55 56 58 60 57 54 55 60 62 63 63 64 65 65 66 66 66 66 67 67 66 65 65 65 67 68 69 70 69
28 26 27 26 26 27 26 25 25 50 46 47 49 42 40 54 54 56 58 60 55 55 60 62 62 63 64 64 65 65 66 65 66 68 67 66 65 66 67 67 66 68 70 70
26 24 24 24 25 27 25 23 35 42 43 40 43 44 39 51 52 54 57 59 58 55 58 62 63 64 64 64 65 65 65 64 65 67 67 66 65 66 66 67 66 67 70 70
24 24 24 22 21 20 22 19 23 33 36 32 40 44 39 53 56 55 55 58 59 56 57 61 62 63 63 63 65 66 65 64 65 66 67 66 66 67 66 66 66 66 68 69
21 18 23 22 23 19 19 18 21 27 33 33 43 38 41 54 57 59 58 59 59 60 58 60 62 63 63 63 65 66 65 65 65 67 67 67 67 66 66 67 67 68 68 69
23 21 26 23 19 20 22 16 20 25 26 32 41 46 51 54 55 58 59 59 61 62 61 60 62 63 64 64 64 66 66 65 66 67 68 68 68 66 65 65 67 68 69 69
23 20 24 25 21 23 22 25 22 25 23 23 42 43 39 52 53 55 56 57 59 60 62 64 63 63 64 65 65 66 66 66 66 66 67 68 68 67 66 66 65 67 68 69
24 22 21 26 24 19 25 27 27 27 27 28 34 38 51 51 53 54 54 56 57 59 60 61 62 66 65 65 66 67 68 68 67 68 67 67 68 68 68 67 67 67 67 66
25 19 22 23 25 24 22 22 29 24 29 36 36 34 50 51 52 53 54 55 56 58 58 60 61 63 66 66 67 67 68 67 68 68 68 68 69 69 69 69 69 69 68 69
24 21 21 21 24 24 22 23 23 30 37 36 29 30 50 50 50 51 51 54 55 56 57 58 60 61 63 66 67 67 67 67 67 67 66 66 66 67 68 69 69 70 70 70
25 23 23 21 22 24 22 26 30 21 24 30 31 37 49 49 49 48 48 51 53 54 56 57 58 60 61 63 65 66 66 66 67 66 66 66 66 66 65 65 65 66 69 70
25 25 26 26 26 27 28 27 34 37 22 28 30 37 46 49 47 47 48 49 50 51 53 55 56 58 59 60 62 63 64 65 67 66 66 66 65 66 67 66 66 66 66 67
29 27 26 27 30 32 30 29 36 43 43 42 43 41 47 48 46 46 47 46 47 48 50 52 53 56 57 58 60 61 61 62 63 63 63 65 64 63 64 64 64 65 65 65
28 26 25 24 29 32 27 28 35 41 44 44 39 42 46 45 46 45 45 45 46 47 48 49 50 52 53 54 56 57 58 59 59 59 60 60 61 60 60 60 60 61 60 61
27 27 27 25 28 28 31 31 37 38 43 44 44 45 44 44 43 44 45 45 46 46 47 49 49 52 54 54 53 53 53 53 53 52 53 54 55 55 56 56 56 56 58 58
26 27 26 20 23 25 26 26 27 29 35 44 43 43 43 42 41 41 43 45 45 47 46 47 50 51 50 49 49 48 49 48 48 48 48 49 51 49 49 49 50 52 52 55
26 26 25 27 19 18 22 31 35 32 26 44 44 43 42 41 41 40 43 44 46 45 47 48 48 48 47 47 47 46 46 46 45 45 45 46 47 46 47 48 49 51 52 53
23 24 21 27 22 26 32 34 35 26 28 44 44 43 42 41 42 42 43 44 45 45 46 46 46 46 46 46 45 44 43 43 43 43 43 43 43 43 44 45 46 46 47 48
24 21 22 26 23 18 35 32 25 30 37 39 45 44 42 40 42 42 43 44 44 44 45 45 44 44 45 45 43 42 41 42 42 42 41 41 41 41 42 42 43 44 44 44
29 31 29 27 24 32 36 36 38 37 38 40 43 43 42 41 42 42 43 43 44 44 44 44 43 44 44 43 42 41 41 41 41 40 40 40 40 41 41 41 41 41 43 42
32 35 32 34 36 37 37 36 36 37 38 41 41 42 43 43 42 42 43 43 43 44 44 44 43 43 43 42 42 41 41 40 40 39 39 39 39 39 40 40 40 40 40 40
32 33 30 31 32 36 35 37 36 35 39 41 42 42 43 43 42 43 42 42 43 43 44 43 42 42 42 41 41 41 40 39 39 39 39 39 39 39 39 39 39 40 40 40
35 32 30 29 32 34 33 37 37 36 38 40 41 41 42 42 42 41 41 42 42 42 43 42 42 42 41 41 41 41 40 39 38 39 39 39 38 39 39 39 38 39 40 40

GFSCGP_sfc_30mbdewp_093.txt.gz
Dewpoint
33 39 41 36 30 32 47 46 45 47 55 54 53 56 58 59 58 58 57 58 59 60 60 62 63 64 65 66 67 67 68 69 68 68 68 68 67 70 70 69 71 71 72 70
34 37 38 35 30 29 33 39 37 53 55 55 55 55 57 58 57 57 57 58 58 59 60 60 62 63 64 66 67 68 68 69 69 69 68 68 69 68 69 70 70 71 71 72
28 34 33 33 30 28 28 29 48 47 54 54 52 51 53 57 59 57 58 57 58 58 59 61 61 63 64 65 67 68 68 69 68 69 69 69 69 69 69 70 69 69 71 70
34 30 31 27 29 28 27 28 38 52 48 45 51 43 49 54 57 58 56 56 56 58 59 60 61 62 63 64 67 68 68 68 68 70 68 68 66 66 66 68 69 70 71 70
28 29 29 28 27 28 29 26 33 50 47 47 47 43 45 54 54 57 58 56 54 55 58 60 61 62 63 64 66 67 68 68 67 69 69 67 67 67 68 68 70 71 72 71
28 27 28 27 28 29 29 33 39 45 43 35 44 42 39 51 53 54 57 59 58 55 57 60 62 63 64 64 65 66 68 68 69 69 69 69 68 66 68 68 68 68 70 71
26 25 24 24 22 26 24 21 28 29 32 23 40 44 39 51 55 55 55 58 60 56 57 61 62 63 64 64 65 65 67 68 68 68 69 69 69 69 66 67 68 67 69 70
22 22 25 24 23 21 24 22 24 25 29 30 42 35 39 54 57 59 59 56 59 58 57 59 62 64 64 64 65 65 65 67 68 67 68 69 70 68 68 68 69 68 69 70
21 20 25 23 24 22 22 18 24 29 31 29 38 44 51 55 57 59 57 57 59 59 58 59 62 64 64 64 65 65 66 67 67 67 67 68 69 69 68 70 70 70 71 69
26 20 25 26 21 24 23 22 20 22 25 25 39 41 39 51 55 57 58 59 61 61 60 62 62 63 64 65 65 67 67 67 68 67 68 67 68 69 70 69 68 69 70 71
25 24 24 28 25 21 24 23 26 25 27 23 27 35 51 52 55 56 57 59 59 61 62 63 64 65 65 66 66 66 68 67 68 68 68 68 68 68 70 69 70 70 70 70
25 23 23 23 24 25 24 28 29 18 29 37 32 33 51 53 55 56 57 58 59 60 61 62 64 65 65 65 66 66 68 69 69 68 67 67 69 68 69 70 70 71 70 70
26 24 22 21 23 27 29 27 29 33 36 34 23 29 51 52 54 55 55 57 57 58 59 60 62 64 66 65 66 67 68 68 68 68 67 67 68 69 70 71 71 71 71 71
28 26 26 21 24 26 30 33 25 25 21 32 29 38 49 51 52 52 52 55 56 57 58 59 60 61 63 66 67 67 68 68 68 67 67 67 67 68 68 68 69 70 71 71
29 26 27 28 28 28 30 37 38 24 26 26 32 34 45 51 52 52 53 53 53 55 56 58 58 59 61 62 65 66 67 67 67 66 66 66 67 68 68 68 68 68 68 69
31 28 29 29 30 32 26 33 41 41 41 41 42 40 46 51 50 49 52 52 52 54 55 55 57 58 59 60 61 62 63 64 67 67 66 66 66 65 64 66 67 66 66 67
31 28 31 28 30 31 28 29 32 37 42 42 35 43 49 48 49 50 51 52 51 52 53 53 54 55 56 58 59 59 60 61 61 61 62 62 63 63 62 62 62 62 63 63
31 31 30 27 31 23 30 32 35 36 41 44 45 46 48 49 49 49 49 50 50 51 51 52 54 55 55 55 54 54 55 55 55 54 55 55 57 57 58 58 58 59 60 61
31 31 27 28 26 26 27 28 29 30 32 44 45 46 46 46 47 46 47 48 49 50 51 52 53 53 51 51 51 50 49 49 50 49 50 51 51 51 51 53 53 55 56 58
28 32 27 28 21 20 26 31 34 33 27 44 45 46 45 45 46 46 46 47 48 48 50 51 51 50 49 48 48 47 47 46 45 46 47 48 47 49 49 51 52 54 56 57
26 27 25 28 23 24 32 34 36 28 30 42 46 46 45 45 46 46 46 47 48 49 50 50 50 48 47 47 47 45 44 44 45 45 45 46 45 45 47 48 49 50 50 51
26 27 28 28 25 20 36 34 29 35 39 41 46 46 45 44 45 45 46 47 48 49 49 50 49 48 48 47 46 45 44 44 45 44 44 44 45 42 44 46 47 47 47 47
33 33 35 30 30 37 39 39 40 40 40 41 44 47 46 44 45 45 46 47 47 47 47 46 46 46 46 46 45 44 44 44 44 43 43 43 43 43 43 43 44 42 43 42
34 37 37 36 38 39 40 39 38 40 39 42 43 46 45 45 44 45 46 46 46 46 46 45 45 44 45 45 44 44 43 43 42 42 42 42 41 41 41 39 39 39 39 39
34 36 35 35 34 38 39 40 39 38 41 43 44 45 45 45 45 46 46 46 46 46 45 45 45 44 44 44 43 42 42 41 40 41 40 40 40 40 39 39 39 39 40 40
35 35 34 33 36 37 38 41 41 39 39 43 43 44 45 46 46 47 47 47 46 45 46 45 45 45 44 43 43 42 41 40 38 38 38 38 37 37 37 36 37 39 40 39

GFSCGP_sfc_30mbdewp_096.txt.gz
Dewpoint
27 38 42 38 35 34 48 49 47 50 56 57 56 56 59 61 61 54 52 53 53 54 56 58 59 60 61 62 64 66 66 69 69 68 65 65 64 66 65 66 70 70 69 69
25 31 40 41 33 34 42 46 45 50 54 53 56 56 59 61 60 57 52 52 52 54 55 58 59 60 61 63 63 65 67 69 69 68 66 65 65 65 66 67 69 69 69 70
19 23 39 38 31 32 36 40 41 48 53 53 53 52 54 57 60 59 55 52 53 56 55 57 59 59 61 63 65 66 67 69 69 67 68 69 68 68 68 68 68 68 69 69
16 26 35 37 37 32 32 32 44 50 47 46 50 43 49 53 57 58 56 54 54 56 56 57 59 60 60 62 65 66 68 69 69 70 66 67 67 66 67 66 66 68 69 68
20 26 32 32 36 35 31 29 37 42 44 47 49 43 47 53 52 56 57 54 53 54 55 56 58 59 60 61 64 66 68 69 67 69 67 66 64 67 64 66 69 68 69 69
24 30 29 29 33 35 30 29 34 40 41 39 41 39 42 46 49 50 56 56 54 53 54 56 58 59 61 61 63 65 68 69 69 69 69 68 67 65 67 67 66 66 67 69
23 27 27 29 30 32 32 30 28 29 30 28 40 38 38 44 53 51 56 57 56 54 54 55 58 59 61 62 63 64 67 68 68 69 68 68 68 67 66 66 68 65 67 67
20 19 25 26 24 28 32 29 28 28 28 27 35 37 38 48 53 55 55 57 57 57 54 55 61 62 64 63 63 67 67 68 68 68 69 69 69 65 67 66 66 69 67 66
17 18 23 23 23 22 27 28 30 27 30 27 32 34 49 52 54 55 56 56 55 58 56 56 59 61 64 65 65 66 65 66 68 67 68 69 69 69 65 68 67 69 69 67
23 17 20 21 21 22 20 25 27 26 25 23 28 31 31 50 52 57 55 55 55 58 59 58 59 62 65 66 66 65 66 67 68 67 67 68 66 66 66 67 68 68 68 71
25 21 19 20 19 16 20 19 18 24 24 21 22 29 46 48 53 57 58 60 61 59 60 61 62 63 64 66 67 67 67 67 68 69 69 68 67 66 66 66 67 67 69 70
26 22 22 18 23 24 18 17 19 15 23 23 24 32 50 52 55 57 58 59 61 62 63 64 64 65 66 66 66 66 67 67 68 69 69 68 67 67 66 66 67 68 68 70
27 23 22 22 23 25 20 20 21 19 17 24 23 25 51 54 56 57 58 59 60 61 62 63 64 64 65 65 66 67 68 67 69 70 69 68 67 67 67 67 67 68 69 68
27 24 24 18 17 20 25 26 22 21 17 18 22 31 49 52 54 55 57 58 58 59 60 61 62 65 66 65 66 66 68 69 69 69 68 67 67 67 69 68 68 68 69 69
31 26 25 26 25 25 25 24 21 21 18 18 21 25 43 51 53 55 56 57 57 58 59 60 60 61 63 66 67 67 68 68 69 68 67 68 68 69 68 69 69 69 69 69
31 29 29 28 28 25 29 32 29 25 26 23 28 28 44 51 54 55 55 55 56 57 58 59 59 60 60 61 64 67 68 68 68 68 67 67 68 68 68 68 68 68 68 68
31 30 29 25 28 28 24 28 29 33 34 32 24 41 47 50 52 53 54 55 55 56 57 58 58 58 59 59 61 61 62 64 65 65 65 65 66 66 65 64 65 66 66 66
30 33 29 25 28 24 30 31 32 33 35 37 40 43 47 49 52 53 54 55 55 55 55 56 56 57 57 56 56 58 58 59 59 59 59 60 62 62 63 62 62 63 63 64
32 30 27 25 26 27 29 31 30 28 31 38 42 46 48 51 51 51 52 54 54 55 56 55 56 55 55 54 54 52 53 54 54 55 54 54 54 55 58 59 60 61 61 62
27 30 25 22 22 21 29 30 32 32 27 38 42 46 47 49 46 47 51 52 52 53 54 55 54 52 51 50 50 49 49 48 48 50 50 50 52 52 53 54 55 57 58 60
25 26 24 22 20 22 31 32 33 27 32 40 45 46 46 46 49 50 50 50 51 52 53 53 52 51 50 48 48 46 46 46 46 47 48 48 48 50 51 52 52 54 55 57
26 25 24 25 23 23 34 33 30 38 38 39 44 47 47 48 47 48 49 49 50 51 52 52 50 48 48 49 48 47 46 46 47 47 47 47 47 43 47 50 50 51 52 52
33 28 32 26 28 38 40 38 39 38 38 39 43 45 47 46 47 48 49 49 49 50 51 51 50 50 49 48 48 47 46 46 46 45 45 45 45 45 47 47 47 45 47 44
35 37 34 32 32 35 38 39 38 39 37 38 42 45 46 46 47 47 48 48 49 50 49 48 48 47 47 47 47 47 47 46 45 45 45 45 44 44 43 39 40 39 39 39
30 35 31 31 34 38 39 39 37 37 38 37 41 45 46 47 47 47 47 48 48 48 48 47 47 46 46 47 46 44 44 44 42 42 41 42 40 41 41 40 41 39 41 41
34 29 30 28 31 31 32 36 40 38 37 38 39 42 45 47 47 48 47 48 48 48 48 48 47 46 46 46 45 44 43 42 40 39 38 36 36 37 36 38 36 39 39 37

GFSCGP_sfc_30mbdewp_099.txt.gz
Dewpoint
20 33 39 39 40 49 51 52 52 54 56 54 55 54 58 59 57 57 50 50 50 50 52 54 55 56 58 61 62 62 66 66 68 67 63 65 65 64 64 69 67 68 67 68
19 25 34 40 37 36 43 49 50 55 55 52 55 55 58 59 56 58 56 50 50 51 54 55 55 55 56 59 62 63 66 69 69 67 68 68 66 66 66 68 67 67 67 68
16 17 26 37 38 33 35 47 48 51 55 54 54 54 56 59 58 59 60 54 50 50 52 54 55 54 57 60 61 63 64 69 68 69 68 68 68 68 66 68 67 67 67 68
17 17 21 39 38 33 32 49 52 54 49 50 54 46 53 56 56 59 57 54 50 52 53 53 55 55 55 60 63 64 65 67 68 66 68 66 67 65 66 68 68 69 68 67
13 14 20 32 34 35 34 36 53 54 47 47 49 43 49 53 54 56 57 54 53 53 53 57 54 55 55 59 62 64 66 66 67 67 69 66 65 66 65 68 68 69 68 67
12 19 21 27 29 35 36 31 32 44 44 43 42 40 45 48 52 55 57 57 55 55 56 58 53 56 57 59 63 63 67 67 67 68 68 67 67 66 67 66 67 65 68 67
16 23 24 26 24 32 36 30 29 30 41 34 40 38 40 47 52 56 56 58 55 55 52 55 54 57 59 60 62 64 67 68 68 68 67 66 67 68 67 67 64 67 68 69
10 14 24 23 25 27 33 30 29 28 28 32 41 36 40 43 47 48 54 56 56 54 56 53 56 58 59 61 60 63 67 68 68 67 67 67 67 65 64 66 67 64 67 64
12 13 21 23 24 24 26 31 31 31 30 35 35 43 47 43 45 50 53 52 56 55 56 55 55 59 64 62 62 64 68 68 67 67 67 69 69 68 67 68 68 67 68 70
22 16 19 20 20 20 20 26 29 27 27 29 33 34 34 48 50 50 51 53 55 56 55 55 60 61 63 64 68 67 67 67 68 67 67 68 68 68 66 67 67 68 68 71
25 21 18 19 19 17 18 19 25 26 23 22 29 33 40 47 50 53 53 54 54 56 57 58 58 61 64 66 67 67 69 68 68 69 68 68 66 67 67 66 65 66 67 69
25 23 18 17 17 17 16 15 18 20 25 22 22 38 46 50 52 55 58 61 62 62 60 60 60 64 65 67 66 66 67 66 67 69 69 69 67 66 67 66 66 66 68 68
26 20 19 22 16 16 14 17 14 14 15 17 18 35 47 53 55 56 58 59 61 63 64 64 64 65 66 67 65 65 67 67 67 67 69 69 68 68 69 68 67 66 66 69
29 23 19 22 21 18 16 17 14 13 13 12 22 42 47 51 54 57 59 60 60 61 62 63 64 65 66 66 67 67 67 67 69 70 68 68 68 68 68 68 68 69 68 67
27 24 24 23 28 23 16 13 17 17 18 17 16 29 43 50 53 55 58 58 58 60 61 62 63 64 66 67 66 66 66 68 69 68 67 68 68 69 68 67 69 69 70 68
32 31 30 24 28 22 19 20 20 17 16 16 22 34 46 50 55 55 57 58 58 58 60 61 61 62 62 65 68 67 68 67 67 68 68 68 68 69 69 68 68 69 69 69
33 38 32 30 24 26 23 25 23 21 20 19 23 39 42 48 52 54 56 56 57 58 58 59 61 61 61 61 63 65 68 68 68 68 68 68 68 67 67 68 68 67 67 68
33 40 37 33 34 21 30 31 30 30 31 31 36 41 44 47 51 53 55 56 56 57 58 59 59 59 58 57 59 60 61 64 65 65 64 65 65 65 66 66 65 63 65 66
31 31 34 32 34 33 31 32 30 28 31 35 39 41 45 48 51 53 54 55 56 56 58 58 58 57 56 55 55 56 56 56 56 60 59 60 61 62 62 62 64 64 65 65
24 30 32 26 30 26 37 31 32 31 30 36 38 42 46 48 44 50 53 54 55 56 57 57 57 55 54 54 53 52 52 53 52 52 52 56 55 56 58 60 60 61 62 63
24 26 23 23 21 37 37 30 31 24 34 39 39 42 45 47 52 52 53 53 54 55 56 55 54 52 50 50 50 49 48 47 48 49 51 51 52 53 54 54 55 56 58 61
28 29 24 25 32 25 32 29 27 39 38 40 43 44 45 48 48 51 52 52 53 54 54 54 53 52 50 49 48 47 47 48 48 49 49 49 49 45 50 53 53 54 55 56
29 28 31 27 35 38 36 40 39 38 39 39 40 43 45 46 48 50 51 52 52 53 52 51 50 50 49 50 50 48 47 48 47 48 47 47 47 48 50 50 49 47 50 51
28 37 31 32 32 32 34 35 36 37 37 37 39 41 43 44 47 50 51 51 51 52 51 51 51 50 50 50 50 48 49 48 49 48 47 48 47 47 46 46 43 41 41 41
26 34 29 31 34 35 36 36 36 36 35 34 38 41 42 45 46 48 50 50 51 51 50 50 49 48 48 48 49 48 48 47 46 46 45 45 43 44 44 44 43 42 42 40
29 28 26 26 31 34 32 36 37 36 35 36 36 39 44 46 47 48 49 50 50 50 49 49 48 48 48 48 48 46 45 45 43 42 40 38 36 40 39 40 38 37 36 35

GFSCGP_sfc_30mbdewp_102.txt.gz
Dewpoint
22 21 33 41 42 43 49 54 53 54 56 54 55 56 57 59 57 56 50 49 50 50 50 52 56 58 60 61 63 65 65 68 66 68 66 66 65 67 69 68 70 70 69 68
18 16 24 37 42 53 51 50 52 53 52 57 54 55 57 57 58 58 58 55 50 49 50 53 56 57 58 61 64 68 69 70 70 69 69 68 67 69 70 70 69 68 68 70
15 15 20 29 36 43 47 47 50 48 51 54 54 53 56 58 59 58 58 59 60 52 52 54 55 55 58 62 64 66 67 71 71 69 68 69 68 68 68 68 69 69 68 68
10 15 15 22 29 41 48 51 51 51 47 45 53 46 54 55 55 56 57 58 59 55 55 55 55 55 57 61 63 68 69 70 69 69 68 67 66 64 67 68 70 69 70 69
7 12 15 16 26 39 41 50 50 51 49 49 50 46 50 56 54 56 56 57 59 57 54 54 54 55 58 60 61 65 69 71 69 69 68 69 66 66 69 69 70 70 70 69
9 12 14 14 25 33 40 44 50 50 49 45 46 45 50 53 54 56 55 57 60 57 51 57 56 56 60 61 63 66 69 70 70 69 70 68 67 67 67 67 67 68 69 70
10 10 17 18 20 27 37 35 38 41 43 40 49 43 49 53 52 55 55 58 60 59 56 55 58 57 60 62 63 67 69 69 70 69 68 68 69 69 68 69 67 68 67 67
12 8 19 21 22 22 30 36 30 35 37 42 49 41 46 51 51 54 56 57 60 60 60 56 59 61 61 64 66 67 69 70 70 69 69 69 70 69 68 69 68 66 69 68
15 12 12 19 21 22 25 27 31 31 37 37 44 47 49 47 49 52 53 57 56 57 61 61 60 61 63 63 67 66 69 69 70 69 70 69 69 69 68 69 70 69 70 68
21 22 18 19 21 22 23 25 24 35 31 32 38 42 43 46 48 51 53 54 54 56 60 58 61 62 58 60 66 69 69 69 69 68 70 70 70 71 69 69 69 69 69 65
21 24 23 18 19 17 17 18 21 23 30 30 32 40 50 46 46 48 51 54 56 59 60 63 59 65 60 60 67 70 69 69 69 68 69 69 69 69 69 69 68 68 69 65
26 23 22 21 19 19 16 15 17 20 22 25 26 37 47 51 52 51 53 53 61 56 61 62 63 66 65 66 68 69 68 68 69 70 70 69 69 70 67 67 68 68 68 70
29 25 21 22 22 17 16 15 14 13 18 21 22 43 53 49 55 58 59 62 64 64 62 64 65 66 67 67 67 69 68 69 68 69 68 67 69 68 69 69 67 71 69 69
29 25 23 19 26 27 15 14 13 13 11 12 15 39 51 53 55 56 59 61 63 64 65 65 66 67 68 68 67 66 66 67 68 67 67 67 69 69 69 69 69 68 69 68
25 25 25 23 25 26 25 16 14 16 12 13 22 37 42 49 54 56 59 60 61 61 63 64 65 67 68 68 67 67 67 68 68 69 68 68 69 68 68 68 68 68 67 69
28 27 32 31 28 28 25 24 15 13 13 15 30 44 52 55 60 57 58 58 59 60 61 63 63 64 64 67 68 68 67 67 68 69 68 68 69 69 69 69 67 67 67 68
32 35 37 33 37 30 24 28 28 15 17 19 41 47 46 47 48 57 57 59 60 61 61 62 62 62 62 62 66 66 69 68 68 69 69 68 68 68 69 69 68 68 67 68
32 39 39 38 37 28 36 33 32 35 22 41 42 48 49 52 56 56 57 58 58 59 60 61 61 60 59 59 60 61 63 67 67 67 68 68 68 67 67 66 66 66 66 66
31 39 37 38 36 38 34 38 33 37 38 37 39 41 50 58 53 53 55 57 57 58 60 60 59 58 57 56 58 58 58 58 60 60 61 63 64 64 64 64 65 65 66 65
34 41 40 37 35 31 41 41 40 38 39 46 41 42 45 46 45 52 55 57 57 58 58 57 57 56 55 54 55 55 55 55 54 53 55 58 59 61 61 61 61 63 64 65
34 36 31 32 38 38 43 43 37 28 39 39 40 43 49 52 52 54 56 57 57 57 57 56 54 53 52 52 52 51 51 51 52 53 52 52 54 56 57 57 58 59 61 63
32 29 27 30 36 34 39 38 31 44 39 41 42 44 48 49 52 53 54 55 56 56 56 55 53 52 51 51 51 50 49 49 50 50 51 51 51 52 52 55 56 56 57 59
29 32 33 34 41 44 41 41 40 41 40 40 41 43 47 46 49 51 52 54 54 54 54 54 53 51 50 50 49 48 49 50 48 49 49 48 49 49 52 52 51 52 53 53
30 34 32 32 40 36 35 36 36 37 38 37 39 41 43 45 47 50 52 52 53 53 52 52 51 51 51 52 52 48 50 50 50 49 49 47 48 47 48 51 52 50 47 46
30 34 28 30 34 34 35 34 36 36 35 34 37 40 42 44 46 49 51 53 53 53 53 52 52 51 51 51 50 50 51 51 49 49 48 49 49 47 49 41 39 43 37 37
26 27 27 26 34 37 35 36 37 36 35 35 35 38 43 44 45 47 51 53 53 53 52 53 52 51 51 52 52 52 51 50 49 47 46 44 44 44 46 45 40 35 34 33

GFSCGP_sfc_30mbdewp_108.txt.gz
Dewpoint
24 25 25 26 27 29 46 51 51 54 55 53 54 54 58 57 54 53 51 50 52 54 54 60 63 63 64 64 64 64 65 67 66 67 67 64 66 68 68 70 70 68 69 70
23 24 25 27 27 35 51 51 51 52 55 51 51 52 54 58 58 58 55 51 51 54 55 60 61 62 63 63 64 65 65 66 66 67 68 68 67 69 68 69 70 70 68 69
20 21 22 23 25 49 49 48 50 49 52 54 52 50 52 57 59 58 58 58 56 53 57 59 58 59 62 64 66 66 65 67 69 69 68 68 69 69 67 69 69 69 71 70
15 16 17 18 23 48 46 51 50 50 48 44 52 44 53 56 56 57 57 58 58 56 58 59 59 59 63 64 66 66 67 68 69 68 67 66 65 65 67 67 68 68 66 70
17 15 10 12 15 46 50 51 50 50 48 49 49 45 51 56 54 55 55 57 58 59 58 58 59 59 63 65 66 67 68 68 69 68 67 66 66 65 68 68 67 66 66 70
22 23 16 11 37 50 51 50 49 48 47 42 45 45 47 52 53 54 55 57 57 58 57 59 59 60 61 64 67 68 67 67 69 68 68 67 66 66 67 67 67 67 68 69
21 21 32 51 50 50 50 45 40 39 39 38 48 46 45 52 53 53 53 57 58 59 60 58 58 60 61 63 66 67 67 67 68 68 68 67 68 67 66 66 67 68 68 67
18 17 15 45 48 47 47 40 37 32 37 41 49 45 45 52 52 53 53 56 58 59 60 59 58 61 62 65 65 66 67 66 69 68 67 67 69 68 67 67 67 68 67 67
18 20 21 21 45 47 46 38 40 40 43 41 45 48 49 50 54 53 54 55 57 59 60 60 60 62 63 65 67 67 67 67 69 68 67 68 68 69 69 69 69 68 68 69
22 17 19 24 25 42 40 39 35 38 36 37 42 43 42 44 49 54 56 55 57 59 60 61 62 64 66 66 67 70 69 68 69 69 69 68 69 69 69 70 69 69 69 69
29 21 22 26 24 21 21 26 29 34 37 36 39 40 45 42 46 54 55 56 57 57 58 62 65 67 67 66 67 67 68 69 69 69 70 68 70 70 70 68 68 68 67 66
29 27 24 24 27 25 20 19 24 22 22 35 37 36 46 47 48 52 54 55 55 56 58 63 64 64 64 64 63 63 66 68 69 70 70 70 70 69 69 69 69 68 67 66
28 25 24 24 27 28 26 26 20 19 21 22 27 36 47 54 51 50 52 55 56 56 60 63 64 63 63 62 61 63 66 66 69 70 69 70 69 67 69 68 68 69 69 69
30 26 26 24 26 30 28 29 30 17 15 15 20 31 48 50 54 56 55 57 60 58 60 62 64 64 64 64 64 65 66 67 69 69 69 69 67 67 69 69 68 67 69 68
29 23 26 26 38 37 36 37 37 34 29 16 22 39 50 52 59 61 62 62 61 58 60 61 64 64 64 65 67 66 68 69 69 68 67 67 68 69 68 68 68 68 67 67
34 30 36 37 35 37 36 39 42 44 43 50 49 47 57 59 60 60 61 61 61 60 61 63 64 64 65 65 65 67 68 68 67 66 66 66 67 66 66 66 67 67 67 67
38 36 35 34 37 36 35 39 43 44 46 47 45 49 56 56 57 58 60 62 63 63 64 63 64 65 66 66 66 63 67 68 67 66 67 68 67 67 67 68 68 67 66 67
38 35 38 32 34 29 39 44 41 43 45 51 53 53 53 51 54 59 61 61 61 62 61 61 60 60 61 62 64 66 68 68 67 67 67 68 68 68 67 67 66 65 66 66
37 36 37 31 33 38 39 39 40 40 41 51 53 54 55 56 59 59 61 61 61 61 60 60 59 59 59 60 61 63 65 65 66 67 68 67 67 66 65 65 65 65 65 63
37 40 35 37 31 29 38 41 44 44 38 49 53 53 55 56 53 55 59 59 58 58 58 57 57 57 58 58 59 60 59 61 61 61 63 64 64 63 62 62 61 62 66 64
35 36 33 38 34 35 42 40 43 36 38 50 52 52 56 54 56 58 59 57 57 56 56 56 55 55 55 57 57 58 57 57 57 57 58 59 60 60 59 59 59 62 63 60
37 35 38 35 33 29 41 42 36 41 50 52 52 52 54 52 52 57 58 56 55 54 54 54 53 53 53 54 55 55 55 55 55 55 56 56 56 56 56 56 57 59 62 60
36 39 38 41 35 39 43 43 46 45 53 52 54 56 53 51 54 59 57 56 55 54 53 53 52 52 52 52 51 51 51 50 51 50 50 51 51 52 53 52 52 53 56 59
38 40 39 37 38 41 43 40 40 40 40 46 52 57 59 58 58 57 56 55 54 53 52 51 51 50 50 50 50 49 49 49 48 46 47 47 48 47 44 46 46 45 45 47
33 32 37 39 39 42 39 37 35 37 39 43 46 52 57 57 56 56 55 55 55 53 52 52 52 52 51 51 48 49 49 48 47 46 45 45 45 42 40 40 40 37 36 39
34 29 34 35 39 36 37 38 36 35 38 42 42 45 53 56 55 55 54 54 54 53 53 53 52 51 51 51 47 48 48 50 50 48 48 48 48 47 39 37 35 34 33 32

GFSCGP_sfc_30mbdewp_111.txt.gz
Dewpoint
24 22 22 26 27 30 48 51 50 53 57 54 53 54 56 58 56 52 52 52 54 57 60 62 63 62 63 63 63 64 67 67 67 66 65 66 66 67 68 70 70 70 69 70
23 23 25 27 27 32 49 50 50 53 55 54 53 53 55 57 58 58 52 52 53 54 60 62 62 62 63 63 63 64 66 66 66 67 66 67 68 68 68 69 69 70 69 70
21 22 23 24 27 47 50 48 48 48 53 53 52 50 54 57 59 59 58 54 54 54 59 62 62 62 63 62 64 64 66 65 66 68 68 68 69 68 68 68 69 69 70 70
19 18 18 18 21 46 44 51 51 50 48 44 52 44 52 54 55 57 58 57 54 54 59 61 61 62 62 63 65 65 66 66 68 68 66 66 65 65 66 67 68 68 67 70
19 20 19 16 15 47 47 52 50 49 47 48 49 45 49 55 52 53 57 58 56 55 59 60 59 61 62 64 65 65 67 68 68 67 66 65 65 65 67 67 67 67 66 69
21 23 22 23 42 42 51 50 50 48 47 41 46 45 44 52 52 52 57 58 58 57 58 59 58 60 62 64 66 66 66 68 68 67 67 66 65 65 67 66 66 66 67 68
21 24 50 50 49 50 48 45 37 36 37 38 47 45 43 50 54 55 56 57 58 59 58 58 59 59 63 64 66 66 66 66 68 67 67 67 66 66 66 66 66 67 67 67
18 15 46 49 48 46 47 40 32 28 35 40 49 43 45 52 55 58 58 58 59 60 58 59 59 59 62 64 66 66 66 66 68 67 67 68 67 67 67 67 66 67 68 67
19 19 22 46 48 46 46 41 40 40 43 39 44 46 48 50 49 53 55 54 58 59 61 59 59 61 62 63 65 66 66 66 68 67 67 67 68 68 67 68 67 67 69 68
25 21 20 22 44 47 42 42 37 39 35 36 40 42 41 48 50 53 53 54 57 59 61 60 60 61 63 65 65 66 67 66 67 68 67 67 67 68 68 69 68 68 68 69
28 21 20 25 25 34 31 36 31 36 38 36 36 35 44 41 46 52 53 54 57 59 60 61 62 64 64 66 67 67 67 67 67 69 68 68 68 69 69 69 68 68 69 68
28 27 24 23 26 28 27 25 29 26 25 38 38 33 50 46 47 53 56 55 56 58 60 62 63 66 65 66 67 67 68 69 69 69 69 69 69 70 69 69 68 68 67 66
28 24 23 23 27 32 28 33 25 21 23 25 30 24 52 50 50 54 56 57 57 58 61 63 64 65 65 66 66 66 66 67 69 69 68 69 69 69 69 69 69 69 68 67
30 26 25 25 28 33 35 40 37 18 15 15 22 18 42 50 52 52 55 56 57 60 60 61 63 64 64 64 64 63 64 66 68 69 68 67 68 68 68 69 68 68 69 68
30 24 27 28 38 38 40 42 43 38 41 18 18 18 40 53 55 55 57 58 58 60 61 61 62 63 63 64 65 65 66 66 67 68 66 66 69 70 69 69 68 68 68 67
35 31 35 35 37 38 38 41 43 44 47 44 49 48 58 60 61 60 60 59 57 58 59 60 61 63 63 64 65 65 66 68 68 67 68 68 69 68 68 68 67 67 67 67
38 35 32 31 36 32 31 38 42 43 49 49 47 52 54 55 58 59 61 62 62 60 62 63 64 64 64 65 66 67 67 68 67 67 67 67 67 66 66 66 67 66 66 67
36 35 37 30 33 28 34 43 43 41 45 52 53 52 54 57 59 60 61 61 61 61 60 61 61 63 63 64 65 66 66 67 67 66 67 67 67 67 68 68 67 66 66 64
38 37 34 29 32 37 39 40 38 39 41 52 54 53 58 59 58 57 60 60 60 60 59 59 59 59 61 61 61 65 65 66 67 67 67 67 67 67 66 65 64 65 64 60
38 38 33 36 29 30 37 41 45 44 38 51 55 56 56 56 52 55 58 58 57 57 57 58 58 59 59 59 61 62 64 65 64 64 66 67 67 65 65 64 64 64 63 61
34 36 34 37 33 34 38 42 43 36 37 51 55 56 55 54 56 58 58 57 56 56 56 56 56 56 57 59 59 59 59 58 59 61 61 62 62 62 62 61 61 64 63 59
34 34 35 34 31 26 41 41 37 40 52 51 54 55 53 56 58 57 56 55 55 54 54 54 54 54 54 56 57 56 55 57 58 59 59 58 58 57 57 58 58 63 61 59
36 37 33 37 35 39 44 44 45 49 52 52 53 53 53 54 57 57 56 54 54 54 53 53 53 52 52 52 54 53 51 53 53 54 53 54 53 52 54 54 53 57 60 59
37 42 40 37 41 41 41 44 46 49 50 53 55 53 53 55 57 56 55 54 54 53 53 52 52 51 51 50 49 48 48 48 47 47 47 49 49 45 45 47 47 48 50 50
37 39 38 38 41 43 41 39 42 46 49 52 56 56 57 57 57 55 55 54 53 52 51 49 48 48 48 48 48 49 49 47 45 44 44 45 45 41 41 39 39 39 37 41
36 31 35 33 40 37 37 37 42 44 46 50 52 54 57 58 57 56 55 55 53 52 52 52 52 51 51 47 46 46 47 47 47 45 45 47 45 40 39 38 35 34 33 32

GFSCGP_sfc_30mbdewp_114.txt.gz
Dewpoint
24 21 23 26 27 35 49 51 50 53 56 53 52 53 57 56 58 54 53 53 55 57 60 61 62 62 64 64 64 65 67 67 67 67 66 66 66 67 67 69 69 69 69 70
24 22 24 27 27 32 50 50 50 53 55 52 53 51 56 56 57 58 55 53 55 58 60 61 61 62 63 63 63 65 66 67 66 66 66 66 67 68 68 69 70 70 70 70
23 22 25 25 37 39 50 46 49 48 53 53 52 49 53 57 58 59 59 55 55 58 60 61 62 61 63 63 63 65 66 66 67 66 67 68 69 68 68 69 69 70 70 70
21 18 18 20 20 40 42 50 50 51 48 43 52 42 51 53 55 57 59 55 54 56 60 61 62 62 62 63 63 64 66 65 67 68 66 66 65 65 66 67 68 69 68 70
17 20 20 18 18 40 37 52 51 50 47 48 49 45 48 53 52 54 58 58 54 54 59 61 61 62 62 62 64 64 66 66 68 67 66 66 65 65 67 67 67 68 67 69
21 23 22 23 42 41 52 49 49 48 47 41 47 45 46 50 49 53 56 58 56 54 58 61 61 62 62 63 65 65 66 66 67 67 67 65 65 65 66 66 66 67 67 68
21 23 47 50 48 50 49 43 38 38 39 37 48 45 43 52 55 55 56 58 58 55 58 60 60 60 61 64 65 65 65 66 67 67 66 66 65 65 66 66 66 67 66 67
19 17 46 50 47 46 46 39 34 29 33 38 48 41 43 49 53 55 56 58 59 57 58 59 59 60 61 63 65 65 66 66 68 67 66 67 67 66 66 66 67 67 67 68
19 18 27 47 49 47 46 41 41 40 42 40 43 46 48 52 53 56 57 58 58 60 59 59 59 59 62 63 65 65 66 66 67 67 67 67 68 67 67 67 67 67 68 69
25 22 23 26 47 47 45 44 38 40 32 33 38 41 40 49 50 56 57 57 58 60 60 59 60 60 62 64 65 66 66 65 66 67 67 67 67 68 68 68 68 68 68 68
27 22 22 25 32 41 35 39 35 38 38 33 32 32 45 47 50 55 55 56 56 58 60 60 60 61 62 64 65 66 66 66 66 67 67 67 67 68 68 69 69 68 68 69
28 26 24 24 26 29 34 35 34 30 27 39 37 34 50 48 49 53 53 54 57 57 59 61 61 63 63 64 65 65 66 66 67 68 68 68 68 69 69 69 69 68 68 67
28 25 23 24 28 34 31 38 28 24 28 33 27 23 51 50 48 53 54 55 57 57 60 62 63 62 64 65 66 67 67 67 68 68 68 68 68 69 69 69 69 69 68 67
31 26 24 23 28 33 36 41 43 19 17 20 26 23 48 51 51 55 56 57 58 59 62 63 63 64 65 65 66 67 67 68 68 68 68 68 69 68 65 66 68 68 68 68
31 24 28 29 37 40 41 42 44 37 42 18 33 44 53 55 57 54 56 57 58 59 61 62 63 63 64 65 65 66 66 67 68 68 68 68 68 68 68 68 68 69 69 68
38 28 36 35 36 38 37 41 43 46 49 47 47 49 56 58 60 59 58 57 58 59 60 61 63 63 64 64 65 65 66 66 67 68 67 67 67 66 67 69 69 68 68 68
36 36 32 27 36 34 32 37 41 43 48 49 45 49 53 56 57 59 60 58 59 61 61 62 63 63 64 64 65 65 66 67 67 67 67 67 68 67 67 68 68 67 67 67
34 36 36 31 33 29 35 42 42 41 44 52 53 52 56 56 58 59 60 60 60 61 61 61 63 63 63 64 66 67 67 67 66 66 67 67 67 67 67 67 67 67 67 66
37 37 33 29 30 34 40 42 39 38 40 49 53 54 57 58 58 57 58 59 58 59 59 59 60 60 61 62 64 65 66 67 67 66 66 67 67 67 67 67 67 66 65 61
39 37 33 34 29 27 36 42 44 43 38 49 54 54 57 56 52 55 58 57 56 57 58 58 58 59 59 60 63 65 65 66 65 66 66 67 67 67 66 65 65 65 62 58
33 35 31 34 31 32 37 42 45 37 35 51 56 56 56 52 54 58 57 56 56 56 56 56 56 56 57 59 60 60 59 59 61 62 63 63 64 65 64 64 64 64 61 56
33 31 33 34 30 25 41 42 39 39 51 53 55 56 56 57 57 56 55 55 55 55 55 55 55 55 56 58 57 56 56 58 60 60 60 60 60 60 61 61 63 63 61 57
35 35 32 34 32 39 41 42 44 49 51 52 54 54 57 56 56 55 54 55 54 54 54 53 53 52 52 54 55 54 54 56 56 57 56 57 56 56 56 56 59 61 59 57
38 42 39 38 40 41 44 45 48 52 51 53 54 53 55 56 56 54 54 54 54 53 53 52 52 51 50 49 49 49 48 49 48 49 50 50 50 49 49 48 52 55 56 58
37 40 39 38 41 43 41 42 43 48 52 55 54 53 55 56 55 54 53 53 53 52 51 49 47 47 49 49 48 48 46 45 44 44 45 44 42 42 40 38 39 40 38 43
36 37 36 34 41 38 38 39 45 49 52 54 54 55 57 57 55 54 53 53 51 50 50 50 50 49 47 47 47 47 46 45 42 42 44 44 42 40 39 38 35 33 33 33

GFSCGP_sfc_30mbdewp_117.txt.gz
Dewpoint
25 27 31 26 27 34 40 47 48 53 56 55 52 53 55 58 57 56 57 58 57 58 59 61 62 63 63 64 65 66 66 68 68 68 68 67 67 68 69 68 71 70 71 72
24 26 25 27 28 40 42 44 49 53 55 53 53 51 56 58 57 56 56 57 56 57 59 60 62 62 63 64 65 66 67 69 69 68 68 68 68 68 68 70 71 71 71 72
24 24 25 26 36 39 43 36 48 48 53 53 51 49 52 58 58 58 59 56 54 56 58 60 61 61 63 63 65 66 68 69 69 69 69 70 70 69 69 70 70 71 71 72
24 21 21 21 20 31 30 45 48 51 49 44 51 43 50 54 56 56 57 57 55 55 58 59 60 61 62 63 65 66 68 69 69 69 68 67 65 65 67 68 70 70 71 72
21 18 20 19 18 27 26 50 50 50 48 47 48 47 47 53 53 54 55 55 57 55 56 58 60 61 61 63 64 65 68 69 68 69 68 65 66 66 68 69 68 70 70 71
21 23 22 22 43 32 50 49 48 49 47 42 43 45 43 50 50 52 54 53 54 56 55 58 59 61 62 62 64 64 66 68 69 70 69 69 65 66 67 68 68 68 69 69
22 22 39 47 45 48 48 43 34 34 38 34 48 46 45 50 50 50 51 53 56 56 55 57 60 61 61 62 63 64 65 67 68 69 68 69 68 68 67 66 67 68 68 68
20 16 42 47 41 40 43 34 22 22 29 37 48 43 42 49 50 52 53 54 58 55 54 57 60 61 62 62 63 64 64 65 68 68 68 69 69 67 67 68 68 68 68 69
20 20 29 48 48 45 45 39 37 39 43 38 43 45 45 50 50 54 55 56 58 56 55 56 59 61 62 62 63 64 64 65 67 67 68 69 69 69 68 69 69 69 70 69
26 24 25 34 48 47 45 43 38 41 29 28 36 41 40 48 51 53 54 56 57 58 57 57 59 60 62 63 64 65 65 65 66 67 68 68 68 70 70 70 70 70 70 70
28 25 25 26 36 35 41 40 40 41 40 29 29 29 45 47 50 54 55 56 57 58 58 59 60 61 62 63 64 66 66 66 66 67 68 68 69 69 70 70 70 71 71 71
29 27 24 25 27 29 39 37 36 32 32 38 38 29 51 50 50 55 56 57 58 60 60 60 61 61 62 63 64 65 67 67 67 67 69 69 69 70 70 70 71 71 71 71
30 26 22 23 29 34 33 40 34 28 32 32 28 25 49 51 50 54 56 57 57 58 61 62 62 62 63 63 64 65 66 67 68 68 68 69 69 70 70 71 71 71 71 70
32 27 26 20 28 35 39 40 43 34 25 26 26 28 38 53 55 54 56 56 56 58 60 63 62 63 64 64 65 66 67 68 68 68 68 68 69 70 70 71 69 69 70 70
32 27 28 29 36 38 38 39 43 38 42 23 29 42 51 55 57 58 57 58 58 59 60 62 62 63 64 65 66 67 68 68 68 68 68 68 70 71 70 69 69 69 69 69
38 30 35 34 36 34 37 37 42 46 47 47 46 47 55 57 60 58 57 58 58 60 61 62 64 64 64 64 66 67 67 68 69 69 69 70 70 70 69 69 70 69 69 69
39 38 34 28 33 34 33 37 37 43 47 48 44 50 54 56 58 59 58 58 59 60 61 62 64 64 64 64 65 66 67 67 68 68 69 69 68 68 67 68 69 69 68 68
37 39 39 30 33 28 34 42 41 39 42 48 52 52 56 57 58 58 61 60 61 61 61 63 64 64 65 66 66 66 67 66 66 66 67 68 67 67 68 68 68 68 68 67
38 39 35 29 30 33 39 40 41 37 35 46 52 54 57 58 57 57 59 59 59 59 59 60 61 62 63 65 67 67 67 67 67 66 67 67 67 67 67 67 67 68 67 66
40 40 34 35 28 26 35 41 44 42 35 44 53 54 56 56 50 54 57 58 58 59 59 58 59 59 60 61 64 66 66 66 66 66 67 67 67 67 67 67 66 66 66 63
35 37 33 35 32 32 38 41 45 36 36 50 54 54 57 54 56 57 57 57 57 58 57 57 58 57 58 60 62 62 62 62 63 64 64 64 63 65 66 66 65 63 61 59
35 35 36 35 34 29 41 42 41 42 50 53 56 57 57 57 57 57 56 57 56 57 56 57 57 56 57 58 58 57 57 60 61 62 62 62 61 61 62 63 65 62 59 58
37 37 37 38 35 42 44 44 46 49 52 54 56 57 57 56 55 55 56 56 57 56 55 55 55 54 54 55 56 55 55 57 57 58 57 56 58 58 58 60 62 62 61 59
40 43 40 39 42 43 45 47 48 52 52 55 57 56 56 54 54 56 56 56 55 55 55 54 53 51 51 50 51 51 52 53 53 53 53 54 52 53 53 52 55 59 60 58
39 42 42 40 42 44 45 48 47 51 54 54 55 56 55 54 54 54 55 55 55 54 51 51 52 51 50 50 49 48 48 48 48 47 45 44 44 47 46 43 45 46 42 48
40 41 37 29 43 44 43 44 50 54 55 53 53 54 56 55 54 53 53 53 51 51 51 50 49 49 48 47 47 49 49 47 45 44 43 42 42 42 42 40 37 33 34 35

GFSCGP_sfc_30mbdewp_120.txt.gz
Dewpoint
17 19 22 29 32 31 34 36 38 51 55 54 52 52 56 58 58 56 54 54 51 53 56 59 60 60 60 61 63 65 65 67 67 67 65 64 64 65 65 65 69 69 69 70
19 15 23 29 29 33 33 33 38 51 55 53 51 51 52 57 56 56 55 57 53 51 54 58 59 60 59 61 63 65 66 68 69 67 67 64 63 64 64 65 67 68 69 70
11 18 27 28 28 29 31 31 32 42 52 52 50 48 50 55 57 57 57 57 55 52 53 57 59 60 60 61 62 64 66 67 68 67 67 67 69 67 67 67 66 67 68 69
18 23 23 25 24 27 24 32 33 47 44 40 49 35 48 52 56 56 56 56 56 52 53 54 57 59 59 61 63 63 66 67 68 68 67 67 64 61 64 66 66 67 68 68
19 20 20 18 18 20 20 33 34 44 42 43 44 42 37 49 54 54 56 56 55 52 52 54 56 58 59 61 62 63 66 68 68 69 67 65 63 62 64 64 67 67 69 69
20 20 19 18 24 22 32 36 42 45 42 35 33 41 36 47 48 51 54 55 55 54 52 54 55 57 59 60 62 63 66 68 67 69 67 66 64 64 64 65 65 65 66 66
17 18 17 22 25 28 35 31 28 29 30 27 42 38 38 43 48 49 52 54 55 54 53 53 55 56 59 60 62 63 65 67 67 69 68 66 65 65 65 65 64 66 65 65
16 16 20 28 26 28 31 26 20 20 18 23 44 36 36 46 46 48 53 55 55 54 54 53 54 57 59 60 62 63 64 66 66 67 66 67 67 67 65 65 66 65 66 66
17 16 26 35 35 34 30 34 27 24 24 25 27 37 41 44 45 46 48 49 50 51 53 54 54 57 59 61 62 63 64 65 65 66 67 68 69 68 65 67 69 67 69 70
24 19 23 31 41 41 40 39 30 26 24 22 22 31 33 39 44 47 49 51 53 53 54 55 55 57 60 61 62 63 64 64 65 65 66 67 67 69 68 68 69 67 68 70
27 24 23 27 32 26 36 37 35 31 30 25 26 28 38 41 47 48 50 52 54 58 57 56 56 58 60 61 61 64 64 64 64 65 65 66 66 67 68 68 69 70 71 71
26 22 21 21 26 27 25 30 29 28 26 30 28 37 46 47 48 49 50 55 55 58 58 58 58 59 60 61 61 64 64 64 65 65 66 67 67 68 67 68 68 70 71 71
25 18 19 19 23 29 26 31 34 31 31 38 28 30 44 50 48 51 53 56 58 57 60 61 61 62 63 63 62 63 65 65 66 67 67 67 67 68 67 68 69 70 70 70
31 15 13 14 21 34 34 35 38 34 27 23 25 28 30 50 53 53 55 56 58 60 61 62 62 62 63 63 63 63 64 65 66 67 67 67 68 67 68 69 70 70 70 70
30 23 18 18 20 29 33 34 36 34 33 30 23 30 36 52 56 57 56 57 57 58 59 61 62 63 64 64 65 65 65 66 67 67 67 67 67 68 69 69 70 70 70 69
32 27 26 24 23 28 29 31 32 36 38 38 39 37 52 54 58 58 55 57 57 57 58 60 63 64 64 64 65 66 66 68 68 67 68 67 69 69 69 68 70 69 68 68
31 30 30 24 25 27 24 26 30 32 36 38 36 43 50 53 57 58 58 58 58 59 60 61 63 64 66 66 67 66 68 68 68 69 68 69 69 68 69 69 70 69 69 69
29 31 29 26 32 29 26 33 33 31 33 36 37 44 53 57 58 60 61 60 61 62 63 63 64 65 66 66 67 67 67 67 67 68 68 69 69 69 69 68 68 68 69 69
30 30 26 28 28 27 29 34 37 37 32 33 35 49 56 58 59 57 59 60 60 61 61 62 63 65 66 66 67 66 66 66 65 66 67 67 68 68 68 67 67 68 68 68
31 37 32 27 30 25 36 40 40 39 34 36 41 51 55 55 50 54 57 58 59 59 59 60 61 62 63 64 67 66 65 66 66 66 67 68 68 68 67 67 67 68 68 65
31 32 27 28 30 29 35 40 42 35 38 48 50 54 56 56 56 57 58 58 58 58 58 59 59 58 60 62 66 66 67 66 66 67 66 65 65 66 67 67 67 65 61 58
31 32 31 30 32 30 38 41 39 44 49 52 54 56 57 57 57 57 57 57 57 57 57 58 57 57 57 59 59 58 59 62 64 64 63 63 63 64 64 64 62 60 59 58
36 34 36 34 35 44 44 42 45 47 52 54 57 58 57 54 54 57 57 57 57 57 56 56 55 54 54 56 56 56 56 59 59 59 58 59 60 60 60 62 62 60 60 58
38 42 36 38 40 42 45 46 47 52 53 56 57 56 53 54 55 56 56 57 56 57 56 55 55 53 52 52 53 54 54 55 55 55 54 54 57 57 57 57 58 60 60 59
38 41 35 32 39 44 46 49 50 52 55 55 53 51 52 54 55 55 56 56 56 54 54 55 53 52 51 50 49 50 51 51 48 47 47 48 50 50 48 47 51 52 49 53
39 35 29 29 35 44 44 47 51 53 53 53 53 52 51 52 52 52 51 50 49 48 49 48 47 46 45 47 48 48 47 46 44 40 40 42 44 44 44 42 38 36 44 44

GFSCGP_sfc_30mbdewp_123.txt.gz
Dewpoint
9 13 20 22 29 27 30 33 32 44 53 52 50 50 54 55 56 55 55 53 47 50 52 55 55 55 55 59 61 62 62 66 66 64 62 64 62 64 63 66 67 67 66 68
12 9 14 20 27 28 28 29 31 44 51 51 47 48 50 56 54 52 59 54 49 49 51 54 54 54 56 58 61 62 63 66 67 64 66 66 63 65 64 65 66 66 67 68
11 11 19 25 25 23 25 27 28 34 48 49 47 44 48 51 56 54 56 57 51 49 51 53 53 54 56 58 61 63 64 67 68 68 65 67 69 67 62 63 64 66 67 68
12 18 23 23 21 21 20 25 27 30 40 36 48 34 45 48 52 55 53 56 54 51 49 51 53 55 55 58 60 63 65 66 67 68 66 64 64 61 60 63 66 65 66 67
15 19 18 17 18 19 19 24 26 29 33 35 36 39 33 43 50 52 53 53 57 52 51 51 52 54 55 58 60 61 65 67 67 68 68 66 65 64 65 66 68 66 67 67
18 20 17 16 16 17 17 23 28 33 33 31 30 33 31 42 47 51 53 55 55 52 52 50 53 55 57 57 60 61 65 67 68 68 67 68 66 65 66 64 66 64 64 66
14 16 15 15 17 22 18 22 23 25 24 24 32 32 30 40 47 46 51 54 56 56 52 51 52 54 57 57 60 61 64 66 67 68 66 67 66 65 66 67 64 62 64 65
15 14 15 16 16 22 20 21 20 21 19 34 35 29 35 45 44 43 48 52 55 55 53 51 52 53 59 59 59 61 63 65 66 67 67 67 66 66 64 66 63 63 63 63
17 15 19 23 22 21 25 23 22 21 20 18 31 34 34 42 38 43 46 50 53 54 54 55 52 52 58 59 59 62 63 65 65 66 66 67 67 66 64 67 67 67 66 66
23 20 20 21 25 30 27 41 29 21 19 20 21 25 32 39 35 41 45 49 53 54 55 56 53 53 55 57 61 61 63 65 65 64 65 66 66 67 67 69 69 67 68 70
25 22 22 24 26 25 28 26 33 32 32 28 24 33 48 37 41 46 47 47 49 50 52 53 60 55 56 59 60 62 63 64 65 64 65 65 65 66 67 67 68 69 69 70
24 21 19 20 24 23 28 33 32 23 27 32 31 36 46 41 37 48 50 49 52 53 55 57 55 57 58 59 60 62 63 63 64 64 66 66 66 65 65 66 66 70 70 70
24 21 14 16 16 23 22 20 21 31 32 32 31 32 47 48 36 43 50 56 57 56 59 60 60 62 59 60 61 61 63 64 64 65 64 65 66 67 66 66 67 68 70 70
24 14 11 8 11 23 26 28 37 38 25 28 28 31 42 44 45 43 47 55 58 60 61 61 62 62 61 61 63 62 63 64 64 65 64 65 65 65 66 67 68 67 67 69
22 20 18 14 11 12 16 33 36 39 38 23 27 34 38 40 47 55 54 55 59 59 63 63 62 61 64 64 65 66 65 65 66 66 66 66 67 66 67 67 68 68 68 68
26 24 23 21 19 16 14 22 39 37 32 36 32 32 48 53 57 59 54 56 56 58 59 61 62 63 63 64 64 65 66 67 68 67 67 68 69 68 68 69 69 70 69 69
27 25 24 22 21 25 22 20 27 29 26 38 35 36 53 53 57 58 60 58 59 57 58 58 63 64 64 65 66 65 67 69 68 68 68 68 68 69 69 68 70 70 70 70
22 28 26 21 21 20 26 35 36 35 27 35 41 35 50 56 58 59 60 61 61 62 63 63 64 65 65 66 66 67 67 68 68 68 68 69 69 69 69 69 69 70 70 70
21 24 23 24 25 28 25 33 34 34 28 29 31 36 52 58 58 56 58 59 59 59 60 61 64 66 66 67 67 66 66 67 68 68 68 68 67 68 68 68 69 69 69 68
21 26 26 23 25 30 33 41 42 47 30 35 34 35 43 54 50 54 57 59 59 59 59 60 61 64 66 66 67 66 65 65 65 66 67 68 68 68 68 68 68 68 68 67
28 27 24 24 24 32 33 42 39 33 37 47 39 38 52 56 57 58 58 58 58 58 59 59 58 58 59 63 66 66 66 65 65 67 67 66 66 66 67 67 67 64 61 59
28 27 28 30 32 32 38 37 32 45 45 51 55 57 57 55 56 58 58 58 58 58 58 58 56 56 57 60 61 61 61 64 66 65 65 64 65 65 65 63 61 60 60 57
29 33 39 33 36 43 42 39 43 45 46 48 55 58 55 54 55 56 57 58 58 56 56 56 55 54 55 56 57 56 58 60 60 60 60 60 60 61 63 63 61 60 59 58
34 37 30 35 40 38 41 43 43 47 51 55 56 56 53 54 55 55 56 57 57 56 56 56 54 52 52 54 55 55 56 57 57 57 57 56 57 60 62 61 60 61 60 58
41 37 32 31 32 39 43 45 48 51 53 53 54 53 53 54 54 56 56 56 55 56 55 54 53 52 51 52 53 52 52 52 51 51 52 53 52 52 52 54 56 56 53 57
36 31 28 34 35 46 46 49 51 52 50 50 50 52 53 53 53 54 54 53 53 54 52 49 47 46 47 48 48 50 48 47 46 42 42 46 47 46 45 46 46 42 46 47

GFSCGP_sfc_30mbdewp_126.txt.gz
Dewpoint
6 13 19 27 31 29 28 34 40 49 50 47 50 50 55 54 55 59 59 55 53 52 54 54 52 54 57 61 63 64 67 68 67 68 67 66 67 67 67 65 70 69 68 69
8 5 10 19 20 25 27 29 28 41 46 43 41 46 51 55 54 54 50 52 58 51 54 54 53 53 55 61 62 65 67 68 67 68 68 68 67 66 68 70 69 68 69 69
8 11 9 12 19 26 26 24 26 36 47 45 42 41 42 51 55 54 55 60 60 60 54 53 54 54 56 61 63 65 68 68 70 69 68 69 69 67 66 68 68 68 68 68
13 13 16 20 24 21 18 22 24 28 31 32 44 36 39 45 54 54 53 58 57 59 53 53 54 54 56 61 63 65 68 69 69 69 69 66 66 65 65 67 69 68 67 68
13 13 18 20 20 18 19 21 23 26 27 28 39 40 34 44 47 52 53 54 56 57 51 53 50 55 56 60 62 67 69 70 69 69 69 67 66 67 66 64 68 69 69 69
18 18 19 15 16 17 17 16 19 25 27 27 29 31 27 38 47 52 52 53 55 56 56 52 52 55 57 59 60 66 68 69 69 69 68 69 66 68 62 68 65 67 68 69
14 16 17 16 15 17 16 14 17 21 23 25 33 25 31 45 44 52 55 53 54 55 56 52 53 53 57 60 60 64 68 69 69 69 70 69 70 67 67 68 67 67 67 68
16 13 15 14 13 15 20 15 15 18 23 27 35 34 41 47 50 51 53 56 52 55 56 53 54 55 57 60 61 63 68 69 69 70 70 70 69 68 68 68 67 66 66 65
20 15 17 15 17 15 18 22 20 18 19 18 23 36 43 41 39 37 44 51 53 54 56 54 53 56 58 60 63 63 68 68 70 69 70 70 69 69 67 69 70 68 68 68
22 20 18 19 22 23 19 28 29 23 20 18 20 36 42 40 41 46 45 48 53 55 56 58 57 56 59 61 63 64 68 68 68 68 69 69 68 70 69 70 69 69 69 70
23 23 19 21 22 22 25 23 28 27 31 28 26 40 44 42 42 48 52 55 53 53 55 59 59 59 61 60 62 64 67 67 68 67 69 68 69 70 70 69 70 70 70 71
22 20 19 21 22 24 22 24 29 27 25 28 33 33 43 43 39 52 48 53 56 56 58 61 61 61 63 65 62 64 66 67 67 67 68 68 69 70 69 70 71 70 70 72
23 20 16 13 16 20 21 20 22 28 28 29 34 35 42 41 41 42 56 57 51 56 54 55 63 63 64 64 67 64 66 67 67 67 67 68 69 69 69 69 69 71 70 71
21 21 16 12 13 12 20 24 26 29 28 29 32 35 40 42 39 41 47 55 54 54 54 59 62 64 65 65 66 65 66 67 67 67 67 68 68 68 68 69 69 69 70 69
15 14 13 14 14 13 11 11 15 28 29 29 33 36 36 43 44 51 52 57 56 56 59 61 62 63 66 67 68 68 66 67 67 67 67 67 69 69 69 69 69 70 70 69
21 19 22 21 18 15 14 15 13 25 30 31 31 38 52 51 47 50 56 55 56 57 59 60 61 62 63 65 66 66 69 69 68 68 67 68 69 69 68 69 70 70 70 71
24 24 24 22 21 22 20 21 26 30 34 33 32 36 54 48 44 46 59 61 61 61 61 62 61 61 63 64 67 64 65 70 69 69 68 68 69 69 69 70 70 70 71 71
19 22 26 23 21 17 23 34 33 32 33 29 29 37 53 53 57 58 60 59 59 60 60 60 64 65 66 66 65 67 68 69 68 67 68 69 69 69 70 70 70 70 71 71
17 21 21 21 22 23 26 34 33 31 32 36 37 38 52 54 57 56 59 59 59 60 60 59 62 64 67 66 66 66 67 68 69 67 69 69 69 69 68 69 69 70 69 70
20 20 21 23 22 22 30 37 40 39 30 32 45 42 49 47 50 54 58 59 59 59 60 60 60 61 61 64 67 66 65 65 66 67 67 68 69 68 68 68 69 69 68 67
27 23 20 22 22 24 40 40 41 37 40 47 47 50 41 52 56 57 58 58 59 59 59 59 59 58 58 61 66 65 65 64 66 67 67 66 66 65 64 63 63 61 59 57
25 33 31 29 32 30 39 41 38 44 51 47 45 48 50 56 56 58 58 58 58 58 57 57 56 56 57 59 62 64 62 66 66 65 65 65 65 65 63 61 60 59 58 56
24 28 32 37 38 42 41 41 40 39 43 54 46 48 57 55 56 57 57 57 57 56 56 55 55 56 56 57 58 58 59 61 62 62 61 61 62 64 63 61 60 60 58 57
35 36 35 40 42 43 39 40 42 43 49 54 55 55 55 55 56 57 57 57 57 56 55 53 53 53 54 56 57 57 58 59 59 58 58 59 60 61 62 62 62 60 59 58
45 39 33 32 33 43 46 47 44 49 51 54 55 55 54 54 55 55 56 57 56 56 56 54 52 52 52 53 53 54 56 56 56 56 55 55 55 55 55 53 54 57 53 55
39 37 34 34 44 45 44 43 50 52 56 52 58 54 54 54 56 55 56 57 56 54 51 50 50 51 51 51 53 54 52 52 51 51 51 51 51 53 52 51 49 43 46 48

GFSCGP_sfc_30mbdewp_129.txt.gz
Dewpoint
10 6 12 19 23 31 33 40 48 53 54 53 52 53 53 55 58 58 50 55 54 53 52 53 54 61 63 63 65 65 65 67 66 67 67 67 65 65 67 68 70 68 69 68
10 4 10 18 21 27 26 27 46 51 51 46 51 51 54 54 55 59 55 51 54 56 55 52 55 60 62 62 65 66 68 67 66 68 67 66 67 68 67 67 70 68 68 70
9 9 7 7 10 16 26 26 29 45 45 44 43 40 50 55 53 57 54 49 57 58 57 54 54 60 61 62 63 67 68 68 67 69 68 70 68 65 66 67 69 67 70 69
10 9 11 8 15 21 25 24 22 45 43 32 43 38 39 51 55 54 55 54 54 56 59 54 53 58 61 62 63 67 68 67 69 69 66 66 65 62 63 66 68 67 68 69
17 14 16 18 20 23 20 21 22 26 26 26 37 40 40 49 54 55 54 56 58 55 58 58 55 57 61 62 64 67 67 67 69 69 69 66 66 66 68 67 69 69 68 69
16 18 18 18 19 18 19 17 18 20 25 25 28 38 37 49 54 55 54 57 57 54 54 58 56 56 60 62 63 67 67 66 68 68 68 68 67 65 65 67 67 68 68 69
17 18 18 19 15 16 15 15 15 18 20 23 29 34 42 44 53 56 55 56 57 57 56 58 57 55 60 62 63 66 67 68 68 68 68 67 69 68 65 66 66 68 68 68
17 13 16 15 15 17 17 15 13 15 22 24 30 37 42 49 51 57 58 56 55 55 57 56 55 56 60 61 64 66 69 68 68 67 68 68 68 70 67 67 67 67 67 69
22 20 15 15 13 13 12 19 21 19 18 19 31 41 42 42 47 52 55 55 55 56 56 55 56 58 59 59 63 65 68 68 68 68 69 70 69 69 68 68 68 69 69 68
23 20 16 16 18 19 15 21 27 30 20 22 38 42 42 41 48 50 53 54 55 56 56 55 57 57 60 61 62 66 68 68 68 68 70 70 70 69 69 69 70 69 70 70
24 23 24 20 21 21 21 22 25 28 28 29 28 37 43 41 43 50 53 57 57 58 59 61 60 59 59 62 63 66 68 68 68 68 69 69 69 68 70 69 69 69 69 68
24 21 21 22 22 22 24 25 27 26 26 32 32 36 42 44 48 51 51 53 52 57 60 63 64 60 63 64 64 67 68 68 69 69 68 68 68 68 69 69 69 69 69 71
23 24 20 17 15 18 22 25 30 30 30 32 29 35 42 42 44 50 53 57 57 57 56 59 61 61 60 63 65 65 68 68 68 67 69 68 68 69 69 70 69 69 69 70
21 21 21 17 15 12 13 13 17 27 26 28 31 34 40 41 48 54 57 56 51 55 53 57 59 61 62 64 64 66 67 69 67 67 68 69 69 69 69 70 70 71 71 69
16 16 17 16 14 18 18 16 13 13 27 28 28 31 43 47 45 48 59 60 58 56 60 62 63 63 64 65 66 66 66 69 69 67 67 68 69 69 69 69 69 70 70 69
20 16 20 24 23 21 17 16 15 15 25 31 32 37 52 49 49 48 59 59 61 61 61 62 62 63 63 65 66 66 66 66 67 63 67 69 68 69 69 68 69 69 70 70
28 25 29 26 27 24 20 29 29 29 32 33 30 36 52 46 44 53 58 59 59 60 60 59 60 62 65 64 67 66 65 65 65 64 67 68 69 67 68 68 68 69 68 69
24 22 24 24 27 23 25 33 32 31 32 33 34 49 50 49 54 58 59 58 59 60 57 56 59 59 63 66 66 67 65 65 64 64 69 68 67 67 68 68 68 68 69 68
23 28 22 21 22 25 26 35 34 33 32 40 35 50 54 57 57 56 59 59 58 59 60 60 62 59 61 63 65 66 67 66 65 68 68 68 69 68 68 68 68 69 69 69
24 25 22 22 24 24 28 37 41 39 34 46 46 49 53 55 45 52 58 59 58 58 59 59 60 61 62 63 65 65 65 66 66 67 68 68 67 66 65 66 65 63 63 61
25 26 22 23 23 26 37 40 43 34 38 47 50 52 51 49 55 58 58 58 58 58 57 58 58 57 59 62 65 63 64 64 66 66 66 65 64 64 63 62 61 59 58 57
25 29 29 32 30 33 44 41 38 44 51 48 50 52 55 55 57 58 58 58 58 56 57 57 56 56 58 59 65 62 61 65 65 65 65 64 63 63 61 60 59 58 57 56
26 29 34 35 38 44 44 41 43 48 53 53 49 51 51 53 57 58 57 57 56 55 55 56 56 56 56 58 60 60 60 62 62 62 62 63 62 61 61 60 58 57 57 56
41 43 39 38 42 40 41 46 47 53 53 56 52 53 52 52 51 57 57 56 55 54 53 53 53 55 55 56 57 58 60 60 60 60 60 62 62 61 61 61 60 59 59 58
44 39 37 39 42 44 47 53 50 56 54 50 57 56 57 54 57 57 57 56 56 54 53 52 52 50 51 55 56 57 58 59 58 58 57 57 58 57 56 53 55 56 53 57
42 36 36 39 43 42 46 54 54 52 50 51 54 57 56 57 56 57 57 56 54 53 52 51 51 52 53 52 54 56 57 57 56 55 56 56 56 56 55 53 50 42 45 49